     2.10           OBSERVATION DATA    G (GPS)             RINEX VERSION / TYPE
teqc 2000Jul20 Karen Wendt 20040726 19:10:22UTC             PGM / RUN BY / DATE
Linux 2.0.36|Pentium II|gcc -static|Linux|486/DX+           COMMENT
teqc 2000Jul20 Karen Wendt 20040726 19:10:21UTC             COMMENT
BIT 2 OF LLI FLAGS DATA COLLECTED UNDER A/S CONDITION       COMMENT
plum Plummer_TOO_1988_DOA_ForestService                     MARKER NAME
JLS USGS                                                    OBSERVER / AGENCY
ZE120023202 ASHTECH UZ-12 ZE00                              REC # / TYPE / VERS
CR14329 ASH700936D_M NONE                                   ANT # / TYPE
 -2660273.0000 -4065282.0000  4120610.0000                  APPROX POSITION XYZ
        1.3369        0.0000        0.0000                  ANTENNA: DELTA H/E/N
     1     1                                                WAVELENGTH FACT L1/2
     5    C1    L1    L2    P1    P2                        # / TYPES OF OBSERV
    30.0000                                                 INTERVAL
                                                            COMMENT
National Earthquake Hazard Reduction Program                COMMENT
Crustal Strain Project                                      COMMENT
345 Middlefield Road, MS/977                                COMMENT
U.S. Geological Survey, Menlo Park, California 94025        COMMENT
Contact: kwendt@usgs.gov (Ph: 650-329-4866)                 COMMENT
Antenna height is vertical to base of antenna               COMMENT
                                                            COMMENT
SNR is mapped to RINEX snr flag value [1-9]                 COMMENT
L1: 1 -> 1; 90 -> 5; 210 -> 9                               COMMENT
L2: 1 -> 1; 150 -> 5; 250 -> 9                              COMMENT
  2004     7    22     0     0    0.0000000     GPS         TIME OF FIRST OBS
                                                            END OF HEADER
 04  7 22  0  0  0.0000000  0  8G 3G27G13G23G16G 8G20G 1
  23649133.102    -7933993.30443  -6156621.71342  23649134.990    23649132.672
  21830300.132   -20543956.00543 -15980566.76042  21830301.853    21830297.996
  20376156.661   -23659036.47444 -18232159.84842  20376158.943    20376152.967
  21017489.891   -23927192.03443 -18636120.94842  21017491.672    21017484.366
  23088342.984    -9452928.17343  -7330800.91442  23088344.463    23088340.153
  23716516.854   -10521134.61343  -8171183.01842  23716517.660    23716514.579
  23774197.530    -7224820.93743  -5619789.62342  23774198.221    23774196.126
  21888098.761   -19846948.86343 -15431966.08442  21888100.417    21888096.956
 04  7 22  0  0 30.0000000  0  8G 3G27G13G23G16G 8G20G 1
  23638657.672    -7989041.34643  -6199516.22342  23638659.536    23638657.375
  21821369.218   -20590887.76543 -16017136.94842  21821370.968    21821367.157
  20371403.884   -23684012.53944 -18251621.71742  20371406.175    20371400.086
  21027538.730   -23874384.44143 -18594972.19142  21027540.623    21027533.346
  23104356.621    -9368776.00543  -7265227.82242  23104357.934    23104353.726
  23700353.595   -10606072.04643  -8237367.93242  23700354.521    23700351.565
  23795666.389    -7112001.75143  -5531878.71642  23795667.018    23795664.714
  21900249.648   -19783096.38043 -15382210.94042  21900251.171    21900247.749
 04  7 22  0  1  0.0000000  0  8G 3G27G13G23G16G 8G20G 1
  23628251.858    -8043724.64743  -6242126.54042  23628253.564    23628251.550
  21812473.930   -20637632.76143 -16053561.58642  21812475.669    21812471.916
  20366719.018   -23708631.58044 -18270805.38442  20366721.333    20366715.247
  21037655.817   -23821218.94243 -18553544.54542  21037657.666    21037650.388
  23120432.290    -9284296.52543  -7199399.68042  23120433.825    23120429.799
  23684216.137   -10690872.10743  -8303445.83142  23684217.079    23684214.792
  23817153.621    -6999085.63443  -5443892.24042  23817154.493    23817151.989
  21912455.059   -19718957.15443 -15332232.36442  21912456.541    21912453.074
 04  7 22  0  1 30.0000000  0  8G 3G27G13G23G16G 8G20G 1
  23617916.618    -8098037.16043  -6284447.91842  23617918.259    23617916.204
  21803614.945   -20684187.45943 -16089837.93542  21803616.623    21803612.820
  20362103.033   -23732888.72544 -18289707.05642  20362105.326    20362099.340
  21047841.515   -23767692.33943 -18511835.52242  21047843.374    21047836.126
  23136570.762    -9199488.58643  -7133315.60942  23136572.184    23136568.337
  23668106.181   -10775530.76043  -8369413.53942  23668106.917    23668104.846
  23838659.517    -6886072.02343  -5355829.84142  23838660.488    23838658.142
  21924715.290   -19654527.89943 -15282027.77142  21924716.824    21924713.607
 04  7 22  0  2  0.0000000  0  8G 3G27G13G23G16G 8G20G 1
  23607650.948    -8151982.97843  -6326483.57242  23607652.713    23607650.619
  21794790.624   -20730559.05343 -16125971.60342  21794792.319    21794788.479
  20357554.859   -23756789.32944 -18308330.90142  20357557.165    20357551.200
  21058094.723   -23713811.62643 -18469850.56842  21058096.526    21058089.332
  23152769.932    -9114361.78743  -7066983.06842  23152771.384    23152767.568
  23652022.204   -10860054.38443  -8435275.99042  23652022.790    23652020.663
  23860182.220    -6772970.54943  -5267698.95042  23860183.302    23860180.947
  21937029.613   -19589815.48443 -15231602.52642  21937031.063    21937028.044
 04  7 22  0  2 30.0000000  0  8G 3G27G13G23G16G 8G20G 1
  23597457.824    -8205547.25843  -6368221.93542  23597459.721    23597457.600
  21786003.489   -20776735.41143 -16161953.14242  21786005.171    21786001.345
  20353077.129   -23780319.70744 -18326666.25342  20353079.419    20353073.500
  21068417.567   -23659564.87543 -18427580.39342  21068419.366    21068412.240
  23169031.690    -9028906.41543  -7000394.47442  23169032.999    23169029.340
  23635965.699   -10944430.57343  -8501023.55942  23635966.486    23635964.462
  23881723.325    -6659771.48743  -5179492.00542  23881724.568    23881722.257
  21949400.238   -19524808.07043 -15180947.43242  21949401.780    21949398.590
 04  7 22  0  3  0.0000000  0  8G 3G27G13G23G16G 8G20G 1
  23587335.555    -8258740.47543  -6409671.13842  23587337.363    23587335.218
  21777251.125   -20822729.70543 -16197792.82042  21777252.797    21777248.903
  20348667.610   -23803491.85943 -18344722.46542  20348669.868    20348663.931
  21078807.515   -23604965.39743 -18385035.36942  21078809.338    21078802.287
  23185352.828    -8943138.03743  -6933562.00242  23185354.019    23185350.579
  23619934.977   -11028671.63643  -8566665.87542  23619935.460    23619933.632
  23903279.946    -6546490.39243  -5091221.18642  23903281.264    23903279.186
  21961824.479   -19459519.06643 -15130072.91842  21961826.071    21961822.698
 04  7 22  0  3 30.0000000  0  8G 3G27G13G23G16G 8G20G 1
  23577285.975    -8311550.40643  -6450821.68042  23577287.928    23577285.836
  21768535.159   -20868532.53443 -16233483.32342  21768536.824    21768532.915
  20344328.406   -23826294.42244 -18362490.68542  20344330.679    20344324.757
  21089266.408   -23550003.76643 -18342208.14142  21089268.206    21089261.150
  23201735.057    -8857049.67643  -6866480.18442  23201736.112    23201732.812
  23603931.883   -11112767.81143  -8632195.26442  23603932.419    23603930.510
  23924853.504    -6433120.73043  -5002881.33142  23924854.635    23924852.873
  21974304.066   -19393939.01143 -15078971.60442  21974305.638    21974302.218
 04  7 22  0  4  0.0000000  0  8G 3G27G13G23G16G 8G20G 1
  23567309.457    -8363977.54943  -6491673.95042  23567311.390    23567309.211
  21759854.751   -20914147.37143 -16269027.31342  21759856.469    21759852.698
  20340059.132   -23848729.60844 -18379972.64042  20340061.392    20340055.487
  21099793.492   -23494683.70543 -18299101.62242  21099795.289    21099788.148
  23218177.057    -8770647.29743  -6799153.68142  23218178.111    23218174.598
  23587955.990   -11196721.61543  -8697613.69342  23587956.612    23587954.506
  23946442.540    -6319668.38543  -4914477.03542  23946443.646    23946442.219
  21986838.198   -19328071.53243 -15027646.32342  21986839.787    21986836.411
 04  7 22  0  4 30.0000000  0  8G 3G27G13G23G16G 8G20G 1
  23557406.368    -8416018.86543  -6532225.55842  23557408.288    23557405.949
  21751210.308   -20959574.02443 -16304424.66842  21751212.008    21751208.212
  20335860.170   -23870795.42044 -18397166.76742  20335862.430    20335856.482
  21110388.813   -23439005.01243 -18255715.65642  21110390.647    21110383.386
  23234678.310    -8683933.00043  -6731584.11642  23234679.557    23234675.681
  23572006.896   -11280532.51743  -8762920.78742  23572007.534    23572005.571
  23968047.215    -6206135.60243  -4826010.04042  23968048.223    23968046.704
  21999427.084   -19261916.58243 -14976097.05242  21999428.695    21999425.241
 04  7 22  0  5  0.0000000  0  8G 3G27G13G23G16G 8G20G 1
  23547576.570    -8467674.51643  -6572476.62842  23547578.448    23547576.207
  21742601.198   -21004815.61143 -16339677.81742  21742602.868    21742598.971
  20331731.130   -23892493.60344 -18414074.43342  20331733.399    20331727.466
  21121051.816   -23382970.88943 -18212052.73542  21121053.629    21121046.328
  23251237.784    -8596912.16143  -6663775.70942  23251239.138    23251235.185
  23556084.460   -11364202.80743  -8828118.29542  23556084.896    23556083.582
  23989666.394    -6092527.99643  -4737484.75242  23989667.256    23989665.557
  22012070.207   -19195477.27343 -14924326.21542  22012071.750    22012068.210
 04  7 22  0  5 30.0000000  0  8G 3G27G13G23G16G 8G20G 1
  23537821.188    -8518939.05743  -6612422.96842  23537823.075    23537820.940
  21734027.753   -21049869.10043 -16374784.39742  21734029.438    21734025.565
  20327672.957   -23913819.59444 -18430692.08242  20327675.217    20327669.227
  21131782.805   -23326578.75243 -18168110.81842  21131784.620    21131777.472
  23267855.801    -8509584.40143  -6595728.14942  23267857.251    23267853.188
  23540189.870   -11447729.26143  -8893203.75942  23540190.164    23540188.586
  24011299.856    -5978845.39543  -4648901.02442  24011300.759    24011298.661
  22024767.808   -19128751.05143 -14872331.79542  22024769.335    22024765.773
 04  7 22  0  6  0.0000000  0  8G 3G27G13G23G16G 8G20G 1
  23528140.525    -8569810.81543  -6652063.22342  23528142.414    23528140.258
  21725489.923   -21094735.54743 -16409745.23342  21725491.553    21725487.754
  20323685.651   -23934772.99444 -18447019.39542  20323687.899    20323681.954
  21142581.725   -23269829.73043 -18123890.81642  21142583.480    21142576.485
  23284531.528    -8421953.09943  -6527444.04042  23284532.881    23284528.848
  23524322.682   -11531112.30643  -8958177.46742  23524322.874    23524321.353
  24032946.625    -5865091.28043  -4560261.60142  24032947.671    24032945.342
  22037519.669   -19061739.05443 -14820114.69042  22037521.185    22037517.774
 04  7 22  0  6 30.0000000  0  8G 3G27G13G23G16G 8G20G 1
  23518535.116    -8620287.16143  -6691395.37342  23518536.981    23518534.717
  21716987.529   -21139415.49343 -16444560.73342  21716989.188    21716985.401
  20319769.497   -23955352.60144 -18463055.44342  20319771.806    20319765.795
  21153448.653   -23212724.08343 -18079392.92642  21153450.406    21153443.343
  23301264.600    -8334021.11643  -6458925.62942  23301266.103    23301261.708
  23508482.621   -11614351.49943  -9023039.05942  23508482.952    23508481.591
  24054606.193    -5751268.47943  -4471568.64242  24054607.363    24054605.345
  22050325.833   -18994441.69743 -14767675.21342  22050327.354    22050324.036
 04  7 22  0  7  0.0000000  0  8G 3G27G13G23G16G 8G20G 1
  23509005.585    -8670364.84043  -6730416.87742  23509007.420    23509005.124
  21708520.823   -21183908.18843 -16479230.33242  21708522.488    21708518.718
  20315924.777   -23975556.49243 -18478798.72642  20315927.103    20315921.117
  21164383.457   -23155261.57643 -18034616.97242  21164385.245    21164378.094
  23318054.329    -8245790.35643  -6390174.41142  23318056.045    23318051.468
  23492669.847   -11697445.95943  -9087787.91742  23492670.161    23492669.087
  24076278.537    -5637378.84943  -4382823.62642  24076279.759    24076278.132
  22063186.449   -18926858.57843 -14715013.09142  22063187.915    22063184.656
 04  7 22  0  7 30.0000000  0  8G 3G27G13G23G16G 8G20G 1
  23499551.885    -8720044.37843  -6769128.13842  23499553.682    23499551.480
  21700089.202   -21228216.78743 -16513756.47942  21700090.856    21700087.076
  20312151.299   -23995385.93843 -18494250.23342  20312153.628    20312147.690
  21175385.538   -23097445.46043 -17989565.47642  21175387.303    21175380.088
  23334899.953    -8157266.22343  -6321194.61042  23334901.601    23334896.876
  23476884.831   -11780397.66243  -9152425.52642  23476884.968    23476883.584
  24097962.742    -5523428.01343  -4294030.94742  24097963.970    24097962.676
  22076100.823   -18858993.07443 -14662130.92942  22076102.360    22076099.030
 04  7 22  0  8  0.0000000  0  8G 3G27G13G23G16G 8G20G 1
  23490175.241    -8769318.98243  -6807523.84942  23490176.993    23490174.740
  21691693.274   -21272337.46543 -16548136.19642  21691694.935    21691691.124
  20308450.098   -24014835.67543 -18509405.86742  20308452.426    20308446.557
  21186455.620   -23039272.04343 -17944235.56342  21186457.388    21186450.126
  23351801.630    -8068447.24943  -6251985.06942  23351803.257    23351798.484
  23461127.862   -11863202.41743  -9216948.59542  23461128.104    23461126.130
  24119659.055    -5409414.68043  -4205189.52142  24119660.124    24119659.023
  22089069.721   -18790841.42143 -14609025.78642  22089071.220    22089067.993
 04  7 22  0  8 30.0000000  0  8G 3G27G13G23G16G 8G20G 1
  23480875.596    -8818189.24043  -6845604.52842  23480877.365    23480874.997
  21683332.413   -21316273.35943 -16582371.93442  21683334.126    21683330.261
  20304820.892   -24033907.31844 -18524266.87942  20304823.191    20304817.405
  21197593.077   -22980744.73543 -17898629.89642  21197594.857    21197587.574
  23368758.487    -7979339.10943  -6182550.19042  23368759.953    23368755.163
  23445398.252   -11945862.82443  -9281359.20542  23445398.517    23445396.226
  24141366.304    -5295344.62143  -4116303.89842  24141367.130    24141366.086
  22102092.362   -18722406.95343 -14555700.25942  22102093.800    22102090.700
 04  7 22  0  9  0.0000000  0  8G 3G27G13G23G16G 8G20G 1
  23471653.777    -8866650.77343  -6883366.73142  23471655.518    23471653.019
  21675007.170   -21360022.60443 -16616462.23742  21675008.862    21675004.980
  20301264.270   -24052597.61043 -18538830.73842  20301266.576    20301260.772
  21208798.253   -22921861.75343 -17852747.08342  21208800.026    21208792.609
  23385770.492    -7889942.24943  -6112890.36242  23385771.907    23385766.755
  23429696.195   -12028376.88343  -9345655.78242  23429696.618    23429694.181
  24163083.793    -5181218.48043  -4027374.55142  24163084.770    24163083.855
  22115169.207   -18653688.06143 -14502153.11642  22115170.710    22115167.437
 04  7 22  0  9 30.0000000  0  8G 3G27G13G23G16G 8G20G 1
  23462510.169    -8914700.32443  -6920807.86142  23462511.923    23462509.463
  21666717.638   -21403584.64243 -16650406.64642  21666719.253    21666715.392
  20297780.559   -24070904.51543 -18553095.85742  20297782.883    20297777.020
  21220071.010   -22862622.92143 -17806586.97642  21220072.821    21220065.418
  23402836.781    -7800258.62643  -6043007.01342  23402838.250    23402832.813
  23414022.223   -12110743.18943  -9409837.23642  23414022.810    23414020.200
  24184811.497    -5067038.37743  -3938403.13842  24184812.551    24184811.612
  22128300.398   -18584684.51243 -14448384.17742  22128301.858    22128298.229
 04  7 22  0 10  0.0000000  0  8G 3G27G13G23G16G 8G20G 1
  23453445.303    -8962335.72843  -6957926.30642  23453447.161    23453444.651
  21658463.605   -21446960.19943 -16684205.75342  21658465.222    21658461.233
  20294370.045   -24088827.27744 -18567061.64942  20294372.310    20294366.424
  21231411.270   -22803029.17343 -17760150.31242  21231413.064    21231405.831
  23419956.885    -7710291.24443  -5972902.59742  23419958.607    23419952.968
  23398376.451   -12192961.92843  -9473903.67942  23398377.055    23398374.559
  24206548.969    -4952807.13043  -3849391.91342  24206549.987    24206549.224
  22141485.210   -18515397.06843 -14394394.01542  22141486.693    22141483.193
 04  7 22  0 10 30.0000000  0  8G 3G27G13G23G16G 8G20G 1
  23444459.134    -9009558.41543  -6994723.16242  23444460.972    23444458.408
  21650244.139   -21490153.19143 -16717862.60142  21650245.823    21650241.777
  20291032.171   -24106368.11344 -18580729.83242  20291034.459    20291028.581
  21242818.328   -22743084.54043 -17713440.22542  21242820.098    21242812.915
  23437130.093    -7620046.51143  -5902582.07342  23437131.481    23437126.310
  23382758.115   -12275036.25443  -9537857.60842  23382758.718    23382756.405
  24228294.749    -4838531.43743  -3760346.03742  24228295.700    24228295.320
  22154723.242   -18445829.95443 -14340185.88742  22154724.696    22154721.556
 04  7 22  0 11  0.0000000  0  9G 3G27G13G23G16G 8G20G19G 1
  23435551.425    -9056368.18143  -7031198.21942  23435553.260    23435550.721
  21642059.018   -21533166.08043 -16751379.11842  21642060.672    21642056.676
  20287766.711   -24123528.28344 -18594101.38742  20287769.014    20287763.083
  21254291.623   -22682791.77643 -17666458.86242  21254293.419    21254286.244
  23454354.857    -7529529.43143  -5832049.30042  23454356.067    23454351.130
  23367167.017   -12356968.28543  -9601700.66142  23367167.415    23367165.402
  24250048.372    -4724216.24343  -3671269.42942  24250049.208    24250049.026
  24709284.296    -4001505.88053  -3092927.85552  24709285.944    24709282.742
  22168014.212   -18375985.84243 -14285761.95242  22168015.691    22168012.615
 04  7 22  0 11 30.0000000  0  9G 3G27G13G23G16G 8G20G19G 1
  23426725.410    -9102749.22443  -7067339.20142  23426727.274    23426724.551
  21633910.828   -21575985.62943 -16784744.96842  21633912.396    21633908.408
  20284576.605   -24140292.55844 -18607164.45642  20284578.893    20284572.933
  21265833.590   -22622137.86543 -17619196.08642  21265835.377    21265828.408
  23471633.617    -7438728.93243  -5761295.70542  23471634.986    23471629.671
  23351605.384   -12438744.10243  -9665421.96942  23351605.957    23351604.082
  24271811.599    -4609850.77243  -3582153.63642  24271812.385    24271811.947
  24693408.445    -4084932.90943  -3157935.72542  24693410.206    24693406.880
  22181360.404   -18305851.81643 -14231112.12242  22181361.894    22181358.802
 04  7 22  0 12  0.0000000  0  9G 3G27G13G23G16G 8G20G19G 1
  23417979.378    -9148709.35743  -7103152.22142  23417981.343    23417978.504
  21625797.253   -21618622.38243 -16817968.38142  21625798.832    21625794.916
  20281459.976   -24156670.74544 -18619926.67842  20281462.284    20281456.256
  21277442.338   -22561133.56643 -17571660.28842  21277444.126    21277437.218
  23488963.967    -7347658.17543  -5690331.52142  23488964.963    23488959.597
  23336071.762   -12520373.46243  -9729029.17442  23336072.445    23336070.554
  24293581.896    -4495448.05743  -3493008.81142  24293582.832    24293582.107
  24677541.230    -4168314.93143  -3222908.57542  24677542.877    24677539.843
  22194759.476   -18235438.59043 -14176244.71142  22194761.124    22194758.021
 04  7 22  0 12 30.0000000  0  9G 3G27G13G23G16G 8G20G19G 1
  23409314.084    -9194245.24943  -7138634.65042  23409316.101    23409313.306
  21617718.637   -21661075.28943 -16851048.54642  21617720.219    21617716.443
  20278417.354   -24172659.86244 -18632385.72642  20278419.671    20278413.599
  21289117.947   -22499778.26943 -17523850.98242  21289119.752    21289112.797
  23506345.605    -7256318.48243  -5619157.75942  23506346.660    23506341.110
  23320566.097   -12601854.90743  -9792521.13942  23320566.736    23320565.079
  24315359.181    -4381009.32643  -3403835.92542  24315360.264    24315359.243
  24661683.536    -4251647.72243  -3287843.10442  24661684.966    24661682.111
  22208211.935   -18164745.27343 -14121159.04442  22208213.554    22208210.569
 04  7 22  0 13  0.0000000  0  9G 3G27G13G23G16G 8G20G19G 1
  23400730.539    -9239350.29143  -7173781.40442  23400732.667    23400730.113
  21609675.870   -21703340.42543 -16883982.40942  21609677.412    21609673.695
  20275449.699   -24188254.63944 -18644537.49342  20275452.048    20275446.006
  21300861.096   -22438068.02643 -17475765.10242  21300862.902    21300855.796
  23523778.571    -7164708.16343  -5547773.10142  23523779.842    23523774.338
  23305089.581   -12683184.19243  -9855894.50642  23305090.201    23305088.305
  24337143.502    -4266533.47943  -3314634.10242  24337144.532    24337143.416
  24645836.488    -4334924.26043  -3352733.78642  24645837.799    24645834.994
  22221718.556   -18093768.36843 -14065852.40842  22221720.094    22221717.134
 04  7 22  0 13 30.0000000  0  9G 3G27G13G23G16G 8G20G19G 1
  23392230.152    -9284020.17443  -7208589.09142  23392232.095    23392229.690
  21601669.082   -21745416.09143 -16916768.61942  21601670.696    21601666.923
  20272557.640   -24203452.00144 -18656379.58842  20272560.006    20272554.034
  21312671.940   -22376001.65443 -17427401.72642  21312673.782    21312666.587
  23541262.550
  23289642.292   -12764358.79243  -9919147.36042  23289643.048    23289641.048
  24358934.614    -4152021.07143  -3225403.79142  24358935.644    24358934.505
  24630000.628    -4418139.76143  -3417576.89442  24630002.133    24629999.614
  22235279.423   -18022506.47843 -14010323.70542  22235280.959    22235277.950
 04  7 22  0 14  0.0000000  0  9G 3G27G13G23G16G 8G20G19G 1
  23383810.301    -9328267.76443  -7243067.72042  23383812.053    23383809.615
  21593695.514   -21787317.72543 -16949419.21042  21593697.153    21593693.234
  20269738.662   -24218266.16743 -18667923.09242  20269740.976    20269735.009
  21324547.617   -22313594.75143 -17378773.00742  21324549.428    21324542.268
  23558794.223
  23274221.846   -12845393.55043  -9982291.25642  23274222.314    23274220.560
  24380729.278    -4037490.13543  -3136159.05742  24380730.253    24380728.934
  24614174.322    -4501306.43343  -3482381.99042  24614175.762    24614173.612
  22248891.302   -17950975.13843 -13954585.03542  22248892.919    22248889.986
 04  7 22  0 14 30.0000000  0  9G 3G27G13G23G16G 8G20G19G 1
  23375473.657    -9372078.01943  -7277205.57942  23375475.208    23375472.764
  21585757.498   -21829032.63443 -16981924.30442  21585759.112    21585755.040
  20266995.321   -24232682.49844 -18679156.58642  20266997.648    20266991.672
  21336490.387   -22250835.16043 -17329869.45742  21336492.190    21336485.039
  23576376.374    -5332391.93042                                  23576372.662
  23258830.801   -12926275.64443 -10045316.19742  23258831.115    23258829.091
  24402529.515    -3922930.64043  -3046892.07042  24402530.266    24402529.070
  24598360.578    -4584408.62443  -3547136.82842  24598362.017    24598359.792
  22262556.900   -17879162.05943 -13898626.83342  22262558.397    22262555.620
 04  7 22  0 15  0.0000000  0  9G 3G27G13G23G16G 8G20G19G 1
  23367219.149    -9415455.73043  -7311006.36942  23367220.613    23367218.364
  21577853.462   -21870568.23643 -17014289.68542  21577855.095    21577851.000
  20264326.556   -24246707.18844 -18690084.91042  20264328.863    20264322.804
  21348498.790   -22187730.57343 -17280697.07442  21348500.581    21348493.401
  23594006.328    -5260199.84842                                  23594002.571
  23243467.591   -13007011.64043 -10108227.26142  23243467.943    23243465.461
  24424333.184    -3808352.21443  -2957610.33142  24424333.993    24424332.761
  24582557.995    -4667450.33543  -3611844.52442  24582559.632    24582557.346
  22276274.636   -17807074.99243 -13842455.12942  22276276.136    22276273.392
 04  7 22  0 15 30.0000000  0  9G 3G27G13G23G16G 8G20G19G 1
  23359049.603    -9458387.25343  -7344459.48042  23359051.038    23359048.779
  21569985.585   -21911913.63343 -17046506.85042  21569987.229    21569983.156
  20261734.667   -24260327.68044 -18700698.27342  20261736.967    20261730.867
  21360574.999   -22124270.13443 -17231247.42242  21360576.711    21360569.419
  23611686.119    -6702748.27343  -5187804.51842  23611687.690    23611682.111
  23228133.966   -13087590.48843 -10171015.88242  23228134.544    23228131.697
  24446142.102    -3693746.35943  -2868307.24442  24446142.973    24446141.540
  24566769.773    -4750417.72143  -3676494.37042  24566771.375    24566769.253
  22290046.589   -17734703.30043 -13786061.64842  22290048.106    22290045.326
 04  7 22  0 16  0.0000000  0  9G 3G27G13G23G16G 8G20G19G 1
  23350964.309    -9500876.06543  -7377567.60642  23350965.781    23350963.299
  21562152.934   -21953074.40143 -17078580.13442  21562154.569    21562150.513
  20259218.824   -24273548.47644 -18711000.18442  20259221.160    20259215.056
  21372717.763   -22060459.92143 -17181525.21942  21372719.442    21372712.143
  23629414.112    -6609587.92043  -5115212.10842  23629415.339    23629410.665
  23212828.989   -13168016.33043 -10233685.29742  23212829.692    23212826.964
  24467954.684    -3579121.32643  -2778989.18842  24467955.471    24467954.045
  24550995.094    -4833313.13643  -3741088.09842  24550996.610    24550994.856
  22303871.544   -17662052.79343 -13729450.90942  22303873.154    22303870.327
 04  7 22  0 16 30.0000000  0  9G 3G27G13G23G16G 8G20G19G 1
  23342962.606    -9542924.26143  -7410332.35842  23342964.295    23342961.678
  21554354.414   -21994055.43543 -17110513.36742  21554356.054    21554352.097
  20256778.408   -24286373.02644 -18720993.33242  20256780.740    20256774.626
  21384925.952   -21996305.31343 -17131534.63742  21384927.651    21384920.548
  23647188.739                    -5042428.40142                  23647185.041
  23197552.451   -13248294.30543 -10296239.50242  23197553.063    23197550.413
  24489769.492    -3464484.52743  -2689661.96942  24489770.435    24489768.810
  24535234.107    -4916138.35343  -3805627.09442  24535235.391    24535233.629
  22317748.510   -17589128.91443 -13672627.14042  22317750.153    22317747.351
 04  7 22  0 17  0.0000000  0  9G 3G27G13G23G16G 8G20G19G 1
  23335046.571    -9584523.10243  -7442746.99742  23335048.329    23335045.646
  21546591.321   -22034850.23343 -17142301.50042  21546592.966    21546589.067
  20254414.858   -24298793.39144 -18730671.53142  20254417.209    20254411.060
  21397200.765   -21931800.21543 -17081270.93742  21397202.517    21397195.659
  23665011.195
  23182305.511   -13328417.62943 -10358673.17542  23182306.104    23182303.427
  24511587.318    -3349831.96443  -2600322.48042  24511588.337    24511586.558
  24519488.414    -4998883.70643  -3870103.84742  24519489.684    24519486.932
  22331678.598   -17515925.53043 -13615585.57142  22331680.261    22331677.489
 04  7 22  0 17 30.0000000  0  9G 3G27G13G23G16G 8G20G19G 1
  23327216.140    -9625671.96243  -7474811.04542  23327217.880    23327215.282
  21538863.461   -22075460.52643 -17173945.85442  21538865.069    21538861.218
  20252128.126   -24310810.17544 -18740035.25542  20252130.454    20252124.302
  21409542.023   -21866946.50143 -17030735.59342  21409543.805    21409537.010
  23682878.857
  23167087.810   -13408386.81443 -10420986.76842  23167088.350    23167085.649
  24533407.365    -3235167.52143  -2510973.73342  24533408.567    24533406.580
  24503757.803    -5081547.65343  -3934517.17842  24503759.259    24503755.787
  22345661.661   -17442444.42143 -13558327.60642  22345663.241    22345660.481
 04  7 22  0 18  0.0000000  0  9G 3G27G13G23G16G 8G20G19G 1
  23319470.944    -9666372.07443  -7506525.38242  23319472.816    23319470.345
  21531170.056   -22115889.96543 -17205449.28342  21531171.674    21531167.740
  20249917.829   -24322425.36844 -18749086.04442  20249920.156    20249914.005
  21421948.951   -21801748.35343 -16979931.87842  21421950.692    21421943.800
  23700794.728
  23151898.764   -13488205.06843 -10483182.73442  23151899.399    23151896.532
  24555228.237    -3120497.47643  -2421620.62442  24555229.489    24555227.618
  24488042.646    -5164130.92143  -3998867.63342  24488044.098    24488040.438
  22359696.860   -17368689.67943 -13500856.43742  22359698.420    22359695.496
 04  7 22  0 18 30.0000000  0  9G 3G27G13G23G16G 8G20G19G 1
  23311811.444    -9706623.22143  -7537889.87342  23311813.280    23311810.797
  21523510.540   -22156140.94043 -17236813.64042  21523512.176    21523508.213
  20247783.783   -24333639.84244 -18757824.59442  20247786.105    20247779.969
  21434420.766   -21736208.48543 -16928861.87842  21434422.538    21434415.597
  23718755.198
  23136738.090   -13567874.33843 -10545262.59542  23136738.740    23136735.966
  24577049.204    -3005826.64743  -2332266.89642  24577050.442    24577048.935
  24472342.860    -5246632.70143  -4063154.59742  24472344.346    24472340.413
  22373783.282   -17294664.15443 -13443174.26742  22373784.928    22373782.059
 04  7 22  0 19  0.0000000  0  9G 3G27G13G23G16G 8G20G19G 1
  23304239.838    -9746411.86943  -7568893.99942  23304241.609    23304239.080
  21515887.154   -22196202.09243 -17268030.09442  21515888.815    21515884.776
  20245728.464   -24344440.86744 -18766240.97142  20245730.755    20245724.653
  21446959.605   -21670315.86543 -16877517.00342  21446961.456    21446954.570
  23736759.876
  23121607.913   -13647382.82743 -10607217.20842  23121608.664    23121606.089
  24598872.469    -2891146.12843  -2242905.61142  24598873.466    24598872.034
  24456661.358    -5329038.18843  -4127366.52442  24456663.088    24456658.760
  22387923.598   -17220356.78443 -13385272.47342  22387925.135    22387922.308
 04  7 22  0 19 30.0000000  0  9G 3G27G13G23G16G 8G20G19G 1
  23296754.279    -9785748.34943  -7599545.77042  23296756.052    23296753.433
  21508297.425   -22236086.23543 -17299108.62342  21508299.060    21508295.009
  20243749.543   -24354840.15644 -18774344.30642  20243751.854    20243745.756
  21459563.178   -21604083.95343 -16825907.75042  21459565.048    21459558.124
  23754810.257
  23106505.920   -13726742.94343 -10669056.20342  23106506.546    23106504.366
  24620694.685    -2776471.21843  -2153548.68442  24620695.752    24620694.339
  24440995.946    -5411357.24843  -4191511.16242  24440997.735    24440993.838
  22402115.106   -17145780.81843 -13327161.39742  22402116.570    22402113.717
 04  7 22  0 20  0.0000000  0  8G 3G27G13G23G 8G20G19G 1
  23289358.084    -9824615.75543  -7629832.02042  23289359.843    23289357.193
  21500744.112   -22275778.72443 -17330037.82242  21500745.780    21500741.816
  20241850.105   -24364821.57443 -18782122.02842  20241852.423    20241846.331
  21472234.110   -21537498.19443 -16774022.78142  21472235.970    21472228.879
  23091435.403   -13805939.51843 -10730767.72642  23091435.860    23091433.769
  24642518.000    -2661789.57343  -2064186.53642  24642519.047    24642517.714
  24425350.925    -5493572.10243  -4255574.60442  24425352.570    24425348.855
  22416360.477   -17070921.97443 -13268829.90742  22416361.888    22416358.828
 04  7 22  0 20 30.0000000  0  9G 3G27G13G23G16G 8G20G19G 1
  23282047.504    -9863032.95143  -7659767.49042  23282049.291    23282046.612
  21493223.371   -22315300.65243 -17360834.10642  21493224.989    21493221.088
  20240026.423   -24374404.95044 -18789589.58742  20240028.750    20240022.623
  21484968.115   -21470580.44343 -16721879.11242  21484970.036    21484962.824
  23791039.557
  23076392.378   -13884993.02043 -10792367.77242  23076392.750    23076390.339
  24664337.908    -2547125.21843  -1974837.86742  24664339.073    24664338.027
  24409722.460    -5575700.63043  -4319570.78942  24409724.091    24409720.700
  22430655.385   -16995801.97643 -13210294.92042  22430656.846    22430653.627
 04  7 22  0 21  0.0000000  0  8G 3G27G13G23G 8G20G19G 1
  23274826.876    -9900977.56143  -7689334.70442  23274828.575    23274825.943
  21485738.824   -22354632.06843 -17391481.94542  21485740.461    21485736.440
  20238282.553   -24383568.89743 -18796730.32242  20238284.881    20238278.770
  21497769.225   -21403310.97743 -16669461.38842  21497771.055    21497763.828
  23061380.191   -13963883.02343 -10853840.40442  23061380.569    23061378.030
  24686158.201    -2432460.20543  -1885488.66742  24686159.135    24686158.350
  24394114.858    -5657719.69643  -4383481.62942  24394116.310    24394113.266
  22445003.834   -16920400.92943 -13151540.91442  22445005.265    22445002.050
 04  7 22  0 21 30.0000000  0  8G 3G27G13G23G 8G20G19G 1
  23267694.600    -9938458.40943  -7718540.54842  23267696.225    23267693.472
  21478288.556   -22393783.83543 -17421989.79842  21478290.154    21478285.945
  20236616.652   -24392322.99743 -18803551.69342  20236618.981    20236612.918
  21510635.005   -21335701.35143 -16616778.60742  21510636.807    21510629.598
  23046396.695   -14042619.82543 -10915193.68942  23046397.254    23046394.812
  24707976.081    -2317807.91543  -1796149.40242  24707977.004    24707975.816
  24378526.455    -5739636.99343  -4447313.18242  24378527.857    24378524.942
  22459403.668   -16844730.04143 -13092576.64042  22459405.092    22459401.905
 04  7 22  0 22  0.0000000  0  8G 3G27G13G23G 8G20G19G 1
  23260650.459    -9975475.07743  -7747384.67042  23260652.174    23260649.451
  21470872.072   -22432758.00543 -17452359.25342  21470873.671    21470869.376
  20235028.589   -24400668.12743 -18810054.39342  20235030.937    20235024.885
  21523565.053   -21267753.93543 -16563832.61242  21523566.865    21523559.607
  23031442.583   -14121204.93243 -10976428.76642  23031443.051    23031440.505
  24729789.999    -2203172.74443  -1706823.49142  24729791.268    24729790.154
  24362957.756    -5821451.50143  -4511064.65142  24362959.078    24362956.169
  22473854.191   -16768792.00543 -13033404.19142  22473855.693    22473852.543
 04  7 22  0 22 30.0000000  0  8G 3G27G13G23G 8G20G19G 1
  23253696.671   -10012017.02643  -7775858.89142  23253698.482    23253695.679
  21463491.037   -22471546.05744 -17482583.68742  21463492.627    21463488.273
  20233520.361   -24408594.37943 -18816230.69442  20233522.669    20233516.578
  21536560.767   -21199460.62943 -16510617.09142  21536562.605    21536555.389
  23016518.922   -14199629.33443 -11037538.64042  23016519.514    23016516.847
  24751601.722    -2088548.76143  -1617506.29842  24751602.646    24751602.432
  24347410.721    -5903151.39043  -4574726.79242  24347411.992    24347409.176
  22488357.018   -16692578.74543 -12974017.29042  22488358.575    22488355.497
 04  7 22  0 23  0.0000000  0  8G 3G27G13G23G 8G20G19G 1
  23246832.539   -10048088.52243  -7803966.53342  23246834.310    23246831.558
  21456143.860   -22510154.95143 -17512668.52542  21456145.519    21456141.303
  20232090.714   -24416107.15343 -18822084.80542  20232093.009    20232086.908
  21549620.955   -21130828.77343 -16457137.75442  21549622.786    21549615.641
  23001624.621   -14277899.39443 -11098528.24042  23001625.190    23001622.535
  24773409.978    -1973945.17943  -1528205.00742  24773410.545    24773410.938
  24331884.918    -5984740.36343  -4638302.51142  24331886.198    24331883.110
  22502910.973   -16616097.49743 -12914421.57042  22502912.508    22502909.522
 04  7 22  0 23 30.0000000  0  7G 3G27G13G23G 8G19G 1
  23240058.568   -10083685.75443  -7831704.61442  23240060.309    23240057.600
  21448831.102   -22548582.79143 -17542612.28842  21448832.774    21448828.768
  20230740.340   -24423203.54044 -18827614.45842  20230742.642    20230736.511
  21562745.894   -21061857.23243 -16403393.73442  21562747.729    21562740.606
  22986759.923   -14356012.91343 -11159395.85842  22986760.520    22986758.038
  24316380.896    -6066213.73243  -4701788.15942  24316382.282    24316379.224
  22517516.152   -16539347.29643 -12854616.28642  22517517.606    22517514.736
 04  7 22  0 24  0.0000000  0  7G 3G27G13G23G 8G19G 1
  23233375.709   -10118803.97043  -7859069.46742  23233377.459    23233374.794
  21441553.473   -22586826.95543 -17572412.92242  21441555.127    21441551.075
  20229469.926   -24429879.70644 -18832816.66942  20229472.218    20229466.096
  21575935.816   -20992543.87743 -16349383.37442  21575937.715    21575930.643
  22971925.740   -14433967.25943 -11220139.44942  22971926.185    22971923.766
  24300899.867    -6147565.39743  -4765178.99542  24300901.174    24300898.192
  22532172.971   -16462325.69643 -12794599.50742  22532174.492    22532171.615
 04  7 22  0 24 30.0000000  0  7G 3G27G13G23G 8G19G 1
  23226783.718   -10153445.50943  -7886062.87642  23226785.430    23226782.850
  21434309.893   -22624892.02443 -17602073.99342  21434311.514    21434307.482
  20228278.891   -24436138.76444 -18837693.86942  20228281.207    20228275.053
  21589189.838   -20922893.74343 -16295110.58842  21589191.752    21589184.593
  22957121.025   -14511766.13743 -11280761.90842  22957121.429    22957118.961
  24285441.768    -6228796.78543  -4828476.08942  24285443.280    24285439.689
  22546880.461   -16385037.82743 -12734375.27642  22546882.022    22546879.091
 04  7 22  0 25  0.0000000  0  7G 3G27G13G23G 8G19G 1
  23220283.613   -10187604.30643  -7912680.08542  23220285.225    23220282.612
  21427101.255   -22662773.96943 -17631592.37042  21427102.846    21427098.731
  20227168.139   -24441975.79244 -18842242.21142  20227170.444    20227164.313
  21602508.649   -20852903.35143 -16240572.68042  21602510.523    21602503.238
  22942346.828   -14589404.51043 -11341259.28342  22942347.264    22942344.524
  24270008.051    -6309900.58443  -4891673.76042  24270009.377    24270005.514
  22561639.419   -16307479.94743 -12673940.64042  22561640.953    22561637.942
 04  7 22  0 25 30.0000000  0  7G 3G27G13G23G 8G19G 1
  23213874.832   -10221281.55543  -7938922.09242  23213876.520    23213873.922
  21419926.775   -22700476.21043 -17660970.72842  21419928.395    21419924.270
  20226137.300   -24447392.75443 -18846463.22342  20226139.615    20226133.525
  21615891.418   -20782576.58443 -16185772.66242  21615893.293    21615885.911
  22927602.568   -14666885.68943 -11401634.16242  22927603.045    22927600.123
  24254598.717    -6390877.36443  -4954772.49042  24254600.075    24254596.041
  22576448.897   -16229656.11443 -12613298.76742  22576450.395    22576447.365
 04  7 22  0 26  0.0000000  0  7G 3G27G13G23G 8G19G 1
  23207558.688   -10254473.06143  -7964785.61442  23207560.352    23207557.691
  21412786.895   -22737996.62343 -17690207.39842  21412788.494    21412784.507
  20225187.094   -24452386.22044 -18850354.23642  20225189.373    20225183.321
  21629338.373   -20711912.29543 -16130709.61342  21629340.199    21629332.941
  22912888.685   -14744207.01643 -11461884.49142  22912889.242    22912886.354
  24239214.725    -6471721.83343  -5017768.09042  24239215.934    24239211.921
  22591308.945   -16151564.96343 -12552448.58542  22591310.578    22591307.608
 04  7 22  0 26 30.0000000  0  7G 3G27G13G23G 8G19G 1
  23201334.367   -10287182.58843  -7990273.54242  23201335.984    23201333.342
  21405680.485   -22775340.97743 -17719306.89942  21405682.076    21405678.130
  20224316.593   -24456960.61443 -18853918.71442  20224318.883    20224312.828
  21642848.477   -20640916.31943 -16075388.13542  21642850.193    21642843.139
  22898204.270   -14821373.79943 -11522014.41942  22898204.790    22898202.064
  24223855.318    -6552436.28943  -5080662.43642  24223856.698    24223852.769
  22606219.012   -16073212.61643 -12491394.88642  22606220.630    22606217.554
 04  7 22  0 27  0.0000000  0  7G 3G27G13G23G 8G19G 1
  23195203.646   -10319400.54843  -8015378.48442  23195205.160    23195202.514
  21398609.092   -22812501.62943 -17748263.27642  21398610.625    21398606.634
  20223527.542   -24461107.29343 -18857149.93642  20223529.812    20223523.748
  21656423.105   -20569581.53343 -16019802.68442  21656424.845    21656417.728
  22883550.967   -14898377.84243 -11582017.58842  22883551.443    22883548.648
  24208522.847    -6633009.93943  -5143447.12042  24208524.087    24208520.427
  22621180.129   -15994591.81743 -12430132.05642  22621181.695    22621178.642
 04  7 22  0 27 30.0000000  0  7G 3G27G13G23G 8G19G 1
  23189165.989   -10351128.68243  -8040101.71642  23189167.535    23189164.962
  21391571.809   -22849482.56543 -17777079.59242  21391573.361    21391569.259
  20222819.286   -24464829.08043 -18860050.05642  20222821.544    20222815.541
  21670061.345   -20497912.86543 -15963957.05242  21670063.073    21670055.905
  22868927.958   -14975223.01643 -11641896.90942  22868928.344    22868925.409
  24193216.754    -6713443.78643  -5206122.80542  24193218.123    24193214.484
  22636191.371   -15915707.30143 -12368663.70542  22636192.883    22636189.944
 04  7 22  0 28  0.0000000  0  7G 3G27G13G23G 8G19G 1
  23183222.098   -10382364.12243  -8064441.00742  23183223.639    23183221.123
  21384568.832   -22886283.20743 -17805755.41642  21384570.365    21384566.238
  20222192.291   -24468124.15544 -18862617.66442  20222194.553    20222188.494
  21683763.076   -20425910.05743 -15907851.02342  21683764.837    21683757.769
  22854335.263   -15051907.75043 -11701651.18542  22854335.680    22854332.618
  24177937.701    -6793734.03943  -5268686.59942  24177939.173    24177935.789
  22651252.876   -15836558.89843 -12306989.71842  22651254.326    22651251.480
 04  7 22  0 28 30.0000000  0  7G 3G27G13G23G 8G19G 1
  23177372.060   -10413106.35843  -8088395.98842  23177373.637    23177370.924
  21377600.015   -22922904.76543 -17834291.69542  21377601.539    21377597.410
  20221646.441   -24470992.55244 -18864852.79642  20221648.704    20221642.655
  21697527.968   -20353575.18243 -15851486.25442  21697529.748    21697522.724
  22839772.747   -15128433.28543 -11761281.43042  22839773.156    22839770.257
  24162686.934    -6873878.77743  -5331136.99542  24162688.236    24162684.772
  22666364.213   -15757148.51543 -12245111.59942  22666365.654    22666362.811
 04  7 22  0 29  0.0000000  0  7G 3G27G13G23G 8G19G 1
  23171616.916   -10443350.18243  -8111962.57042  23171618.492    23171615.652
  21370665.910   -22959344.09743 -17862685.95942  21370667.458    21370663.315
  20221182.747   -24473429.56544 -18866751.76742  20221184.974    20221178.921
  21711356.538   -20280905.60243 -15794860.65142  21711358.370    21711351.297
  22825241.429   -15204795.72443 -11820784.55342  22825241.855    22825239.000
  24147464.757    -6953871.53743  -5393468.90642  24147466.250    24147462.686
  22681525.840   -15677473.44143 -12183027.19542  22681527.265    22681524.422
 04  7 22  0 29 30.0000000  0  7G 3G27G13G23G 8G19G 1
  23165955.295   -10473102.28443  -8135145.99642  23165956.873    23165954.151
  21363764.882   -22995609.31843 -17890944.55842  21363766.418    21363762.334
  20220799.550   -24475442.93543 -18868320.62442  20220801.819    20220795.819
  21725247.110   -20207910.30943 -15737981.25942  21725248.937    21725241.907
  22810739.724   -15281002.83143 -11880166.64342  22810740.177    22810737.297
  24132270.416    -7033717.61143  -5455686.54842  24132271.889    24132268.538
  22696736.210   -15597542.65143 -12120743.54842  22696737.643    22696734.619
 04  7 22  0 30  0.0000000  0  7G 3G27G13G23G 8G19G 1
  23160389.962   -10502347.99143  -8157934.84042  23160391.675    23160388.948
  21356899.288   -23031688.32043 -17919058.06542  21356900.822    21356896.746
  20220499.643   -24477019.09444 -18869548.80342  20220501.907    20220495.893
  21739201.891   -20134577.55243 -15680838.91042  21739203.724    21739196.791
  22796269.873   -15357042.35643 -11939418.19042  22796270.362    22796267.420
  24117106.798    -7113401.45943  -5517777.77142  24117108.322    24117105.316
  22711997.584   -15517344.26943 -12058251.40242  22711998.953    22711995.915
 04  7 22  0 30 30.0000000  0  8G 3G27G13G23G10G 8G19G 1
  23154920.339   -10531090.63843  -8180331.73242  23154922.179    23154919.314
  21350068.167   -23067586.11443 -17947030.38142  21350069.736    21350065.649
  20220282.210   -24478161.74444 -18870439.20442  20220284.503    20220278.455
  21753219.808   -20060913.12843 -15623438.12842  21753221.555    21753214.700
  24615824.338    -2036063.85253  -1449760.94552  24615825.927    24615824.680
  22781831.035   -15432918.76443 -11998542.66942  22781831.473    22781828.648
  24101973.545    -7192924.97643  -5579744.15842  24101975.046    24101972.429
  22727308.718   -15436884.13043 -11995555.31342  22727310.129    22727307.141
 04  7 22  0 31  0.0000000  0  8G 3G27G13G23G10G 8G19G 1
  23149546.057   -10559332.83543  -8202338.66742  23149547.753    23149544.933
  21343270.576   -23103307.43743 -17974865.17942  21343272.121    21343268.112
  20220146.644   -24478874.36244 -18870994.50542  20220148.939    20220142.868
  21767299.715   -19986922.43543 -15565783.11142  21767301.503    21767294.592
  24599671.294    -2120949.64443  -1515905.74142  24599672.664    24599671.384
  22767422.462   -15508635.74243 -12057542.86142  22767422.948    22767420.250
  24086870.955    -7272289.51043  -5641586.60642  24086872.367    24086869.873
  22742668.726   -15356167.45243 -11932659.30442  22742670.089    22742667.206
 04  7 22  0 31 30.0000000  0  8G 3G27G13G23G10G 8G19G 1
  23144267.221   -10587073.00843  -8223954.39042  23144268.950    23144266.037
  21336506.521   -23138852.42743 -18002562.57042  21336508.053    21336504.095
  20220093.018   -24479156.18443 -18871214.11942  20220095.317    20220089.237
  21781441.728   -19912606.17743 -15507874.39342  21781443.473    21781436.413
  24583583.799    -2205488.94443  -1581780.49342  24583585.179    24583583.906
  22753044.266   -15584193.40243 -12116418.90842  22753044.674    22753041.968
  24071799.322    -7351492.29143  -5703302.95142  24071800.712    24071798.085
  22758077.411   -15275194.89743 -11869563.88842  22758078.747    22758075.809
 04  7 22  0 32  0.0000000  0  8G 3G27G13G23G10G 8G19G 1
  23139085.399   -10614304.86443  -8245174.00342  23139086.920    23139084.075
  21329777.108   -23174216.20643 -18030118.76142  21329778.606    21329774.548
  20220122.436   -24479001.59543 -18871093.67542  20220124.724    20220118.650
  21795646.584   -19837960.34943 -15449708.86142  21795648.260    21795641.096
  24567563.613    -2289674.69243  -1647379.76142  24567565.221    24567563.765
  22738697.442   -15659586.30143 -12175166.57942  22738697.807    22738694.937
  24056759.879    -7430525.35443  -5764887.06242  24056761.323    24056758.445
  22773535.547   -15193962.41843 -11806265.94542  22773536.980    22773533.925
 04  7 22  0 32 30.0000000  0  8G 3G27G13G23G10G 8G19G 1
  23134000.003   -10641028.44943  -8265997.57542  23134001.683    23133998.841
  21323081.578   -23209401.13443 -18057535.57142  21323083.144    21323079.097
  20220234.781   -24478411.36944 -18870633.76342  20220237.056    20220230.931
  21809913.213   -19762987.78043 -15391288.70342  21809914.981    21809908.141
  24551611.293    -2373506.23743  -1712702.96042  24551612.599    24551611.020
  22724381.648   -15734816.41643 -12233787.39442  22724382.051    22724378.968
  24041752.937    -7509387.68343  -5826338.11242  24041754.452    24041751.269
  22789042.562   -15112472.83843 -11742767.65042  22789044.046    22789040.994
 04  7 22  0 33  0.0000000  0  8G 3G27G13G23G10G 8G19G 1
  23129011.695   -10667241.87043  -8286423.60542  23129013.364    23129010.635
  21316420.303   -23244406.75144 -18084812.66042  21316421.855    21316417.730
  20220430.258   -24477384.01644 -18869833.24842  20220432.579    20220426.434
  21824241.993   -19687688.91243 -15332614.27442  21824243.765    21824237.125
  24535726.923    -2456980.54243  -1777747.81042  24535727.939    24535726.017
  22710097.054   -15809882.97643 -12292280.78442  22710097.486    22710094.239
  24026779.251    -7588075.76643  -5887653.43942  24026780.767    24026777.257
  22804598.349   -15030726.49543 -11679069.28842  22804599.839    22804596.867
 04  7 22  0 33 30.0000000  0  8G 3G27G13G23G10G 8G19G 1
  23124120.303   -10692945.16643  -8306452.10742  23124122.000    23124119.603
  21309792.698   -23279235.09744 -18111951.60842  21309794.295    21309790.033
  20220708.759   -24475920.77944 -18868693.06642  20220711.058    20220704.876
  21838632.583   -19612066.38043 -15273687.66842  21838634.348    21838627.524
  24519909.983    -2540097.27543  -1842514.02642  24519911.194    24519909.413
  22695843.104   -15884787.49643 -12350647.90242  22695843.546    22695840.376
  24011838.590    -7666588.47143  -5948832.09642  24011840.062    24011836.630
  22820202.513   -14948726.06243 -11615172.92042  22820203.974    22820201.228
 04  7 22  0 34  0.0000000  0  8G 3G27G13G23G10G 8G19G 1
  23119327.573   -10718130.81243  -8326077.26742  23119329.280    23119326.877
  21303199.893   -23313880.26343 -18138947.81842  21303201.519    21303197.120
  20221071.489   -24474014.72244 -18867207.82042  20221073.796    20221067.634
  21853085.695   -19536115.35743 -15214505.10642  21853087.453    21853080.522
  24504163.057    -2622847.96343  -1906995.02542  24504164.338    24504162.334
  22681620.996   -15959523.75943 -12408883.92842  22681621.490    22681618.493
  23996932.874    -7744917.09143  -6009867.31042  23996934.365    23996931.136
  22835855.863   -14866466.61343 -11551074.70742  22835857.391    22835854.683
 04  7 22  0 34 30.0000000  0  8G 3G27G13G23G10G 8G19G 1
  23114632.585   -10742804.01343  -8345303.09842  23114634.226    23114631.595
  21296640.576   -23348349.25843 -18165806.74942  21296642.221    21296637.851
  20221517.279   -24471671.80743 -18865382.16442  20221519.604    20221513.468
  21867599.681   -19459843.20543 -15155072.29542  21867601.410    21867594.750
  24488485.108    -2705236.74443  -1971193.97442  24488486.446    24488484.370
  22667429.929   -16034098.35743 -12466993.94842  22667430.412    22667427.492
  23982061.777    -7823065.08343  -6070761.74742  23982063.158    23982059.655
  22851557.242   -14783955.53043 -11486780.45142  22851558.780    22851556.051
 04  7 22  0 35  0.0000000  0  8G 3G27G13G23G10G 8G19G 1
  23110035.547   -10766961.61143  -8364127.17842  23110037.208    23110034.513
  21290115.150   -23382640.78243 -18192527.39642  21290116.771    21290112.423
  20222046.784   -24468889.35343 -18863214.01642  20222049.088    20222043.001
  21882175.049   -19383249.52443 -15095388.93142  21882176.682    21882170.235
  24472876.500    -2787259.35043  -2035107.63842  24472877.987    24472875.976
  22653270.021   -16108509.30343 -12524976.45742  22653270.485    22653267.488
  23967225.676    -7901027.96143  -6131511.93842  23967226.970    23967223.556
  22867306.498   -14701192.24643 -11422289.64142  22867308.034    22867305.407
 04  7 22  0 35 30.0000000  0  8G 3G27G13G23G10G 8G19G 1
  23105537.310   -10790599.51343  -8382546.30642  23105538.911    23105536.456
  21283623.838   -23416752.30043 -18219107.77942  21283625.479    21283621.269
  20222660.541   -24465664.02544 -18860700.76842  20222662.847    20222656.789
  21896811.928   -19306332.63643 -15035453.73042  21896813.614    21896807.062
  24457338.638    -2868910.75543  -2098732.02142  24457339.958    24457338.330
  22639141.641   -16182753.54143 -12582829.05642  22639142.164    22639139.178
  23952426.307    -7978800.48643  -6192113.82142  23952427.398    23952424.082
  22883104.190   -14618174.91343 -11357600.86342  22883105.675    22883103.189
 04  7 22  0 36  0.0000000  0  8G 3G27G13G23G10G 8G19G 1
  23101138.104   -10813717.13743  -8400560.01542  23101139.641    23101137.323
  21277166.713   -23450684.89944 -18245548.74542  21277168.334    21277164.197
  20223358.498   -24461996.09543 -18857842.63242  20223360.819    20223354.798
  21911510.005   -19229094.30243 -14975268.06242  21911511.668    21911504.871
  24441871.726    -2950189.48443  -2162066.01842  24441873.062    24441871.324
  22625044.900   -16256831.92843 -12640552.41942  22625045.350    22625042.495
  23937663.260    -8056380.25843  -6252565.46942  23937664.477    23937661.176
  22898950.006   -14534905.26043 -11292715.47642  22898951.496    22898949.038
 04  7 22  0 36 30.0000000  0  8G 3G27G13G23G10G 8G19G 1
  23096837.767   -10836314.85943  -8418168.60842  23096839.458    23096837.090
  21270743.238   -23484440.43044 -18271851.73142  21270744.905    21270740.743
  20224140.503   -24457886.44343 -18854640.29742  20224142.823    20224136.822
  21926268.747   -19151537.31243 -14914834.09642  21926270.366    21926263.350
  24426475.930    -3031094.92343  -2225109.13542  24426477.220    24426475.421
  22610979.561   -16330746.03743 -12698147.74742  22610979.952    22610977.216
  23922937.115    -8133766.20543  -6312866.12942  23922938.295    23922934.847
  22914843.330   -14451386.06543 -11227635.62342  22914844.845    22914842.399
 04  7 22  0 37  0.0000000  0  8G 3G27G13G23G10G 8G19G 1
  23092636.810   -10858390.03743  -8435370.00242  23092638.534    23092636.277
  21264353.634   -23518018.03743 -18298016.07842  21264355.315    21264351.098
  20225006.961   -24453333.30744 -18851092.39542  20225009.267    20225003.259
  21941088.027   -19073661.75043 -14854151.89842  21941089.680    21941082.634
  24411151.846    -3111623.64743  -2287858.71242  24411153.309    24411151.265
  22596945.707   -16404494.80843 -12755614.24342  22596946.041    22596943.256
  23908248.684    -8210954.39443  -6373012.67942  23908249.773    23908246.412
  22930784.043   -14367616.94343 -11162361.02842  22930785.669    22930783.285
 04  7 22  0 37 30.0000000  0  8G 3G27G13G23G10G 8G19G 1
  23088535.700   -10879942.38743  -8452164.00242  23088537.396    23088534.920
  21257997.610   -23551418.96443 -18324042.75742  21257999.276    21257995.022
  20225957.789   -24448336.79544 -18847199.00542  20225960.068    20225954.051
  21955967.476   -18995469.40643 -14793222.84042  21955969.141    21955962.322
  24395899.806    -3191774.38643  -2350313.79042  24395901.308    24395899.024
  22582943.172   -16478078.42643 -12812952.02742  22582943.575    22582940.620
  23893598.044    -8287942.77843  -6433003.55442  23893599.264    23893595.876
  22946771.996   -14283600.00743 -11096893.36042  22946773.662    22946771.104
 04  7 22  0 38  0.0000000  0  8G 3G27G13G23G10G 8G19G 1
  23084534.930   -10900966.72243  -8468546.56942  23084536.637    23084534.096
  21251675.869   -23584639.49043 -18349928.86142  21251677.515    21251673.345
  20226993.916   -24442892.06944 -18842956.35742  20226996.208    20226990.213
  21970907.767   -18916957.37643 -14732044.66842  21970909.489    21970902.837
  24380720.656    -3271540.51543  -2412469.16342  24380722.112    24380719.773
  22568972.805   -16551493.24943 -12870158.27942  22568973.255    22568970.098
  23878987.083    -8364724.40643  -6492833.31042  23878988.331    23878984.686
  22962807.696   -14199332.42943 -11031230.40642  22962809.320    22962806.520
 04  7 22  0 38 30.0000000  0  8G 3G27G13G23G10G 8G19G 1
  23080634.412   -10921464.13643  -8484518.54642  23080636.131    23080633.524
  21245388.055   -23617682.28344 -18375676.46142  21245389.671    21245385.455
  20228114.976   -24437001.00644 -18838365.91542  20228117.288    20228111.291
  21985908.258   -18838129.40343 -14670620.31342  21985910.002    21985903.394
  24365614.663    -3350922.40343  -2474325.14242  24365616.068    24365613.972
  22555034.093   -16624741.48443 -12927234.73542  22555034.645    22555031.351
  23864415.344    -8441299.10043  -6552501.81742  23864416.718    23864412.982
  22978890.365   -14114817.64643 -10965374.81942  22978891.955    22978889.229
 04  7 22  0 39  0.0000000  0  8G 3G27G13G23G10G 8G19G 1
  23076834.224   -10941434.18543  -8500079.58542  23076835.908    23076833.109
  21239133.771   -23650548.38043 -18401286.38542  21239135.393    21239131.134
  20229320.758   -24430664.08043 -18833428.04642  20229323.082    20229317.152
  22000968.596   -18758987.21743 -14608951.12942  22000970.302    22000963.645
  24350582.276    -3429918.34143  -2535880.37342  24350583.626    24350581.596
  22541126.776   -16697823.69543 -12984181.81542  22541127.416    22541124.172
  23849883.316    -8517664.62643  -6612007.33742  23849884.755    23849881.125
  22995019.842   -14030057.40343 -10899327.95142  22995021.347    22995018.654
 04  7 22  0 39 30.0000000  0  8G 3G27G13G23G10G 8G19G 1
  23073134.704   -10960873.25743  -8515226.91342  23073136.584    23073133.989
  21232913.469   -23683236.00144 -18426757.23742  21232915.092    21232910.817
  20230612.110   -24423878.30143 -18828140.42342  20230614.382    20230608.419
  22016088.726   -18679530.07043 -14547036.50942  22016090.480    22016083.851
  24335624.186    -3508523.83943  -2597131.35942  24335625.513    24335623.765
  22527251.634   -16770737.82143 -13040997.91442  22527252.197    22527248.898
  23835392.145    -8593816.19143  -6671346.13742  23835393.450    23835389.888
  23011196.326   -13945050.68543 -10833089.03242  23011197.818    23011195.099
 04  7 22  0 40  0.0000000  0  8G 3G27G13G23G10G 8G19G 1
  23069537.332   -10979778.14843  -8529957.95942  23069539.161    23069536.600
  21226727.698   -23715743.20944 -18452087.51242  21226729.269    21226724.940
  20231989.296   -24416640.80244 -18822500.81342  20231991.589    20231985.630
  22031269.240   -18599756.75043 -14484875.52542  22031270.993    22031264.353
  24320741.159    -3586734.59343  -2658074.76542  24320742.372    24320741.092
  22513409.144   -16843481.15443 -13097680.93542  22513409.618    22513406.169
  23820942.612    -8669748.83743  -6730514.34542  23820943.909    23820940.299
  23027419.811   -13859796.46143 -10766657.24142  23027421.242    23027418.601
 04  7 22  0 40 30.0000000  0  8G 3G27G13G23G10G 8G19G 1
  23066040.309   -10998155.61643  -8544278.01442  23066042.214    23066039.581
  21220574.602   -23748078.07644 -18477283.48542  21220576.180    21220571.886
  20233451.175   -24408958.68444 -18816514.75042  20233453.476    20233447.462
  22046508.018   -18519676.16143 -14422475.09042  22046509.783    22046503.307
  24305932.019    -3664556.21243  -2718714.93142  24305933.275    24305932.082
  22499597.492   -16916061.54543 -13154237.01142  22499597.955    22499594.562
  23806533.431    -8745467.56343  -6789515.88542  23806534.910    23806531.373
  23043688.617   -13774303.52343 -10700039.42742  23043690.025    23043687.613
 04  7 22  0 41  0.0000000  0  8G 3G27G13G23G10G 8G19G 1
  23062645.853   -11015993.68443  -8558177.79342  23062647.776    23062645.023
  21214456.338   -23780229.74644 -18502336.70142  21214457.937    21214453.575
  20234999.807   -24400820.85044 -18810173.58042  20235002.110    20234996.049
  22061806.891   -18439278.72043 -14359827.73942  22061808.702    22061802.493
  24291199.486    -3741975.40943  -2779041.51942  24291200.815    24291199.291
  22485818.789   -16988468.31143 -13210657.78342  22485819.256    22485816.070
  23792167.910    -8820958.45343  -6848339.91242  23792169.380    23792165.844
  23060004.862   -13688562.01043 -10633227.91842  23060006.258    23060003.861
 04  7 22  0 41 30.0000000  0  8G 3G27G13G23G10G 8G19G 1
  23059352.677   -11033298.07043  -8571661.71642  23059354.597    23059352.019
  21208371.555   -23812205.40744 -18527252.78042  21208373.192    21208368.777
  20236633.921   -24392233.41044 -18803482.06142  20236636.253    20236630.227
  22077164.669   -18358572.40843 -14296939.73942  22077166.513    22077160.359
  24276542.809    -3818996.93943  -2839058.22942  24276544.032    24276542.234
  22472071.982   -17060707.84743 -13266948.24142  22472072.461    22472069.332
  23777844.935    -8896225.51643  -6906989.49942  23777846.292    23777842.951
  23076366.692   -13602579.78643 -10566228.85742  23076368.124    23076365.751
 04  7 22  0 42  0.0000000  0  8G 3G27G13G23G10G 8G19G 1
  23056161.555   -11050066.29943  -8584727.85342  23056163.483    23056161.074
  21202320.335   -23844004.37944 -18552031.17842  21202321.973    21202317.591
  20238353.926   -24383194.77544 -18796438.96542  20238356.255    20238350.216
  22092581.384   -18277557.33643 -14233811.15942  22092583.176    22092577.060
  24261962.562    -3895617.51543  -2898762.54842  24261963.662    24261961.653
  22458357.048   -17132779.21243 -13323107.66142  22458357.626    22458354.582
  23763565.372    -8971264.86043  -6965461.64342  23763566.601    23763563.480
  23092773.945   -13516357.08243 -10499042.37942  23092775.509    23092773.046
 04  7 22  0 42 30.0000000  0  8G 3G27G13G23G10G 8G19G 1
  23053073.765   -11066294.22743  -8597372.92942  23053075.589    23053072.997
  21196303.324   -23875623.58244 -18576669.49942  21196304.954    21196300.691
  20240160.476   -24373701.03543 -18789041.24242  20240162.805    20240156.828
  22108057.308   -18196231.47043 -14170440.39342  22108059.003    22108052.953
  24247459.514    -3971831.53043  -2958150.03842  24247460.857    24247458.496
  22444675.044   -17204678.60743 -13379133.10042  22444675.529    22444672.507
  23749330.248    -9046070.47743  -7023751.66742  23749331.459    23749328.273
  23109227.709   -13429891.72743 -10431666.86842  23109229.158    23109226.892
 04  7 22  0 43  0.0000000  0  8G 3G27G13G23G10G 8G19G 1
  23050087.168   -11081989.46343  -8609602.93642  23050088.946    23050086.337
  21190318.980   -23907071.70544 -18601174.51542  21190320.515    21190316.286
  20242052.094   -24363760.20943 -18781295.14342  20242054.447    20242048.468
  22123590.620   -18114604.22843 -14106834.78942  22123592.349    22123586.255
  24233032.488    -4047645.35943  -3017225.70442  24233033.862    24233031.470
  22431024.227   -17276414.21943 -13435030.92442  22431024.732    22431021.537
  23735138.564    -9120648.15543  -7081864.09242  23735139.829    23735136.440
  23125726.202   -13343193.18843 -10364109.63942  23125727.548    23125725.251
 04  7 22  0 43 30.0000000  0  8G 3G27G13G23G10G 8G19G 1
  23047204.048   -11097140.48943  -8621408.89242  23047205.763    23047203.207
  21184369.066   -23938338.99844 -18625538.61942  21184370.573    21184366.315
  20244030.808   -24353361.82544 -18773192.50842  20244033.150    20244027.168
  22139182.898   -18032666.85143 -14042987.52742  22139184.685    22139178.463
  24218684.114    -4123046.52043  -3075979.79342  24218685.395    24218682.905
  22417406.460   -17347976.59043 -13490793.76042  22417406.874    22417403.547
  23720992.801    -9194984.78943  -7139788.66442  23720994.061    23720990.409
  23142270.544   -13256252.71143 -10296363.87242  23142271.922    23142269.714
 04  7 22  0 44  0.0000000  0  8G 3G27G13G23G10G 8G19G 1
  23044424.364   -11111746.26543  -8632790.03642  23044426.180    23044423.650
  21178453.487   -23969425.45244 -18649761.80542  21178455.028    21178450.715
  20246096.840   -24342504.71444 -18764732.42742  20246099.183    20246093.179
  22154834.032   -17950420.57143 -13978899.57442  22154835.764    22154829.288
  24204414.535    -4198032.81843  -3134410.59042  24204415.792    24204413.416
  22403821.600   -17419364.78843 -13546420.88442  22403822.055    22403818.768
  23706893.426    -9269077.48543  -7197523.15742  23706894.693    23706890.426
  23158860.409   -13169071.12643 -10228430.23642  23158861.976    23158859.987
 04  7 22  0 44 30.0000000  0  8G 3G27G13G23G10G 8G19G 1
  23041747.702   -11125811.96943  -8643750.31542  23041749.482    23041746.972
  21172571.164   -24000337.13344 -18673848.80642  21172572.726    21172568.423
  20248249.140   -24331194.43744 -18755919.23042  20248251.443    20248245.445
  22170542.487   -17867872.32643 -13914576.31542  22170544.195    22170537.539
  24190222.694    -4272607.68043  -3192520.75742  24190224.385    24190222.224
  22390268.593   -17490584.98043 -13601917.09742  22390269.083    22390266.005
  23692840.147    -9342929.33143  -7255069.95342  23692841.386    23692836.714
  23175495.249   -13081655.48943 -10160314.23242  23175496.855    23175494.770
 04  7 22  0 45  0.0000000  0  8G 3G27G13G23G10G 8G19G 1
  23039174.465   -11139335.12243  -8654287.77442  23039176.271    23039173.416
  21166722.334   -24031072.93244 -18697798.75742  21166723.899    21166719.559
  20250487.963   -24319429.33843 -18746751.62242  20250490.290    20250484.319
  22186308.411   -17785022.05143 -13850017.71142  22186310.068    22186303.414
  24176110.307    -4346767.56343  -3250307.60142  24176111.720    24176109.948
  22376748.126   -17561635.27843 -13657280.92242  22376748.561    22376745.466
  23678833.228    -9416535.98643  -7312425.70742  23678834.540    23678829.717
  23192174.705   -12994005.44643 -10092015.57042  23192176.317    23192174.199
 04  7 22  0 45 30.0000000  0  8G 3G27G13G23G10G 8G19G 1
  23036704.925   -11152313.39943  -8664400.66942  23036706.716    23036703.733
  21160907.152   -24061631.72444 -18721610.78442  21160908.728    21160904.402
  20252813.731   -24307207.37143 -18737228.01642  20252816.039    20252810.053
  22202131.766   -17701869.64043 -13785223.64942  22202133.448    22202126.819
  24162077.975    -4420509.06543  -3307768.44542  24162078.983    24162077.508
  22363260.384   -17632514.29343 -13712511.27042  22363260.792    22363257.427
  23664873.540    -9489893.51443  -7369587.29242  23664874.956    23664870.275
  23208898.695   -12906120.74643 -10023534.04542  23208900.241    23208898.363
 04  7 22  0 46  0.0000000  0  8G 3G27G13G23G10G 8G19G 1
  23034339.582   -11164743.53343  -8674086.45442  23034341.211    23034338.549
  21155126.044   -24092011.75844 -18745283.51442  21155127.586    21155123.297
  20255226.878   -24294526.18743 -18727346.57442  20255229.123    20255223.189
  22218012.656   -17618414.44743 -13720193.67442  22218014.338    22218007.848
  24148125.755    -4493828.04443  -3364900.05642  24148126.880    24148125.499
  22349805.408   -17703220.36343 -13767606.85342  22349805.845    22349802.387
  23650962.310    -9562997.11943  -7426551.05742  23650963.660    23650959.282
  23225667.403   -12818000.73843  -9954869.16942  23225668.921    23225667.160
 04  7 22  0 46 30.0000000  0  8G 3G27G13G23G10G 8G19G 1
  23032078.430   -11176625.04043  -8683344.77242  23032080.114    23032077.428
  21149378.783   -24122213.24244 -18768817.11442  21149380.355    21149376.092
  20257727.532   -24281385.27943 -18717106.90542  20257729.772    20257723.811
  22233951.002   -17534657.70243 -13654928.72242  22233952.684    22233946.135
  24134254.405    -4566722.38243  -3421700.80242  24134255.463    24134254.129
  22336383.554   -17773752.74243 -13822567.08942  22336383.931    22336380.450
  23637100.027    -9635843.98643  -7483314.73342  23637101.278    23637097.179
  23242480.718   -12729646.66643  -9886021.91742  23242482.212    23242480.449
 04  7 22  0 47  0.0000000  0  8G 3G27G13G23G10G 8G19G 1
  23029921.742   -11187959.15743  -8692176.54042  23029923.430    23029920.544
  21143665.188   -24152238.55244 -18792213.44742  21143666.737    21143662.407
  20260315.354   -24267786.34544 -18706510.34142  20260317.601    20260311.568
  22249946.136   -17450602.68943 -13589431.34842  22249947.837    22249941.311
  24120463.859    -4639192.05743  -3478170.63542  24120464.926    24120463.522
  22322994.275   -17844113.93243 -13877393.92242  22322994.659    22322991.216
  23623286.675    -9708433.59643  -7539877.93442  23623287.944    23623283.933
  23259337.873   -12641061.72643  -9816994.78242  23259339.458    23259337.611
 04  7 22  0 47 30.0000000  0  8G 3G27G13G23G10G 8G19G 1
  23027869.080   -11198746.86943  -8700582.52742  23027870.724    23027867.738
  21137984.701   -24182089.82344 -18815474.15642  21137986.240    21137981.934
  20262989.886   -24253731.30343 -18695558.36042  20262992.189    20262986.191
  22265997.485   -17366252.66343 -13523704.11042  22265999.158    22265992.677
  24106754.201    -4711237.11743  -3534309.58442  24106755.229    24106753.727
  22309637.429   -17914305.05543 -13932088.26342  22309637.809    22309634.360
  23609522.311    -9780764.96243  -7596239.93442  23609523.759    23609519.798
  23276238.234   -12552249.11143  -9747790.19342  23276239.857    23276238.132
 04  7 22  0 48  0.0000000  0  8G 3G27G13G23G10G 8G19G 1
  23025921.599   -11208980.35743  -8708556.61242  23025923.380    23025920.206
  21132338.589   -24211760.34544 -18838594.01842  21132340.147    21132335.802
  20265752.746   -24239212.40244 -18684244.92942  20265755.026    20265749.051
  22282106.069   -17281601.98743 -13457742.58842  22282107.768    22282101.323
  24093127.145    -4782848.35343  -3590110.49042  24093128.353    24093126.569
  22296314.019   -17984319.61943 -13986645.05442  22296314.456    22296311.055
  23595808.708    -9852828.29043  -7652393.06042  23595810.426    23595806.591
  23293183.196   -12463203.06143  -9678403.72442  23293184.728    23293182.995
 04  7 22  0 48 30.0000000  0  8G 3G27G13G23G10G 8G19G 1
  23024079.480   -11218661.86243  -8716100.59242  23024081.157    23024077.746
  21126726.269   -24241253.16244 -18861575.40442  21126727.847    21126723.418
  20268603.373   -24224231.94944 -18672571.84842  20268605.685    20268599.756
  22298270.919   -17196654.58543 -13391549.84842  22298272.707    22298266.358
  24079582.353    -4854026.34943  -3645573.81642  24079583.714    24079581.946
  22283023.663   -18054160.27543 -14041066.32242  22283024.131    22283020.925
  23582146.454    -9924623.69443  -7708337.45542  23582148.060    23582144.330
  23310171.912   -12373927.35543  -9608838.30142  23310173.392    23310171.478
 04  7 22  0 49  0.0000000  0  8G 3G27G13G23G10G 8G19G 1
  23022341.341   -11227793.97243  -8723216.52842  23022343.232    23022340.040
  21121147.032   -24270571.84944 -18884421.10942  21121148.625    21121144.233
  20271541.334   -24208793.23044 -18660541.67642  20271543.606    20271537.638
  22314491.413   -17111415.50543 -13325129.81942  22314493.113    22314486.906
  24066119.925    -4924772.54043  -3700700.64742  24066121.179    24066119.450
  22269765.788   -18123830.26543 -14095354.56442  22269766.228    22269763.242
  23568535.124    -9996151.89143  -7764073.63342  23568536.568    23568532.914
  23327203.444   -12284426.82643  -9539097.68642  23327204.884    23327202.998
 04  7 22  0 49 30.0000000  0  8G 3G27G13G23G10G 8G19G 1
  23020709.474   -11236369.12143  -8729898.47142  23020711.286    23020708.471
  21115602.136   -24299710.00144 -18907126.13942  21115603.728    21115599.390
  20274567.764   -24192889.23844 -18648148.96542  20274570.045    20274564.059
  22330768.619   -17025879.31243 -13258478.28142  22330770.288    22330763.925
  24052741.345    -4995077.86043  -3755483.94742  24052742.679    24052740.729
  22256541.812   -18193323.02343 -14149504.69542  22256542.173    22256539.173
  23554976.424   -10067403.41343  -7819594.23042  23554977.885    23554974.060
  23344278.830   -12194695.93743  -9469177.59442  23344280.323    23344278.282
 04  7 22  0 50  0.0000000  0  8G 3G27G13G23G10G 8G19G 1
  23019182.321   -11244394.96643  -8736152.35542  23019184.063    23019181.303
  21110090.097   -24328675.94044 -18929696.98242  21110091.691    21110087.295
  20277681.278   -24176527.76744 -18635399.77142  20277683.564    20277677.518
  22347100.429   -16940055.50943 -13191602.63142  22347102.180    22347095.752
  24039445.361    -5064948.84743  -3809928.79942  24039446.703    24039444.733
  22243349.948   -18262646.45643 -14203522.88642  22243350.296    22243347.249
  23541469.313   -10138383.50843  -7874903.32142  23541470.871    23541466.758
  23361396.017   -12104744.27043  -9399085.45542  23361397.575    23361395.558
 04  7 22  0 50 30.0000000  0  9G 3G27G28G13G23G10G 8G19G 1
  23017759.759   -11251871.14643  -8741977.92642  23017761.480    23017758.591
  21104610.620   -24357470.52244 -18952134.29742  21104612.213    21104607.874
  24780849.586    -2634721.02453  -2023635.80252  24780851.769    24780852.041
  20280881.824   -24159708.82744 -18622294.11242  20280884.137    20280878.034
  22363486.467   -16853945.96143 -13124504.32742  22363488.295    22363481.993
  24026232.266    -5134384.00243  -3864034.05742  24026233.521    24026231.705
  22230190.220   -18331800.55643 -14257409.14242  22230190.651    22230187.507
  23528014.352   -10209090.29643  -7929999.45942  23528015.875    23528011.418
  23378554.612   -12014573.43343  -9328822.54642  23378556.221    23378554.394
 04  7 22  0 51  0.0000000  0  9G 3G27G28G13G23G10G 8G19G 1
  23016445.602   -11258777.98543  -8747359.83442  23016447.164    23016444.103
  21099167.419   -24386074.62944 -18974423.19242  21099168.997    21099164.732
  24760844.154    -2739848.94243  -2105553.42942  24760846.704    24760846.815
  20284173.066   -24142413.09343 -18608816.90642  20284175.389    20284169.300
  22379930.353   -16767533.07543 -13057169.65042  22379932.102    22379925.961
  24013106.226    -5203362.07643  -3917783.12842  24013107.521    24013105.487
  22217066.515   -18400766.30643 -14311148.62442  22217066.948    22217063.634
  23514615.421   -10279501.91043  -7984865.57842  23514616.980    23514612.342
  23395758.526   -11924165.63143  -9258374.98042  23395759.859    23395758.259
 04  7 22  0 51 30.0000000  0  9G 3G27G28G13G23G10G 8G19G 1
  23015236.129   -11265133.21543  -8752311.93542  23015237.762    23015234.652
  21093756.918   -24414507.06144 -18996578.31742  21093758.481    21093754.181
  24740855.235    -2844889.39843  -2187402.87842  24740857.835    24740857.937
  20287551.538   -24124658.76543 -18594982.35042  20287553.864    20287547.806
  22396428.310   -16680836.34443 -12989613.79642  22396429.994    22396423.869
  24000063.945    -5271899.35843  -3971188.72742  24000065.348    24000063.064
  22203975.097   -18469562.22143 -14364755.75142  22203975.549    22203972.080
  23501269.795   -10349633.80243  -8039513.74542  23501271.312    23501266.361
  23413003.826   -11833540.56943  -9187758.13442  23413005.135    23413003.530
 04  7 22  0 52  0.0000000  0  9G 3G27G28G13G23G10G 8G19G 1
  23014132.899   -11270930.10443  -8756828.94142  23014134.508    23014131.468
  21088380.234   -24442761.60344 -19018594.81542  21088381.820    21088377.452
  24720884.489    -2949834.59143  -2269178.12442  24720886.930    24720887.134
  20291018.598   -24106439.18243 -18580785.26742  20291020.911    20291014.884
  22412981.108   -16593851.11543 -12921833.14342  22412982.806    22412976.616
  23987107.140    -5339987.39843  -4024244.26642  23987108.563    23987106.210
  22190917.286   -18538181.74443 -14418225.42742  22190917.755    22190914.112
  23487979.070   -10419477.14643  -8093937.04442  23487980.486    23487975.486
  23430291.643   -11742693.29643  -9116968.13942  23430292.954    23430291.263
 04  7 22  0 52 30.0000000  0  9G 3G27G28G13G23G10G 8G19G 1
  23013135.554   -11276170.57143  -8760912.42542  23013137.260    23013134.248
  21083036.833   -24470841.25644 -19040475.04142  21083038.436    21083033.986
  24700931.838    -3054685.48443  -2350879.87842  24700934.203    24700934.488
  20294573.728   -24087756.82043 -18566227.58942  20294576.024    20294570.033
  22429588.027   -16506581.25943 -12853830.70942  22429589.730    22429583.540
  23974235.706    -5407627.17243  -4076950.48942  23974237.021    23974234.808
  22177892.506   -18606627.01543 -14471559.31942  22177892.987    22177889.255
  23474743.213   -10489031.99843  -8148135.50842  23474744.638    23474739.387
  23447620.996   -11651627.66443  -9046007.97342  23447622.351    23447620.526
 04  7 22  0 53  0.0000000  0  9G 3G27G28G13G23G10G 8G19G 1
  23012245.624   -11280847.26943  -8764556.60842  23012247.318    23012244.441
  21077727.977   -24498739.08644 -19062213.59042  21077729.591    21077725.219
  24680998.920    -3159433.57943  -2432501.54342  24681001.069    24681001.234
  20298218.281   -24068604.70444 -18551303.86442  20298220.583    20298214.610
  22446250.114   -16419021.27043 -12785602.18442  22446251.744    22446245.586
  23961451.037    -5474809.82443  -4129300.51742  23961452.336    23961450.329
  22164901.920   -18674891.86843 -14524752.64042  22164902.400    22164898.756
  23461563.942   -10558288.46543  -8202101.45542  23461565.494    23461560.217
  23464993.166   -11560338.33343  -8974873.49942  23464994.440    23464992.321
 04  7 22  0 53 30.0000000  0  9G 3G27G28G13G23G10G 8G19G 1
  23011461.911   -11284965.49443  -8767765.59742  23011463.634    23011460.897
  21072452.608   -24526461.46244 -19083815.43142  21072454.192    21072449.907
  24661084.500    -3264083.31843  -2514046.60142  24661086.496    24661086.817
  20301951.123   -24048988.26943 -18536018.32542  20301953.483    20301947.556
  22462965.747   -16331178.51243 -12717153.32842  22462967.397    22462961.504
  23948752.730    -5541539.24343  -4181297.40542  23948753.956    23948752.038
  22151944.921   -18742981.63643 -14577809.53942  22151945.317    22151941.772
  23448440.740   -10627249.96643  -8255837.57242  23448442.346    23448437.431
  23482406.400   -11468832.31943  -8903570.18242  23482407.643    23482405.392
 04  7 22  0 54  0.0000000  0  9G 3G27G28G13G23G10G 8G19G 1
  23010784.525   -11288523.78943  -8770538.29142  23010786.422    23010783.653
  21067210.693   -24554007.49444 -19105279.85942  21067212.286    21067208.147
  24641189.215    -3368631.89743  -2595512.85142  24641190.983    24641191.610
  20305772.587   -24028906.30043 -18520370.03242  20305774.935    20305769.050
  22479735.512   -16243053.28943 -12648484.37142  22479737.098    22479731.180
  23936141.324    -5607812.16543  -4232938.56142  23936142.557    23936140.594
  22139021.391   -18810895.23643 -14630729.17442  22139021.775    22139018.380
  23435374.482   -10695912.77243  -8309340.96142  23435376.094    23435371.578
  23499860.571   -11377109.96943  -8832098.25742  23499861.934    23499859.820
 04  7 22  0 54 30.0000000  0  9G 3G27G28G13G23G10G 8G19G 1
  23010214.316   -11291521.20343  -8772873.90842  23010216.050    23010213.199
  21062002.540   -24581376.70244 -19126606.50542  21062004.113    21061999.915
  24621314.040    -3473077.37543  -2676898.74842  24621315.697    24621316.245
  20309682.729   -24008358.28043 -18504358.58642  20309685.064    20309679.221
  22496558.960   -16154646.64443 -12579596.14242  22496560.510    22496554.331
  23923617.403    -5673626.35743  -4284222.27142  23923618.545    23923616.417
  22126131.295   -18878632.40143 -14683511.32342  22126131.685    22126128.470
  23422365.773   -10764273.72243  -8362609.12542  23422367.375    23422363.018
  23517355.706   -11285172.18843  -8760458.48942  23517357.074    23517355.236
 04  7 22  0 55  0.0000000  0  9G 3G27G28G13G23G10G 8G19G 1
  23009750.794   -11293956.64143  -8774771.62642  23009752.607    23009749.727
  21056828.131   -24608568.75644 -19147795.10542  21056829.693    21056825.388
  24601458.765    -3577417.60043  -2758202.62542  24601460.450    24601461.084
  20313681.755   -23987343.16243 -18487983.16642  20313684.088    20313678.265
  22513435.446   -16065959.41143 -12510489.25042  22513437.030    22513430.826
  23911181.046    -5738979.54743  -4335146.75542  23911182.251    23911180.014
  22113274.930   -18946191.63843 -14736154.82742  22113275.384    22113272.265
  23409415.060   -10832329.57943  -8415639.57042  23409416.637    23409412.450
  23534892.010   -11193019.51943  -8688651.30042  23534893.205    23534891.476
 04  7 22  0 55 30.0000000  0  9G 3G27G28G13G23G10G 8G19G 1
  23009394.599   -11295828.05643  -8776229.84042  23009396.412    23009393.536
  21051687.616   -24635582.34744 -19168844.64542  21051689.191    21051684.812
  24581624.023    -3681649.34243  -2839421.92842  24581625.676    24581626.324
  20317770.094   -23965859.09544 -18471242.34042  20317772.391    20317766.526
  22530365.502   -15976991.32543 -12441163.52242  22530366.985    22530360.890
  23898832.777    -5803868.14543  -4385709.22942  23898834.227    23898831.994
  22100452.953   -19013571.84943 -14788658.82242  22100453.339    22100450.117
  23396523.284   -10900075.82343  -8468428.78142  23396524.817    23396520.756
  23552469.154   -11100651.74943  -8616676.50142  23552470.357    23552468.692
 04  7 22  0 56  0.0000000  0  9G 3G27G28G13G23G10G 8G19G 1
  23009145.964   -11297135.39143  -8777248.50742  23009147.729    23009144.656
  21046580.946   -24662417.98244 -19189755.51042  21046582.543    21046578.138
  24561810.456    -3785771.37343  -2920555.78142  24561812.047    24561812.487
  20321947.512   -23943906.54143 -18454136.45342  20321949.811    20321944.009
  22547348.756   -15887744.46143 -12371620.58042  22547350.286    22547344.072
  23886573.550    -5868290.64543  -4435908.46342  23886575.012    23886572.684
  22087665.139   -19080773.29043 -14841023.51242  22087665.476    22087661.989
  23383690.806   -10967510.46843  -8520975.18842  23383692.399    23383688.318
  23570086.658   -11008070.63443  -8544535.45542  23570087.971    23570086.532
 04  7 22  0 56 30.0000000  0  9G 3G27G28G13G23G10G 8G19G 1
  23009004.276   -11297879.68743  -8777828.47742  23009006.053    23009003.046
  21041507.932   -24689077.18144 -19210528.89942  21041509.508    21041504.994
  24542017.562    -3889783.70843  -3001604.15242  24542019.276    24542019.428
  20326213.909   -23921486.55143 -18436666.32542  20326216.175    20326210.376
  22564384.611   -15798221.37043 -12301862.37042  22564386.236    22564379.861
  23874403.235    -5932246.32643  -4485743.98542  23874404.649    23874402.300
  22074910.945   -19147797.46943 -14893250.10442  22074911.285    22074907.583
  23370918.006   -11034632.26343  -8573277.79542  23370919.460    23370915.214
  23587744.440   -10915278.94043  -8472230.33342  23587745.801    23587744.408
 04  7 22  0 57  0.0000000  0  9G 3G27G28G13G23G10G 8G19G 1
  23008969.847   -11298060.65943  -8777969.45742  23008971.553    23008968.673
  21036468.447   -24715559.86444 -19231164.74742  21036470.020    21036465.550
  24522245.884    -3993684.43343  -3082565.55442  24522247.785    24522247.631
  20330569.230   -23898598.76143 -18418831.67942  20330571.525    20330565.788
  22581472.545   -15708423.38443 -12231889.96442  22581474.302    22581467.946
  23862321.927    -5995733.18243  -4535214.16442  23862323.365    23862321.194
  22062190.543   -19214643.10043 -14945337.55642  22062190.918    22062187.195
  23358205.070   -11101438.22743  -8625334.30542  23358206.614    23358202.221
  23605442.107   -10822277.74943  -8399761.95842  23605443.436    23605441.992
 04  7 22  0 57 30.0000000  0  9G 3G27G28G13G23G10G 8G19G 1
  23009043.339   -11297674.05143  -8777668.18942  23009045.045    23009042.161
  21031463.133   -24741862.71944 -19251660.46642  21031464.708    21031460.306
  24502496.247    -4097468.41343  -3163435.98442  24502498.431    24502498.031
  20335014.321   -23875239.75044 -18400629.85242  20335016.604    20335010.836
  22598613.354   -15618348.48243 -12161701.76442  22598615.050    22598608.742
  23850330.915    -6058745.89343  -4584314.89642  23850332.267    23850330.199
  22049504.542   -19281307.33143 -14997283.65642  22049504.962    22049501.309
  23345553.758   -11167922.08043  -8677139.82042  23345555.170    23345550.368
  23623179.873   -10729064.87243  -8327128.59442  23623181.117    23623179.889
 04  7 22  0 58  0.0000000  0  9G 3G27G28G13G23G10G 8G19G 1
  23009224.805   -11296720.71243  -8776925.30142  23009226.561    23009223.493
  21026491.805   -24767986.91944 -19272016.98142  21026493.389    21026489.046
  24482768.501    -4201135.31143  -3244215.18542  24482770.768    24482770.715
  20339548.938   -23851410.20044 -18382061.37742  20339551.231    20339545.393
  22615806.399   -15527999.23743 -12091299.80842  22615808.177    22615801.777
  23838430.047    -6121283.82143  -4633045.67542  23838431.460    23838429.433
  22036853.059   -19347790.73343 -15049088.85842  22036853.489    22036849.862
  23332964.087   -11234082.37443  -8728693.22842  23332965.302    23332960.289
  23640957.174   -10635642.86343  -8254332.27542  23640958.451    23640957.495
 04  7 22  0 58 30.0000000  0  9G 3G27G28G13G23G10G 8G19G 1
  23009513.348   -11295203.38743  -8775742.95442  23009515.142    23009512.025
  21021553.945   -24793935.67544 -19292236.77942  21021555.508    21021551.171
  24463063.162    -4304686.65343  -3324904.35542  24463065.223    24463065.350
  20344172.480   -23827113.43544 -18363128.84042  20344174.769    20344168.889
  22633050.852   -15437380.17243 -12020687.60542  22633052.630    22633046.096
  23826619.294    -6183348.19943  -4681407.46942  23826620.682    23826618.885
  22024235.633   -19414096.47043 -15100755.61542  22024236.001    22024232.182
  23320435.440   -11299919.76843  -8779995.03242  23320436.791    23320431.729
  23658773.940   -10542016.07443  -8181376.42942  23658775.134    23658774.003
 04  7 22  0 59  0.0000000  0  9G 3G27G28G13G23G10G 8G19G 1
  23009910.249   -11293117.26543  -8774117.38942  23009912.000    23009909.001
  21016650.289   -24819704.49344 -19312316.35942  21016651.824    21016647.487
  24443381.205    -4408116.04443  -3405498.40642  24443383.177    24443383.215
  20348885.804   -23802344.57744 -18343828.42442  20348888.094    20348882.255
  22650347.041   -15346488.11143 -11949862.67642  22650348.863    22650342.325
  23814900.096    -6244932.59943  -4729395.22142  23814901.440    23814899.638
  22011652.728   -19480219.57443 -15152280.06142  22011653.124    22011649.239
  23307969.668   -11365426.86743  -8831039.45642  23307971.015    23307966.049
  23676630.370   -10448181.43343  -8108258.60942  23676631.731    23676630.014
 04  7 22  0 59 30.0000000  0  9G 3G27G28G13G23G10G 8G19G 1
  23010414.868   -11290466.22943  -8772051.61642  23010416.554    23010413.475
  21011780.004   -24845297.80544 -19332259.17942  21011781.575    21011777.145
  24423721.560    -4511426.22143  -3485999.62242  24423723.785    24423723.335
  20353688.196   -23777107.66944 -18324163.29642  20353690.490    20353684.687
  22667693.947   -15255328.63343 -11878829.37242  22667695.851    22667689.422
  23803271.915    -6306039.21843  -4777010.73242  23803273.071    23803271.308
  21999103.734   -19546164.12443 -15203665.39342  21999104.173    21999100.413
  23295566.719   -11430605.07643  -8881827.61242  23295568.029    23295562.959
  23694525.028   -10354144.15443  -8034982.87942  23694526.482    23694524.743
 04  7 22  1  0  0.0000000  0  9G 3G27G28G13G23G10G 8G19G 1
  23011027.394   -11287246.93143  -8769543.06942  23011029.286    23011025.949
  21006943.758   -24870712.61844 -19352062.90942  21006945.326    21006940.827
  24404085.731    -4614612.61043  -3566404.42442  24404087.974    24404087.045
  20358580.308   -23751399.76044 -18304131.15942  20358582.583    20358576.777
  22685092.227   -15163900.36343 -11807586.60542  22685094.037    22685087.704
  23791735.455    -6366663.26443  -4824250.19542  23791736.796    23791734.802
  21986589.530   -19611927.03343 -15254909.19042  21986589.925    21986586.226
  23283227.289   -11495448.75643  -8932355.08642  23283228.725    23283223.629
  23712458.738   -10259902.72343  -7961548.05642  23712460.065    23712458.464
 04  7 22  1  0 30.0000000  0  9G 3G27G28G13G23G10G 8G19G 1
  23011748.147   -11283460.42243  -8766592.53342  23011749.786    23011746.610
  21002141.185   -24895950.29544 -19371728.61642  21002142.756    21002138.264
  24384473.292    -4717675.01543  -3646712.58742  24384475.526    24384474.651
  20363561.800   -23725221.88943 -18283732.81942  20363564.072    20363558.257
  22702540.990   -15072206.11043 -11736136.58342  22702542.788    22702536.636
  23780291.226    -6426804.35543  -4871113.31342  23780292.537    23780290.265
  21974109.624   -19677509.70843 -15306012.51142  21974110.002    21974106.334
  23270951.697   -11559956.74743  -8982620.97042  23270953.240    23270948.119
  23730430.745   -10165459.86543  -7887956.32742  23730432.046    23730430.563
 04  7 22  1  1  0.0000000  0  9G 3G27G28G13G23G10G 8G19G 1
  23012576.948   -11279103.83543  -8763197.77442  23012578.708    23012575.734
  20997372.768   -24921008.20944 -19391254.25142  20997374.348    20997369.886
  24364885.402    -4820608.96943  -3726920.70142  24364887.619    24364886.867
  20368633.191   -23698571.39143 -18262966.19442  20368635.470    20368629.656
  22720040.692   -14980244.48943 -11664478.20742  22720042.490    22720036.439
  23768939.483    -6486457.88143  -4917596.51042  23768940.698    23768938.530
  21961664.497   -19742909.07643 -15356973.00642  21961664.958    21961661.152
  23258740.922   -11624123.71843  -9032621.13342  23258742.540    23258737.565
  23748441.258   -10070814.10643  -7814206.48142  23748442.661    23748441.013
 04  7 22  1  1 30.0000000  0  9G 3G27G28G13G23G10G 8G19G 1
  23013513.681   -11274181.04943  -8759361.83842  23013515.458    23013512.623
  20992637.785   -24945890.36644 -19410642.93442  20992639.366    20992634.958
  24345321.553    -4923416.96543  -3807030.64542  24345323.820    24345323.113
  20373793.758   -23671452.17743 -18241834.34442  20373796.033    20373790.239
  22737590.239   -14888020.98043 -11592615.78242  22737592.022    22737586.040
  23757679.910    -6545625.87143  -4963701.38142  23757681.150    23757679.366
  21949253.636   -19808128.16843 -15407793.04642  21949254.034    21949250.320
  23246595.008   -11687950.77443  -9082356.43142  23246596.569    23246591.783
  23766489.456    -9975970.77043  -7740302.69542  23766490.802    23766488.728
 04  7 22  1  2  0.0000000  0  9G 3G27G28G13G23G10G 8G19G 1
  23014558.764   -11268688.47443  -8755081.90842  23014560.622    23014557.825
  20987936.940   -24970593.61244 -19429892.20242  20987938.494    20987934.024
  24325782.486    -5026094.20043  -3887038.67242  24325784.811    24325784.214
  20379044.238   -23643860.74943 -18220334.53542  20379046.469    20379040.738
  22755190.153   -14795533.74943 -11520547.87142  22755191.839    22755185.712
  23746514.167    -6604303.53943  -5009424.13842  23746515.296    23746513.461
  21936877.539   -19873164.28843 -15458470.51642  21936877.986    21936874.273
  23234514.916   -11751432.08143  -9131822.32042  23234516.475    23234511.824
  23784575.602    -9880927.83643  -7666243.38042  23784576.888    23784574.880
 04  7 22  1  2 30.0000000  0  9G 3G27G28G13G23G10G 8G19G 1
  23015712.613   -11262625.12343  -8750357.17142  23015714.483    23015711.666
  20983270.263   -24995117.18644 -19449001.47642  20983271.823    20983267.307
  24306268.761    -5128638.17043  -3966942.85542  24306270.994    24306270.264
  20384384.649   -23615796.51543 -18198466.30642  20384386.892    20384381.165
  22772840.042   -14702783.34543 -11448274.89942  22772841.810    22772835.553
  23735441.883    -6662488.35243  -5054762.89242  23735443.050    23735441.253
  21924536.610   -19938016.21043 -15509004.44042  21924537.035    21924533.297
  23222501.277   -11814564.40043  -9181016.27942  23222502.752    23222498.195
  23802699.688    -9785686.18643  -7592029.21442  23802700.947    23802698.921
 04  7 22  1  3  0.0000000  0  9G 3G27G28G13G23G10G 8G19G 1
  23016974.569   -11255993.08143  -8745189.32342  23016976.540    23016973.404
  20978637.395   -25019463.30944 -19467972.46142  20978638.910    20978634.345
  24286780.783    -5231049.39143  -4046743.58242  24286782.776    24286781.717
  20389814.698   -23587261.37543 -18176231.12842  20389816.950    20389811.200
  22790539.169   -14609773.57643 -11375799.81642  22790540.937    22790534.732
  23724463.367    -6720180.47343  -5099717.72642  23724464.603    23724462.700
  21912230.205   -20002685.95843 -15559396.39542  21912230.677    21912227.032
  23210554.088   -11877347.12043  -9229937.83042  23210555.496    23210551.024
  23820860.543    -9690249.23643  -7517662.85642  23820861.853    23820860.097
 04  7 22  1  3 30.0000000  0  9G 3G27G28G13G23G10G 8G19G 1
  23018345.270   -11248789.60443  -8739576.20542  23018347.378    23018344.085
  20974038.679   -25043629.09144 -19486802.93042  20974040.292    20974035.719
  24267318.528    -5333323.32343  -4126437.37242  24267320.815    24267319.440
  20395334.947   -23558252.45444 -18153626.78142  20395337.180    20395331.393
  22808287.878   -14516503.16643 -11303121.64242  22808289.547    22808283.505
  23713579.610    -6777375.49143  -5144285.20742  23713580.894    23713578.686
  21899959.064   -20067170.40743 -15609643.97642  21899959.511    21899956.109
  23198674.373   -11939774.75343  -9278582.66642  23198675.842    23198671.399
  23839059.048    -9594615.52643  -7443143.16942  23839060.352    23839059.099
 04  7 22  1  4  0.0000000  0  9G 3G27G28G13G23G10G 8G19G 1
  23019824.257   -11241016.89543  -8733519.52842  23019826.396    23019823.280
  20969473.985   -25067616.86344 -19505494.68342  20969475.545    20969471.040
  24247881.976    -5435460.92143  -4206024.95542  24247884.491    24247882.981
  20400944.845   -23528772.05343 -18130655.04142  20400947.100    20400941.326
  22826085.463   -14422975.86043 -11230243.28742  22826087.199    22826080.989
  23702790.193    -6834073.85743  -5188465.70842  23702791.549    23702789.242
  21887722.912   -20131471.60843 -15659748.77642  21887723.295    21887720.034
  23186862.393   -12001847.04643  -9326950.61942  23186863.814    23186859.431
  23857294.117    -9498788.63143  -7368472.91342  23857295.470    23857294.594
 04  7 22  1  4 30.0000000  0  9G 3G27G28G13G23G10G 8G19G 1
  23021411.636   -11232673.11443  -8727017.86942  23021413.780    23021410.876
  20964943.384   -25091425.16244 -19524046.59942  20964944.943    20964940.460
  24228472.487    -5537458.85143  -4285503.73242  24228474.907    24228472.963
  20406644.836   -23498818.81544 -18107314.86642  20406647.051    20406641.280
  22843932.249   -14329191.42143 -11157164.57842  22843933.989    22843927.580
  23692096.031    -6890272.23943  -5232256.62242  23692097.297    23692095.013
  21875522.081   -20195587.81843 -15709709.42542  21875522.419    21875519.027
  23175118.699   -12063559.83843  -9375038.44942  23175120.184    23175115.824
  23875566.121    -9402768.40143  -7293652.03242  23875567.278    23875566.797
 04  7 22  1  5  0.0000000  0  9G 3G27G28G13G23G10G 8G19G 1
  23023107.420   -11223762.98943  -8720074.94442  23023109.221    23023106.566
  20960446.099   -25115058.77944 -19542462.40242  20960447.626    20960443.164
  24209088.971    -5639320.55043  -4364876.29642  24209091.276    24209089.009
  20412433.767   -23468397.50144 -18083609.95242  20412436.017    20412430.286
  22861826.577   -14235156.34943 -11083890.56942  22861828.310    22861821.980
  23681496.352    -6945973.87443  -5275660.45542  23681497.642    23681495.195
  21863355.416   -20259523.98443 -15759529.76342  21863355.780    21863352.270
  23163443.114   -12124915.37943  -9422847.92542  23163444.490    23163440.134
  23893873.680    -9306560.96443  -7218685.25142  23893874.912    23893874.711
 04  7 22  1  5 30.0000000  0  9G 3G27G28G13G23G10G 8G19G 1
  23024911.870   -11214281.23643  -8712686.58842  23024913.482    23024911.025
  20955983.001   -25138512.43644 -19560737.96742  20955984.551    20955980.131
  24189732.416    -5741038.99443  -4444137.25442  24189734.788    24189732.312
  20418312.879   -23437502.81944 -18059536.18742  20418315.095    20418309.429
  22879769.541   -14140866.60043 -11010418.09642  22879771.226    22879764.793
  23670992.715    -7001171.76943  -5318671.78942  23670993.899    23670991.387
  21851224.269   -20323273.78443 -15809204.88042  21851224.569    21851221.074
  23151836.981   -12185905.78143  -9470372.83642  23151838.246    23151833.897
  23912217.857    -9210162.37043  -7143569.54942  23912219.076    23912218.637
 04  7 22  1  6  0.0000000  0  9G 3G27G28G13G23G10G 8G19G 1
  23026825.688   -11204225.55843  -8704850.95842  23026826.994    23026824.830
  20951554.654   -25161783.68444 -19578871.39642  20951556.184    20951551.729
  24170403.642    -5842610.14543  -4523283.41842  24170405.905    24170403.763
  20424282.499   -23406132.39944 -18035091.71242  20424284.728    20424279.042
  22897761.013   -14046321.43143 -10936746.61042  22897762.652    22897756.143
  23660585.531    -7055861.81643  -5361287.38042  23660586.754    23660584.229
  21839128.825   -20386835.30943 -15858733.29842  21839129.216    21839125.652
  23140301.001   -12246525.80443  -9517609.14942  23140302.326    23140297.972
  23930598.609    -9113571.71143  -7068304.18142  23930599.716    23930599.123
 04  7 22  1  6 30.0000000  0  9G 3G27G28G13G23G10G 8G19G 1
  23028847.838   -11193598.84543  -8696570.42142  23028849.288    23028846.925
  20947160.434   -25184875.40344 -19596864.93542  20947161.989    20947157.454
  24151102.664    -5944035.54443  -4602316.00342  24151104.825    24151103.119
  20430342.094   -23374289.23744 -18010278.86342  20430344.333    20430338.546
  22915800.156   -13951525.38343 -10862879.62042  22915801.789    22915795.328
  23650274.835    -7110045.26843  -5403508.23242  23650275.966    23650273.484
  21827068.828   -20450211.20843 -15908117.05842  21827069.217    21827065.556
  23128835.539   -12306776.17043  -9564557.40142  23128836.777    23128832.373
  23949015.091    -9016793.46243  -6992892.66942  23949016.263    23949015.342
 04  7 22  1  7  0.0000000  0  9G 3G27G28G13G23G10G 8G19G 1
  23030978.340   -11182402.94043  -8687846.32842  23030979.666    23030977.456
  20942800.020   -25207789.40344 -19614719.98842  20942801.568    20942797.099
  24131829.795    -6045315.40843  -4681235.19242  24131831.916    24131830.371
  20436491.258   -23341974.85543 -17985098.83242  20436493.515    20436487.736
  22933886.475   -13856481.58943 -10788819.58242  22933888.091    22933881.793
  23640060.254    -7163722.25243  -5445334.42742  23640061.398    23640059.058
  21815043.966   -20513402.52543 -15957357.00342  21815044.321    21815040.522
  23117440.800   -12366656.01743  -9611216.91442  23117441.924    23117437.304
  23967466.767    -8919830.54743  -6917337.24642  23967467.992    23967466.820
 04  7 22  1  7 30.0000000  0  9G 3G27G28G13G23G10G 8G19G 1
  23033217.107   -11170637.21643  -8678678.28742  23033218.614    23033216.088
  20938473.539   -25230524.97544 -19632436.00842  20938475.086    20938470.663
  24112585.034    -6146447.27543  -4760039.03942  24112587.280    24112585.951
  20442730.146   -23309188.97743 -17959551.40342  20442732.378    20442726.672
  22952019.696   -13761190.93043 -10714567.18942  22952021.392    22952015.236
  23629942.501    -7216890.58843  -5486764.27642  23629943.672    23629941.354
  21803054.149   -20576408.91143 -16006452.85042  21803054.530    21803050.780
  23106117.128   -12426162.02843  -9657585.16842  23106118.339    23106113.567
  23985953.305    -8822683.86343  -6841638.63942  23985954.618    23985953.176
 04  7 22  1  8  0.0000000  0  9G 3G27G28G13G23G10G 8G19G 1
  23035565.170   -11158299.95343  -8669064.82542  23035566.454    23035563.802
  20934181.370   -25253080.43944 -19650011.69642  20934182.895    20934178.446
  24093369.139    -6247427.98143  -4838725.13042  24093371.368    24093369.970
  20449059.069   -23275930.17243 -17933635.45842  20449061.291    20449055.598
  22970199.937   -13665653.20943 -10640122.28042  22970201.645    22970195.564
  23619922.295    -7269546.87043  -5527795.11642  23619923.375    23619921.238
  21791100.020   -20639227.86143 -16055402.63042  21791100.427    21791096.751
  23094865.377   -12485290.03743  -9703658.88242  23094866.661    23094861.951
  24004474.980    -8725352.98843  -6765796.51042  24004476.237    24004474.746
 04  7 22  1  8 30.0000000  0  9G 3G27G28G13G23G10G 8G19G 1
  23038021.670   -11145390.54443  -8659005.48642  23038023.206    23038020.316
  20929923.596   -25275455.00544 -19667446.41842  20929925.125    20929920.702
  24074182.192    -6348255.19743  -4917291.63042  24074184.466    24074182.935
  20455478.224   -23242197.65344 -17907350.38542  20455480.402    20455474.657
  22988427.064   -13569869.30243 -10565485.52742  22988428.751    22988422.808
  23609999.811    -7321689.23343  -5568425.48842  23610000.901    23609998.970
  21779181.630   -20701858.73043 -16104205.85342  21779182.045    21779178.421
  23083686.388   -12544036.62343  -9749435.36242  23083687.661    23083682.905
  24023031.798    -8627838.74343  -6689811.50442  24023033.024    24023031.213
 04  7 22  1  9  0.0000000  0  9G 3G27G28G13G23G10G 8G19G 1
  23040586.901   -11131910.99743  -8648501.92542  23040588.546    23040585.317
  20925700.010   -25297650.39744 -19684741.52442  20925701.507    20925696.997
  24055024.486    -6448929.06843  -4995738.62642  24055026.690    24055025.022
  20461987.140   -23207993.26844 -17880697.62742  20461989.318    20461983.530
  23006700.384   -13473842.42143 -10490659.43442  23006702.040    23006696.332
  23600175.219    -7373317.29343  -5608655.09442  23600176.274    23600174.423
  21767298.989   -20764302.79343 -16152863.53842  21767299.273    21767295.608
  23072579.987   -12602401.14243  -9794914.12542  23072581.342    23072576.492
  24041622.408    -8530144.23143  -6613685.99442  24041623.656    24041621.837
 04  7 22  1  9 30.0000000  0  9G 3G27G28G13G23G10G 8G19G 1
  23043260.478   -11117861.63743  -8637554.36742  23043262.126    23043258.673
  20921510.528   -25319666.60844 -19701897.00542  20921511.994    20921507.475
  24035896.259    -6549448.26843  -5074065.12842  24035898.446    24035896.534
  20468585.858   -23173317.23244 -17853677.34542  20468588.044    20468582.157
  23025019.748   -13377574.36143 -10415645.40942  23025021.391    23025015.660
  23590448.631    -7424429.79543  -5648482.96042  23590449.726    23590447.920
  21755451.706   -20826560.28643 -16201375.82542  21755452.056    21755448.346
  23061546.744   -12660381.23843  -9840093.36242  23061548.072    23061543.211
  24060246.938    -8432270.84843  -6537421.12642  24060248.028    24060246.612
 04  7 22  1 10  0.0000000  0  9G 3G27G28G13G23G10G 8G19G 1
  23046043.286   -11103236.42343  -8626158.10642  23046045.066    23046041.571
  20917356.189   -25341497.46944 -19718908.06742  20917357.694    20917353.258
  24016798.680    -6649805.07443  -5152265.11042  24016800.967    24016799.023
  20475275.401   -23138163.53144 -17826284.85942  20475277.618    20475271.712
  23043385.753   -13281060.35443 -10340439.74042  23043387.468    23043381.591
  23580821.845    -7475018.94243  -5687903.03342  23580822.968    23580821.064
  21743641.326   -20888624.40043 -16249737.43642  21743641.696    21743637.879
  23050588.307   -12717968.16943  -9884966.25042  23050589.625    23050584.839
  24078906.347    -8334213.86243  -6461013.17942  24078907.441    24078906.578
 04  7 22  1 10 30.0000000  0  9G 3G27G28G13G23G10G 8G19G 1
  23048933.948   -11088045.32343  -8614320.89942  23048935.752    23048932.465
  20913235.290   -25363152.72244 -19735782.28642  20913236.794    20913232.429
  23997730.575    -6750007.47843  -5230344.79142  23997732.708    23997730.995
  20482053.900   -23102542.18144 -17798527.97442  20482056.128    20482050.263
  23061796.432   -13184311.74143 -10265051.26242  23061798.099    23061792.111
  23571293.031    -7525093.14543  -5726921.85042  23571294.323    23571292.231
  21731865.806   -20950504.88943 -16297955.95842  21731866.178    21731862.409
  23039703.423   -12775169.27843  -9929538.49242  23039704.743    23039699.905
  24097598.734    -8235984.51843  -6384470.93842  24097599.785    24097599.291
 04  7 22  1 11  0.0000000  0  9G 3G27G28G13G23G10G 8G19G 1
  23051933.998   -11072279.86243  -8602036.12442  23051935.602    23051932.581
  20909149.541   -25384623.55244 -19752512.80042  20909151.026    20909146.646
  23978693.766    -6850045.35643  -5308296.23342  23978695.826    23978694.543
  20488922.985   -23066444.72644 -17770400.08842  20488925.218    20488919.402
  23080252.903   -13087321.51943 -10189474.52342  23080254.646    23080248.629
  23561864.365    -7574642.18443  -5765531.43042  23561865.614    23561863.015
  21720127.014   -21012192.67243 -16346024.32942  21720127.361    21720123.629
  23028894.027   -12831973.41143  -9973801.40142  23028895.380    23028890.529
  24116325.070    -8137575.67943  -6307788.81042  24116326.248    24116326.173
 04  7 22  1 11 30.0000000  0  9G 3G27G28G13G23G10G 8G19G 1
  23055041.762   -11055947.58743  -8589309.68242  23055043.568    23055040.615
  20905097.502   -25405917.23144 -19769105.26142  20905098.977    20905094.568
  23959687.438    -6949924.56843  -5386124.03942  23959689.414    23959688.113
  20495881.307   -23029878.25744 -17741906.74742  20495883.535    20495877.765
  23098753.901   -12990098.46143 -10113716.37442  23098755.526    23098749.497
  23552534.413    -7623671.67443  -5803736.19942  23552535.616    23552532.940
  21708423.646   -21073694.67443 -16393947.93642  21708423.993    21708420.179
  23018159.069   -12888385.26043 -10017758.61342  23018160.479    23018155.612
  24135084.037    -8038996.09943  -6230973.60742  24135085.246    24135085.309
 04  7 22  1 12  0.0000000  0  9G 3G27G28G13G23G10G 8G19G 1
  23058258.582   -11039044.03343  -8576138.08242  23058260.205    23058256.931
  20901080.079   -25427028.93744 -19785555.93842  20901081.564    20901077.108
  23940712.528    -7049638.60143  -5463823.17142  23940714.541    23940712.910
  20502929.694   -22992838.68044 -17713044.74842  20502931.901    20502926.140
  23117299.847   -12892639.36843 -10037774.28742  23117301.358    23117295.341
  23543304.276    -7672175.44943  -5841531.31142  23543305.555    23543302.890
  21696756.428   -21135005.95343 -16441722.89742  21696756.840    21696753.005
  23007500.255   -12944397.61743 -10061404.52142  23007501.623    23007496.610
  24153876.672    -7940242.34743  -6154022.74142  24153877.725    24153877.474
 04  7 22  1 12 30.0000000  0  9G 3G27G28G13G23G10G 8G19G 1
  23061583.823   -11021569.99543  -8562521.92642  23061585.611    23061581.907
  20897097.151   -25447959.11344 -19801865.15842  20897098.631    20897094.249
  23921768.973    -7149186.73243  -5541393.02342  23921771.011    23921769.254
  20510068.030   -22955326.82844 -17683814.73942  20510070.228    20510064.405
  23135890.215   -12794946.33743  -9961649.94642  23135891.649    23135885.708
  23534174.455    -7720152.56743  -5878916.03642  23534175.650    23534173.062
  21685125.423   -21196126.56543 -16489349.31642  21685125.885    21685122.038
  22996917.786   -13000008.79143 -10104737.82642  22996919.197    22996914.023
  24172701.682    -7841316.54743  -6076937.79742  24172702.837    24172702.394
 04  7 22  1 13  0.0000000  0  9G 3G27G28G13G23G10G 8G19G 1
  23065017.825   -11003525.04843  -8548460.90142  23065019.465    23065015.787
  20893149.049   -25468706.85644 -19818032.21742  20893150.534    20893146.078
  23902857.415    -7248566.58543  -5618831.75042  23902859.467    23902857.572
  20517296.315   -22917342.10844 -17654216.26342  20517298.551    20517292.698
  23154525.141   -12697020.08043  -9885343.87142  23154526.542    23154520.507
  23525145.321    -7767600.84543  -5915888.64742  23525146.488    23525143.850
  21673530.834   -21257055.71643 -16536826.55042  21673531.248    21673527.626
  22986412.261   -13055215.22343 -10147755.75542  22986413.773    22986408.606
  24191559.563    -7742219.24443  -5999719.21842  24191560.666    24191559.937
 04  7 22  1 13 30.0000000  0  9G 3G27G28G13G23G10G 8G19G 1
  23068559.923   -10984910.67143  -8533956.18642  23068561.576    23068558.062
  20889235.419   -25489273.14444 -19834057.88042  20889236.923    20889232.439
  23883978.320    -7347777.46943  -5696138.80242  23883980.307    23883978.064
  20524614.443   -22878885.40244 -17624250.00242  20524616.697    20524610.814
  23173203.861   -12598863.34543  -9808858.18142  23173205.311    23173199.305
  23516216.932    -7814519.80443  -5952448.82642  23516218.116    23516215.397
  21661972.749   -21317793.95243 -16584155.01442  21661973.112    21661969.464
  22975984.020   -13110015.71643 -10190457.39342  22975985.494    22975980.394
  24210449.491    -7642953.04343  -5922369.02942  24210450.657    24210449.805
 04  7 22  1 14  0.0000000  0  9G 3G27G28G13G23G10G 8G19G 1
  23072210.211   -10965727.81243  -8519008.50342  23072211.784    23072208.479
  20885356.175   -25509658.55344 -19849942.60142  20885357.682    20885353.179
  23865131.502    -7446818.67443  -5773313.65642  23865133.549    23865130.770
  20532022.062   -22839958.08844 -17593917.04242  20532024.337    20532018.436
  23191925.716   -12500478.51043  -9732194.74542  23191927.214    23191921.400
  23507389.288    -7860909.12843  -5988596.32242  23507390.446    23507388.036
  21650450.883   -21378342.11843 -16631335.35742  21650451.287    21650447.399
  22965633.184   -13164408.49743 -10232841.33242  22965634.674    22965629.804
  24229370.778    -7543520.07943  -5844888.89342  24229372.068    24229371.361
 04  7 22  1 14 30.0000000  0  9G 3G27G28G13G23G10G 8G19G 1
  23075968.812   -10945976.05743  -8503617.56642  23075970.316    23075967.305
  20881511.529   -25529862.06444 -19865685.58542  20881513.048    20881508.566
  23846317.204    -7545687.64243  -5850354.32242  23846319.156    23846316.296
  20539519.391   -22800559.29544 -17563216.68942  20539521.671    20539515.783
  23210691.230   -12401866.22443  -9655354.06442  23210692.562    23210686.834
  23498662.818    -7906766.43843  -6024329.23342  23498663.913    23498661.761
  21638965.549   -21438698.43143 -16678366.20742  21638965.928    21638961.898
  22955360.424   -13218390.49843 -10274905.22242  22955361.973    22955357.250
  24248323.989    -7443920.99743  -5767279.28742  24248325.203    24248324.202
 04  7 22  1 15  0.0000000  0  9G 3G27G28G13G23G10G 8G19G 1
  23079836.024   -10925654.21243  -8487782.36142  23079837.494    23079834.672
  20877701.829   -25549882.11144 -19881285.59842  20877703.325    20877698.868
  23827536.039    -7644381.55043  -5927258.58542  23827538.002    23827535.185
  20547106.676   -22760687.83544 -17532148.02942  20547108.960    20547103.029
  23229499.791   -12303026.34843  -9578336.05442  23229501.225    23229495.504
  23490038.284    -7952088.51543  -6059645.10042  23490039.271    23490037.106
  21627516.906   -21498861.41043 -16725246.42142  21627517.280    21627513.206
  22945166.852   -13271957.80443 -10316645.94742  22945168.384    22945163.595
  24267308.840    -7344155.53743  -5689540.08742  24267310.145    24267308.927
 04  7 22  1 15 30.0000000  0  9G 3G27G28G13G23G10G 8G19G 1
  23083810.921   -10904766.28343  -8471506.05242  23083812.417    23083809.675
  20873926.315   -25569722.25044 -19896745.43642  20873927.845    20873923.422
  23808788.304    -7742902.64843  -6004028.17942  23808790.074    23808787.247
  20554783.076   -22720347.64844 -17500714.12442  20554785.368    20554779.512
  23248350.625   -12203964.36043  -9501144.94842  23248352.161    23248346.458
  23481515.316    -7996877.85743  -6094545.80242  23481516.291    23481513.964
  21616104.303   -21558834.35743 -16771978.54742  21616104.712    21616100.716
  22935052.152   -13325111.58443 -10358064.43542  22935053.637    22935048.729
  24286324.475    -7244229.00243  -5611675.40142  24286325.830    24286324.616
 04  7 22  1 16  0.0000000  0  9G 3G27G28G13G23G10G 8G19G 1
  23087894.032   -10883309.75643  -8454786.67842  23087895.583    23087892.681
  20870185.700   -25589379.21544 -19912062.54642  20870187.263    20870182.798
  23790074.430    -7841245.99743  -6080659.25342  23790076.224    23790073.226
  20562549.216   -22679536.28044 -17468913.06342  20562551.450    20562545.675
  23267243.925   -12104678.64543  -9423779.52142  23267245.607    23267240.138
  23473094.461    -8041130.17543  -6129028.09942  23473095.410    23473093.112
  21604728.605   -21618614.02143 -16818560.06242  21604728.999    21604725.034
  22925017.081   -13377846.15543 -10399156.25942  22925018.519    22925013.634
  24305371.016    -7144139.72943  -5533683.86542  24305372.379    24305371.256
 04  7 22  1 16 30.0000000  0  9G 3G27G28G13G23G10G 8G19G 1
  23092084.776   -10861287.16743  -8437626.20442  23092086.432    23092083.527
  20866479.585   -25608854.79544 -19927238.31742  20866481.138    20866476.767
  23771393.865    -7939412.14143  -6157152.24442  23771395.805    23771392.819
  20570404.642   -22638255.84144 -17436746.49542  20570406.852    20570401.069
  23286179.257   -12005172.91043  -9346242.66542  23286180.930    23286175.692
  23464775.383    -8084845.87643  -6163092.25742  23464776.542    23464774.384
  21593389.349   -21678202.26043 -16864992.42042  21593389.727    21593385.856
  22915061.739   -13430161.30443 -10439921.26642  22915063.164    22915058.321
  24324447.809    -7043891.30643  -5455568.33742  24324449.140    24324448.198
 04  7 22  1 17  0.0000000  0  9G 3G27G28G13G23G10G 8G19G 1
  23096384.303   -10838692.98143  -8420020.33642  23096385.881    23096382.878
  20862809.225   -25628142.63844 -19942267.79842  20862810.784    20862806.407
  23752748.318    -8037393.22443  -6233501.00642  23752750.251    23752747.624
  20578350.378   -22596500.45844 -17404209.83842  20578352.568    20578346.895
  23305157.419   -11905442.44343  -9268530.66842  23305159.031    23305153.887
  23456560.249    -8128017.60343  -6196732.50942  23456561.356    23456558.825
  21582087.802   -21737591.90143 -16911270.03942  21582088.159    21582084.432
  22905188.005   -13482048.30443 -10480352.63342  22905189.349    22905184.497
  24343555.742    -6943478.75543  -5377324.88442  24343556.934    24343556.306
 04  7 22  1 17 30.0000000  0  9G 3G27G28G13G23G10G 8G19G 1
  23100791.054   -10815535.10443  -8401975.23942  23100792.661    23100789.517
  20859173.175   -25647250.35244 -19957156.91742  20859174.718    20859170.238
  23734137.094    -8135195.63843  -6309710.57142  23734138.940    23734136.334
  20586385.055   -22554278.27344 -17371309.44842  20586387.219    20586381.566
  23324176.499   -11805496.64143  -9190650.89042  23324178.087    23324173.087
  23448447.300    -8170651.80743  -6229953.92342  23448448.491    23448445.492
  21570822.566   -21796790.42643 -16957398.72642  21570822.878    21570819.361
  22895394.609   -13533512.60443 -10520454.63942  22895395.974    22895391.021
  24362692.764    -6842911.45243  -5298960.86842  24362693.987    24362693.589
 04  7 22  1 18  0.0000000  0  9G 3G27G28G13G23G10G 8G19G 1
  23105305.836   -10791809.98443  -8383488.11642  23105307.372    23105304.320
  20855572.188   -25666173.69344 -19971902.36142  20855573.689    20855569.220
  23715560.999    -8232813.81843  -6385776.58542  23715562.880    23715560.107
  20594509.214   -22511585.34444 -17338042.23542  20594511.414    20594505.850
  23343237.140   -11705333.03843  -9112601.40842  23343238.689    23343233.728
  23440437.504    -8212743.10143  -6262752.31542  23440438.793    23440435.726
  21559594.585   -21855794.05343 -17003375.54242  21559594.867    21559591.314
  22885682.826   -13584548.03543 -10560222.45042  22885684.121    22885679.247
  24381859.829    -6742186.71143  -5220474.13842  24381860.865    24381860.803
 04  7 22  1 18 30.0000000  0  9G 3G27G28G13G23G10G 8G19G 1
  23109928.175   -10767519.27143  -8364560.29642  23109929.796    23109926.715
  20852006.135   -25684913.33644 -19986504.66442  20852007.644    20852003.158
  23697019.890    -8330247.05343  -6461698.48642  23697021.914    23697019.099
  20602722.757   -22468423.10044 -17304409.32342  20602724.908    20602719.392
  23362338.841   -11604954.28243  -9034384.25542  23362340.392    23362335.336
  23432531.249    -8254291.03043  -6295127.29942  23432532.544    23432529.603
  21548403.747   -21914602.45543 -17049200.22842  21548404.052    21548400.375
  22876052.945   -13635152.88643 -10599654.76342  22876054.213    22876049.509
  24401057.112    -6641306.80843  -5141866.52442  24401057.851    24401057.552
 04  7 22  1 19  0.0000000  0  9G 3G27G28G13G23G10G 8G19G 1
  23114658.153   -10742663.12343  -8345191.85942  23114659.749    23114656.687
  20848475.108   -25703468.78343 -20000963.44342  20848476.630    20848472.146
  23678514.353    -8427493.34843  -6537474.72542  23678516.290    23678513.308
  20611025.607   -22424791.44044 -17270410.63642  20611027.754    20611022.266
  23381481.114   -11504361.19043  -8956000.09742  23381482.674    23381477.496
  23424728.553    -8295294.24243  -6327077.82542  23424729.804    23424727.050
  21537250.007   -21973215.54143 -17094872.71942  21537250.362    21537246.596
  22866505.638   -13685324.44343 -10638749.43842  22866506.903    22866502.226
  24420283.501    -6540272.86843  -5063138.90442  24420284.361    24420283.685
 04  7 22  1 19 30.0000000  0  9G 3G27G28G13G23G10G 8G19G 1
  23119495.499   -10717242.58243  -8325383.64042  23119497.172    23119494.110
  20844978.948   -25721840.60443 -20015279.15242  20844980.498    20844976.151
  23660044.682    -8524552.23843  -6613104.90842  23660046.681    23660043.255
  20619417.521   -22380691.64944 -17236047.17842  20619419.704    20619414.177
  23400663.641   -11403556.46643  -8877451.06742  23400665.198    23400659.860
  23417029.533    -8335752.29343  -6358603.56542  23417030.757    23417028.003
  21526133.369   -22031633.51943 -17140393.18742  21526133.740    21526129.874
  22857041.045   -13735061.46043 -10677505.49442  22857042.386    22857037.558
  24439538.589    -6439087.34043  -4984293.14542  24439539.722    24439538.925
 04  7 22  1 20  0.0000000  0  9G 3G27G28G13G23G10G 8G19G 1
  23124440.647   -10691255.80743  -8305134.20042  23124442.212    23124439.305
  20841518.513   -25740025.71744 -20029449.37642  20841520.013    20841515.712
  23641611.498    -8621419.08543  -6688585.46642  23641613.504    23641609.965
  20627898.990   -22336121.31044 -17201317.05942  20627901.163    20627895.623
  23419886.861   -11302538.68943  -8798736.03042  23419888.335    23419882.715
  23409435.205    -8375660.94943  -6389701.18542  23409436.325    23409433.446
  21515054.541   -22089853.02743 -17185758.99642  21515054.892    21515050.981
  22847660.212   -13784358.66843 -10715918.84542  22847661.550    22847656.364
  24458823.000    -6337748.69943  -4905328.08842  24458824.135    24458823.550
 04  7 22  1 20 30.0000000  0  9G 3G27G28G13G23G10G 8G19G 1
  23129492.926   -10664705.26943  -8284445.48342  23129494.664    23129491.614
  20838093.234   -25758025.83843 -20043475.44042  20838094.705    20838090.391
  23623214.648    -8718094.41743  -6763916.77742  23623216.689    23623213.304
  20636469.519   -22291082.92144 -17166222.23342  20636471.700    20636466.098
  23439149.894   -11201311.53043  -8719857.79842  23439151.346    23439145.580
  23401945.253    -8415021.23243  -6420371.51042  23401946.369    23401943.333
  21504013.160   -22147875.73443 -17230971.45942  21504013.482    21504009.421
  22838362.984   -13833215.82943 -10753989.29542  22838364.350    22838359.010
  24478135.601    -6236260.48043  -4826246.45542  24478136.995    24478136.292
 04  7 22  1 21  0.0000000  0  9G 3G27G28G13G23G10G 8G19G 1
  23134651.872   -10637594.40443  -8263320.14642  23134653.523    23134650.810
  20834702.611   -25775843.66544 -20057359.46342  20834704.090    20834699.743
  23604853.987    -8814579.70943  -6839100.01442  23604856.039    23604852.941
  20645128.534   -22245579.56544 -17130765.09242  20645130.675    20645125.071
  23458451.508   -11099879.63643  -8640820.04442  23458453.207    23458447.600
  23394559.161    -8453834.50943  -6450615.60442  23394560.296    23394557.403
  21493008.668   -22205704.31443 -17276032.65642  21493009.037    21493004.897
  22829149.330   -13881633.28043 -10791717.12542  22829150.747    22829145.394
  24497475.761    -6134627.15243  -4747051.77042  24497477.153    24497476.602
 04  7 22  1 21 30.0000000  0  9G 3G27G28G13G23G10G 8G19G 1
  23139918.278   -10609918.94443  -8241754.83442  23139919.877    23139917.337
  20831347.673   -25793474.11044 -20071097.47342  20831349.147    20831344.744
  23586530.669    -8910868.44243  -6914130.08842  23586532.647    23586529.790
  20653876.840   -22199606.89044 -17094942.23942  20653879.002    20653873.371
  23477792.970   -10998239.63843  -8561620.09842  23477794.661    23477789.205
  23387278.536    -8492094.58543  -6480428.65742  23387279.675    23387276.799
  21482042.360   -22263333.27743 -17320938.31442  21482042.655    21482038.435
  22820020.876   -13929603.91543 -10829096.78142  22820022.261    22820016.737
  24516844.686    -6032845.13043  -4667741.21242  24516846.009    24516845.396
 04  7 22  1 22  0.0000000  0  8G 3G27G28G13G23G10G 8G19
  23145291.988   -10581681.32143  -8219751.49942  23145293.402    23145290.627
  20828028.204   -25810918.43444 -20084690.44342  20828029.622    20828025.203
  23568244.557    -9006960.89643  -6989007.19442  23568246.564    23568244.040
  20662713.997   -22153167.10444 -17058755.40242  20662716.193    20662710.632
  23497173.665   -10896394.82943  -8482260.56942  23497175.308    23497169.676
  23380103.020    -8529802.41243  -6509811.34642  23380104.080    23380101.226
  21471113.710   -22320763.69243 -17365689.23642  21471114.056    21471109.854
  22810977.472   -13977127.34843 -10866127.97442  22810978.872    22810973.240
 04  7 22  1 22 30.0000000  0  8G 3G27G28G13G23G10G 8G19
  23150773.047   -10552878.14443  -8197307.44942  23150774.467    23150771.451
  20824744.869   -25828172.39744 -20098135.07942  20824746.324    20824741.877
  23549996.752    -9102851.37643  -7063726.93042  23549998.740    23549996.560
  20671640.790   -22106256.57944 -17022201.75042  20671642.987    20671637.446
  23516593.776   -10794342.64743  -8402739.47842  23516595.458    23516589.520
  23373033.400    -8566952.77543  -6538759.67442  23373034.368    23373031.652
  21460223.562   -22377991.47843 -17410282.26642  21460223.958    21460219.810
  22802020.391   -14024197.13643 -10902805.68142  22802021.711    22802016.100
 04  7 22  1 23  0.0000000  0  8G 3G27G28G13G23G10G 8G19
  23156360.442   -10523515.65643  -8174427.57842  23156362.021    23156359.006
  20821496.784   -25845241.16544 -20111435.40742  20821498.241    20821493.730
  23531786.891    -9198543.53943  -7138292.14542  23531788.738    23531786.851
  20680656.033   -22058881.38344 -16985286.02442  20680658.218    20680652.653
  23536051.934   -10692090.00543  -8323062.19542  23536053.687    23536047.612
  23366069.027    -8603549.60643  -6567276.66742  23366069.980    23366067.458
  21449371.037   -22435021.38843 -17454721.13342  21449371.426    21449367.347
  22793148.862   -14070816.47043 -10939132.39942  22793150.197    22793144.739
 04  7 22  1 23 30.0000000  0  8G 3G27G28G13G23G10G 8G19
  23162053.475   -10493599.47643  -8151116.28442  23162055.034    23162051.788
  20818283.038   -25862129.40644 -20124595.07142  20818284.537    20818280.044
  23513614.405    -9294041.15543  -7212705.74642  23513616.034    23513614.245
  20689758.786   -22011046.20344 -16948011.87842  20689761.010    20689755.420
  23555546.773   -10589643.49243  -8243233.84442  23555548.620    23555542.649
  23359209.531    -8639596.91843  -6595365.46142  23359210.577    23359208.057
  21438555.312   -22491858.28943 -17499009.60942  21438555.682    21438551.656
  22784362.696   -14116988.09543 -10975110.27042  22784363.987    22784358.695
 04  7 22  1 24  0.0000000  0  8G 3G27G28G13G23G10G 8G19
  23167852.074   -10463128.44643  -8127372.63142  23167853.468    23167850.274
  20815104.072   -25878834.76644 -20137612.23142  20815105.591    20815101.159
  23495479.607    -9389340.75743  -7286965.08342  23495481.274    23495479.256
  20698949.245   -21962750.13744 -16910378.59742  20698951.444    20698945.845
  23575078.680   -10487003.06243  -8163254.39042  23575080.477    23575074.644
  23352455.080    -8675091.93543  -6623023.86442  23352456.099    23352453.707
  21427776.867   -22548499.44043 -17543145.54942  21427777.227    21427773.251
  22775662.576   -14162707.77243 -11010735.96042  22775663.861    22775658.623
 04  7 22  1 24 30.0000000  0  8G 3G27G28G13G23G10G 8G19
  23173758.431   -10432089.83943  -8103186.73742  23173759.792    23173756.759
  20811962.495   -25895343.91844 -20150476.50342  20811963.994    20811959.575
  23477385.148    -9484427.61043  -7361058.60842  23477386.880    23477384.687
  20708229.820   -21913980.32344 -16872376.15342  20708232.001    20708226.418
  23594649.532   -10384157.07043  -8083114.75542  23594651.388    23594645.918
  23345808.248    -8710020.31743  -6650240.77942  23345809.354    23345807.060
  21417038.243   -22604931.22343 -17587118.33242  21417038.585    21417034.611
  22767051.322   -14207960.11843 -11045997.49242  22767052.594    22767047.459
 04  7 22  1 25  0.0000000  0  8G 3G27G28G13G23G10G 8G19
  23179770.642   -10400494.79643  -8078567.25842  23179772.104    23179769.294
  20808856.452   -25911666.29444 -20163195.22542  20808857.952    20808853.580
  23459329.633    -9579310.08043  -7434992.88942  23459331.356    23459328.843
  20717598.630   -21864747.14044 -16834012.64142  20717600.783    20717595.120
  23614257.593   -10281116.83443  -8002823.75242  23614259.299    23614254.175
  23339267.757    -8744390.97743  -6677023.08442  23339268.845    23339266.490
  21406337.506   -22661163.48443 -17630935.65442  21406337.880    21406333.824
  22758527.413   -14252752.70243 -11080900.79142  22758528.651    22758523.718
 04  7 22  1 25 30.0000000  0  8G 3G27G28G13G23G10G 8G19
  23185890.378    -2491245.82053  -1915516.15252  23185890.723    23185887.957
  20805785.458   -25927803.91943 -20175769.98242  20805786.970    20805782.668
  23441312.865    -9673988.62143  -7508768.27942  23441314.668    23441312.174
  20727054.998   -21815053.39444 -16795290.25842  20727057.160    20727051.478
  23633901.833   -10177886.11343  -7922384.32242  23633903.449    23633898.571
  23332833.284    -8778204.89743  -6703371.56842  23332834.289    23332831.753
  21395674.608   -22717197.19643 -17674598.25242  21395674.959    21395670.881
  22750090.959   -14297085.53043 -11115445.84742  22750092.247    22750087.438
 04  7 22  1 26  0.0000000  0  8G 3G27G28G13G23G10G 8G19
  23192113.755    -2458545.31843  -1890035.24642  23192113.827    23192109.821
  20802749.564   -25943757.65643 -20188201.46442  20802751.066    20802746.694
  23423334.861    -9768463.49543  -7582384.96142  23423336.672    23423334.314
  20736598.765   -21764900.88944 -16756210.40342  20736600.928    20736595.193
  23653581.679   -10074467.73543  -7841798.63842  23653583.241    23653578.525
  23326504.475    -8811462.43643  -6729286.49342  23326505.518    23326502.973
  21385049.267   -22773033.58143 -17718107.08942  21385049.618    21385045.491
  22741742.335   -14340957.81243 -11149632.01642  22741743.607    22741738.773
 04  7 22  1 26 30.0000000  0  8G 3G27G28G13G23G10G 8G19
  23198442.665    -2425289.51153  -1864121.62752  23198442.554    23198437.893
  20799749.612   -25959522.38043 -20200485.65542  20799751.114    20799746.733
  23405397.029    -9862728.04343  -7655837.74842  23405398.838    23405396.346
  20746230.560   -21714285.54844 -16716769.88542  20746232.767    20746226.981
  23673297.938    -9970858.83743  -7761064.50242  23673299.498    23673294.610
  23320282.741    -8844157.86543  -6754763.44942  23320283.698    23320281.259
  21374462.503   -22828667.58743 -17761458.25342  21374462.833    21374458.637
  22733482.622   -14384362.65243 -11183453.94542  22733483.896    22733478.967
 04  7 22  1 27  0.0000000  0  8G 3G27G28G13G23G10G 8G19
  23204876.165    -2391479.27953  -1837775.94052  23204876.089    23204872.046
  20796785.689   -25975097.83343 -20212622.35942  20796787.196    20796782.797
  23387499.195    -9956780.94743  -7729125.62242  23387501.196    23387498.613
  20755950.287   -21663207.85544 -16676969.10042  20755952.534    20755946.790
  23693050.226    -9867061.02143  -7680183.16742  23693051.772    23693046.621
  23314168.228    -8876290.10943  -6779801.52342  23314169.297    23314166.663
  21363914.270   -22884098.55543 -17804651.19042  21363914.624    21363910.560
  22725312.424   -14427298.07743 -11216910.07342  22725313.567    22725308.567
 04  7 22  1 27 30.0000000  0  8G 3G27G28G13G23G10G 8G19
  23211416.144    -2357109.70153  -1810994.37352  23211416.851    23211412.316
  20793858.948   -25990478.19444 -20224607.05242  20793860.412    20793855.998
  23369643.005   -10050615.19843  -7802243.13342  23369644.997    23369642.389
  20765758.950   -21611663.05244 -16636804.33842  20765761.197    20765755.452
  23712839.091    -9763070.39443  -7599151.58942  23712840.648    23712835.415
  23308162.123    -8907852.86843  -6804395.82642  23308163.186    23308160.454
  21353405.813   -22939320.40843 -17847681.18542  21353406.200    21353402.148
  22717232.773   -14469756.46043 -11249994.47342  22717233.986    22717228.865
 04  7 22  1 28  0.0000000  0  7G27G28G13G23G10G 8G19
  20790968.618   -26005666.82544 -20236442.33942  20790970.094    20790965.681
  23351828.121   -10144233.12143  -7875192.06642  23351830.129    23351827.295
  20775655.724   -21559655.27944 -16596278.81442  20775657.922    20775652.193
  23732663.591    -9658892.38143  -7517974.03042  23732665.164    23732659.892
  23302263.471    -8938849.27443  -6828548.84942  23302264.637    23302262.021
  21342936.614   -22994336.79243 -17890551.07042  21342936.937    21342932.821
  22709243.700   -14511739.23243 -11282708.27742  22709244.914    22709239.668
 04  7 22  1 28 30.0000000  0  7G27G28G13G23G10G 8G19
  20788113.106   -26020672.94944 -20248135.41842  20788114.565    20788110.094
  23334052.986   -10237642.66043  -7947978.64042  23334055.039    23334051.876
  20785638.642   -21507194.68344 -16555400.44442  20785640.843    20785635.181
  23752521.572    -9554537.93543  -7436658.97642  23752523.145    23752517.860
  23296471.220    -8969287.69343  -6852267.06242  23296472.446    23296469.769
  21332504.797   -23049156.37543 -17933267.60042  21332505.094    21332500.933
  22701343.748   -14553253.88743 -11315057.31342  22701344.953    22701339.635
 04  7 22  1 29  0.0000000  0  7G27G28G13G23G10G 8G19
  20785293.575   -26035489.61044 -20259680.86142  20785295.066    20785290.565
  23316318.696   -10330835.85143  -8020596.63542  23316320.902    23316317.639
  20795708.803   -21454275.54644 -16514164.77942  20795710.989    20795705.413
  23772413.994    -9450002.39043  -7355202.79242  23772415.556    23772410.520
  23290786.688    -8999160.59143  -6875544.61342  23290787.818    23290785.066
  21322111.646   -23103772.59643 -17975825.67042  21322111.952    21322107.792
  22693534.395   -14594291.87843 -11347034.93242  22693535.672    22693530.442
 04  7 22  1 29 30.0000000  0  7G27G28G13G23G10G 8G19
  20782511.098   -26050111.76944 -20271074.74842  20782512.554    20782508.103
  23298626.699   -10423806.48343  -8093041.20642  23298628.831    23298625.634
  20805867.080   -21400893.56144 -16472568.44442  20805869.280    20805863.669
  23792341.375    -9345282.45043  -7273602.94642  23792343.102    23792338.301
  23285210.671    -9028462.66743  -6898377.38142  23285211.841    23285209.055
  21311758.288   -23158179.74243 -18018220.83442  21311758.603    21311754.426
  22685816.930   -14634846.62043 -11378635.99442  22685818.312    22685813.173
 04  7 22  1 30  0.0000000  0  7G27G28G13G23G10G 8G19
  20779764.410   -26064545.30744 -20282321.65142  20779765.897    20779761.524
  23280976.287   -10516559.41843  -8165316.12842  23280978.305    23280975.107
  20816112.077   -21347055.73444 -16430616.91342  20816114.288    20816108.645
  23812302.355    -9240386.23143  -7191865.70242  23812304.150    23812299.442
  23279742.464    -9057199.29243  -6920769.52142  23279743.495    23279740.614
  21301443.600   -23212383.99843 -18060457.89542  21301443.870    21301439.713
  22678190.682   -14674922.23843 -11409863.72242  22678192.026    22678186.999
 04  7 22  1 30 30.0000000  0  8G 3G27G28G13G23G10G 8G19
  23252852.698
  20777053.671   -26078790.35844 -20293421.68242  20777055.140    20777050.747
  23263367.688   -10609093.48543  -8237420.50742  23263369.629    23263366.457
  20826443.543   -21292763.28544 -16388311.12542  20826445.778    20826440.172
  23832296.635    -9135315.81843  -7109992.73642  23832298.293    23832293.737
  23274381.469    -9085370.12443  -6942720.79842  23274382.656    23274379.852
  21291167.634   -23266384.89843 -18102536.48842  21291167.920    21291163.738
  22670656.188   -14714517.06043 -11440716.78842  22670657.411    22670652.297
 04  7 22  1 31  0.0000000  0  8G 3G27G28G13G23G10G 8G19
  23260123.212
  20774379.444   -26092843.32143 -20304372.03742  20774380.928    20774376.545
  23245801.618   -10701404.21043  -8309350.86242  23245803.509    23245800.373
  20836862.095   -21238013.43044 -16345648.92142  20836864.278    20836858.768
  23852324.367    -9030069.68843  -7027982.86442  23852325.862    23852321.539
  23269129.312    -9112970.93643  -6964227.90342  23269130.409    23269127.554
  21280930.954   -23320178.60343 -18144453.63842  21280931.286    21280927.059
  22663214.090   -14753625.81143 -11471191.10142  22663215.331    22663210.130
 04  7 22  1 31 30.0000000  0  8G 3G27G28G13G23G10G 8G19
  23267498.024
  20771742.200   -26106702.03843 -20315171.03842  20771743.689    20771739.299
  23228278.506   -10793488.48443  -8381104.73442  23228280.442    23228277.514
  20847367.795   -21182805.54843 -16302629.81642  20847369.947    20847364.482
  23872385.911    -8924647.70443  -6945835.94242  23872387.304    23872382.624
  23263985.934    -9139999.33443  -6985288.97142  23263987.103    23263984.186
  21270733.945   -23373763.57443 -18186208.13742  21270734.315    21270730.112
  22655865.027   -14792244.93743 -11501283.89742  22655866.323    22655861.245
 04  7 22  1 32  0.0000000  0  8G 3G27G28G13G23G10G 8G19
  23274975.776       91206.79753    -59541.65752  23274977.450    23274975.973
  20769140.844   -26120372.10843 -20325823.03642  20769142.323    20769137.968
  23210797.755   -10885350.69543  -8452685.56842  23210799.676    23210796.831
  20857959.467   -21127146.19543 -16259258.91242  20857961.584    20857956.095
  23892479.098    -8819057.57443  -6863558.00142  23892480.570    23892475.722
  23258950.457    -9166460.57243  -7005908.09242  23258951.642    23258948.811
  21260575.774   -23427145.24843 -18227804.21842  21260576.162    21260571.885
  22648608.462   -14830378.56743 -11530998.38242  22648609.741    22648604.643
 04  7 22  1 32 30.0000000  0  8G 3G27G28G13G23G10G 8G19
  23282557.137      131048.51743    -28496.15942  23282559.438    23282556.855
  20766576.701   -26133846.65643 -20336322.67642  20766578.184    20766573.817
  23193360.494   -10976983.08743  -8524087.32242  23193362.515    23193359.740
  20868638.118   -21071029.54644 -16215531.67742  20868640.256    20868634.725
  23912605.269    -8713294.47943  -6781145.30642  23912606.773    23912601.811
  23254024.520    -9192347.77843  -7026079.90142  23254025.451    23254022.649
  21250457.705   -23480316.19743 -18269236.09342  21250458.049    21250453.763
  22641445.980   -14868017.85843 -11560327.64742  22641447.336    22641442.078
 04  7 22  1 33  0.0000000  0  8G 3G27G28G13G23G10G 8G19
  23290242.272      171434.61643      2973.50542  23290244.394    23290241.694
  20764049.828   -26147125.46643 -20346669.79042  20764051.314    20764046.854
  23175967.085   -11068384.43443  -8595309.04642  23175969.057    23175966.513
  20879403.711   -21014456.40844 -16171448.73342  20879405.869    20879400.246
  23932764.044    -8607360.31143  -6698599.30942  23932765.573    23932760.392
  23249207.499    -9217660.25443  -7045803.88342  23249208.530    23249205.855
  21240379.734   -23533275.95043 -18310503.40942  21240380.088    21240375.844
  22634377.804   -14905161.33643 -11589270.56342  22634379.174    22634373.831
 04  7 22  1 33 30.0000000  0  8G 3G27G28G13G23G10G 8G19
  23298028.989      212353.45743     34858.27642  23298030.937    23298028.078
  20761558.226   -26160218.61543 -20356872.23642  20761559.726    20761555.300
  23158616.164   -11159563.69343  -8666357.71842  23158617.983    23158615.496
  20890253.944   -20957438.22844 -16127019.00342  20890256.144    20890250.418
  23952952.665    -8501267.10043  -6615929.36642  23952954.204    23952949.330
  23244498.220    -9242407.68143  -7065087.57542  23244499.202    23244496.618
  21230339.969   -23586034.79343 -18351614.17242  21230340.308    21230336.100
  22627402.335   -14941817.53143 -11617833.78242  22627403.704    22627398.297
 04  7 22  1 34  0.0000000  0  8G 3G27G28G13G23G10G 8G19
  23305919.557      253818.61943     67168.74742  23305921.481    23305918.334
  20759104.869   -26173111.02743 -20366918.26442  20759106.354    20759102.030
  23141310.794   -11250504.80043  -8737220.79342  23141312.512    23141309.805
  20901191.474   -20899960.96843 -16082231.55542  20901193.691    20901187.954
  23973174.336    -8395001.85243  -6533125.38642  23973175.744    23973171.094
  23239899.346    -9266574.94743  -7083919.18842  23239900.360    23239897.832
  21220341.407   -23638577.15843 -18392556.24742  21220341.737    21220337.493
  22620522.745   -14977969.80643 -11646004.33342  22620524.099    22620518.704
 04  7 22  1 34 30.0000000  0  8G 3G27G28G13G23G10G 8G19
  23313911.997      295819.18643     99896.43242  23313913.815    23313910.799
  20756687.980   -26185812.12444 -20376815.22142  20756689.468    20756685.134
  23124048.916   -11341216.21343  -8807904.89142  23124050.726    23124047.747
  20912214.390   -20842035.16044 -16037094.58442  20912216.585    20912210.927
  23993426.721    -8288576.04043  -6450196.28342  23993428.173    23993423.371
  23235409.041    -9290171.36743  -7102305.97842  23235410.132    23235407.513
  21210382.310   -23690913.02544 -18433337.42542  21210382.633    21210378.221
  22613737.486   -15013626.08243 -11673788.39942  22613738.898    22613733.495
 04  7 22  1 35  0.0000000  0  8G 3G27G28G13G23G10G 8G19
  23322006.397      338354.93543    133041.13642  23322008.092    23322004.904
  20754307.714   -26198320.36943 -20386561.89542  20754309.211    20754304.896
  23106831.094   -11431695.32143  -8878407.98142  23106833.034    23106829.777
  20923322.664   -20783660.77243 -15991608.07342  20923324.828    20923319.267
  24013709.453    -8181990.39543  -6367142.64442  24013710.929    24013706.236
  23231027.684    -9313195.05943  -7120246.49542  23231028.894    23231026.111
  21200462.811   -23743040.26443 -18473956.02742  21200463.145    21200458.726
  22607047.106   -15048783.63543 -11701183.86142  22607048.508    22607043.194
 04  7 22  1 35 30.0000000  0  8G 3G27G28G13G23G10G 8G19
  23330202.624      381426.24843    166603.19142  23330204.331    23330201.114
  20751964.619   -26210633.61144 -20396156.62742  20751966.082    20751961.752
  23089658.215   -11521939.11243  -8948727.70742  23089660.221    23089656.689
  20934516.446   -20724837.18244 -15945771.52042  20934518.607    20934513.024
  24034022.550    -8075244.86543  -6283964.39142  24034024.129    24034019.598
  23226755.723    -9335643.85143  -7137739.05842  23226756.838    23226754.173
  21190583.503   -23794956.48744 -18514410.20442  21190583.811    21190579.450
  22600452.316   -15083438.91143 -11728187.96142  22600453.656    22600448.472
 04  7 22  1 36  0.0000000  0  8G 3G27G28G13G23G10G 8G19
  23338500.437      425031.86943    200581.54842  23338502.111    23338499.056
  20749658.702   -26222751.57844 -20405599.19442  20749660.147    20749655.760
  23072530.396   -11611946.44043  -9018863.17542  23072532.388    23072528.776
  20945795.645   -20665564.60944 -15899585.10742  20945797.847    20945792.251
  24054365.882    -7968341.13343  -6200662.88742  24054367.404    24054362.777
  23222593.176    -9357517.21943  -7154783.24742  23222594.280    23222591.718
  21180744.329   -23846661.61743 -18554699.90642  21180744.654    21180740.331
  22593953.528   -15117590.31643 -11754799.42142  22593954.796    22593949.654
 04  7 22  1 36 30.0000000  0  8G 3G27G28G13G23G10G 8G19
  23346900.034      469172.22043    234976.59942  23346901.680    23346898.594
  20747390.288   -26234672.10944 -20414887.91542  20747391.754    20747387.404
  23055447.862   -11701714.09443  -9088811.88742  23055449.911    23055446.559
  20957160.397   -20605842.49044 -15853048.40442  20957162.635    20957157.015
  24074739.051    -7861279.37143  -6117238.24542  24074740.566    24074735.835
  23218540.873    -9378812.94543  -7171377.31942  23218541.946    23218539.212
  21170945.763   -23898153.46343 -18594823.41042  21170946.075    21170941.745
  22587551.244   -15151234.17843 -11781015.38742  22587552.594    22587547.302
 04  7 22  1 37  0.0000000  0  8G 3G27G28G13G23G10G 8G19
  23355401.013      513844.59743    269786.21942  23355402.592    23355399.488
  20745159.287   -26246396.14244 -20424023.51942  20745160.733    20745156.370
  23038411.078   -11791241.84843  -9158573.67642  23038413.112    23038410.112
  20968610.280   -20545673.16444 -15806163.23742  20968612.493    20968606.861
  24095141.465    -7754062.55543  -6033692.79942  24095142.952    24095138.410
  23214598.321    -9399531.60943  -7187521.73342  23214599.384    23214596.576
  21161187.654   -23949432.55443 -18634781.12842  21161187.977    21161183.694
  22581245.710   -15184369.82743 -11806835.33642  22581247.051    22581241.729
 04  7 22  1 37 30.0000000  0  8G 3G27G28G13G23G10G 8G19
  23364002.357      559045.56043    305007.72942  23364004.102    23364001.035
  20742965.280   -26257925.39044 -20433007.34842  20742966.745    20742962.377
  23021419.852   -11880530.99943  -9228149.51842  23021421.860    23021419.056
  20980144.577   -20485059.84643 -15758932.10142  20980146.776    20980141.208
  24115572.622    -7646694.73443  -5950029.64442  24115573.837    24115569.661
  23210765.175    -9419675.40043  -7203218.20042  23210766.347    23210763.486
  21151469.693   -24000500.83843 -18674574.57542  21151469.995    21151465.744
  22575036.909   -15216997.99643 -11832259.85442  22575038.135    22575032.811
 04  7 22  1 38  0.0000000  0  8G 3G27G28G13G23G10G 8G19
  23372704.496      604774.99943    340641.03042  23372706.047    23372703.272
  20740808.855   -26269257.88944 -20441837.86542  20740810.323    20740805.888
  23004474.690   -11969578.48143  -9297537.07242  23004476.574    23004473.702
  20991763.491   -20424001.75043 -15711354.38242  20991765.679    20991760.198
  24136032.638    -7539175.96543  -5866248.89042  24136033.795    24136029.896
  23207041.714    -9439242.42143  -7218465.23742  23207042.889    23207040.155
  21141792.101   -24051356.29143 -18714202.17642  21141792.432    21141788.242
  22568925.216   -15249115.41043 -11857286.38042  22568926.407    22568921.006
 04  7 22  1 38 30.0000000  0  8G 3G27G28G13G23G10G 8G19
  23381507.007      651032.61543    376685.91942  23381508.496    23381505.918
  20738689.978   -26280392.65744 -20450514.30242  20738691.463    20738686.994
  22987575.939   -12058382.45943  -9366734.88242  22987577.695    22987574.761
  21003467.105   -20362499.09643 -15663430.26042  21003469.231    21003463.743
  24156521.183    -7431507.43843  -5782351.42342  24156522.421    24156518.774
  23203428.134    -9458231.24743  -7233261.73442  23203429.258    23203426.768
  21132155.387   -24101997.80844 -18753663.08642  21132155.668    21132151.443
  22562911.061   -15280719.71343 -11881913.07642  22562912.333    22562906.851
 04  7 22  1 39  0.0000000  0  8G 3G27G28G13G23G10G 8G19
  23390409.094      697813.25043    413138.33142  23390410.630    23390407.957
  20736608.109   -26291332.79244 -20459039.09042  20736609.604    20736605.153
  22970723.284   -12146944.97343  -9435744.53142  22970724.943    22970721.814
  21015254.369   -20300556.63644 -15615163.44242  21015256.501    21015251.067
  24177037.706    -7323694.19043  -5698341.17642  24177038.914    24177035.040
  23199924.156    -9476645.46143  -7247610.46242  23199925.122    23199922.587
  21122558.829   -24152427.94244 -18792959.27542  21122559.102    21122554.806
  22556993.984   -15311812.91243 -11906141.51742  22556995.372    22556989.963
 04  7 22  1 39 30.0000000  0  8G 3G27G28G13G23G10G 8G19
  23399411.599      745121.44043    450001.82142  23399413.227    23399410.481
  20734564.583   -26302071.70344 -20467407.07342  20734566.048    20734561.622
  22953917.700   -12235258.69743  -9504560.33642  22953919.509    22953916.052
  21027126.267   -20238169.48643 -15566550.09942  21027128.426    21027123.046
  24197582.667    -7215732.14143  -5614215.05242  24197584.072    24197579.530
  23196530.733    -9494478.36243  -7261506.22842  23196531.710    23196529.127
  21113003.742   -24202639.97243 -18832085.51242  21113004.040    21112999.783
  22551175.942   -15342386.94943 -11929965.42442  22551177.251    22551171.842
 04  7 22  1 40  0.0000000  0  8G 3G27G28G13G23G10G 8G19
  23408513.561      792952.71143    487272.93942  23408515.189    23408512.462
  20732558.826   -26312612.08244 -20475620.35642  20732560.259    20732555.831
  22937158.920   -12323325.47243  -9573183.70942  22937160.858    22937157.200
  21039082.180   -20175341.22244 -15517593.03442  21039084.335    21039078.925
  24218154.877    -7107626.08743  -5529976.70742  24218156.277    24218151.600
  23193247.215    -9511732.60343  -7274951.10742  23193248.244    23193245.654
  21103489.694   -24252636.66243 -18871043.95742  21103489.992    21103485.711
  22545456.497   -15372443.58543 -11953386.16342  22545457.692    22545452.241
 04  7 22  1 40 30.0000000  0  8G 3G27G28G13G23G10G 8G19
  23417714.683      841304.53743    524949.69442  23417716.298    23417713.542
  20730590.695   -26322954.80343 -20483679.61742  20730592.119    20730587.671
  22920447.177   -12411145.22843  -9641614.62542  22920449.093    22920445.317
  21051121.616   -20112073.95744 -15468293.89042  21051123.786    21051118.278
  24238753.813    -6999379.07343  -5445628.49542  24238755.213    24238750.584
  23190073.704    -9528409.07843  -7287945.78442  23190074.789    23190072.008
  21094016.394   -24302419.16443 -18909835.50242  21094016.697    21094012.314
  22539835.476   -15401982.45143 -11976403.44342  22539836.721    22539831.171
 04  7 22  1 41  0.0000000  0  8G 3G27G28G13G23G10G 8G19
  23427014.920      890176.82143    563031.97742  23427016.394    23427013.658
  20728660.474   -26333097.77843 -20491583.23042  20728661.910    20728657.498
  22903783.168   -12498715.45143  -9709851.09942  22903784.952    22903781.198
  21063244.597   -20048367.51244 -15418652.52842  21063246.760    21063241.161
  24259379.390    -6890991.38643  -5361170.70042  24259380.901    24259376.023
  23187010.657    -9544506.61743  -7300489.30942  23187011.685    23187008.658
  21084584.237   -24351985.22143 -18948458.38942  21084584.534    21084580.224
  22534313.293   -15431000.46543 -11999014.87742  22534314.659    22534309.231
 04  7 22  1 41 30.0000000  0  8G 3G27G28G13G23G10G 8G19
  23436413.329      939567.53443    601518.22442  23436414.940    23436412.422
  20726768.275   -26343041.28843 -20499331.41942  20726769.667    20726765.322
  22887166.636   -12586035.26643  -9777892.42542  22887168.488    22887164.851
  21075450.671   -19984223.53043 -15368670.21942  21075452.860    21075447.364
  24280031.367    -6782465.44443  -5276605.14642  24280032.769    24280027.857
  23184057.493    -9560025.54243  -7312581.98842  23184058.457    23184055.518
  21075193.340   -24401334.77444 -18986912.56342  21075193.596    21075189.370
  22528890.565   -15459496.69843 -12021219.72742  22528891.857    22528886.579
 04  7 22  1 42  0.0000000  0  8G 3G27G28G13G23G10G 8G19
  23445910.985      989478.25843    640409.66842  23445912.644    23445910.231
  20724914.780   -26352781.64244 -20506921.30042  20724916.175    20724911.797
  22870598.530   -12673100.07243  -9845735.06642  22870600.415    22870597.049
  21087740.577   -19919639.78443 -15318345.23942  21087742.739    21087737.304
  24300709.691    -6673799.75343  -5191930.70542  24300711.309    24300706.198
  23181214.796    -9574962.07143  -7324220.83442  23181215.820    23181213.307
  21065844.294   -24450464.08244 -19025195.12642  21065844.593    21065840.301
  22523568.203   -15487466.44043 -12043014.30742  22523569.377    22523564.149
 04  7 22  1 42 30.0000000  0  8G 3G27G28G13G23G10G 8G19
  23455506.891     1039904.17843    679702.54542  23455508.438    23455505.917
  20723099.414   -26362321.76544 -20514355.15842  20723100.789    20723096.387
  22854078.476   -12759912.15543  -9913380.78742  22854080.353    22854077.267
  21100113.283   -19854620.83643 -15267681.15042  21100115.477    21100110.040
  24321413.940    -6564999.31043  -5107151.27342  24321415.409    24321410.489
  23178482.474    -9589319.39943  -7335408.37842  23178483.513    23178481.256
  21056536.753   -24499375.75844 -19063308.10242  21056537.046    21056532.650
  22518345.617   -15514911.30243 -12064399.89342  22518346.814    22518341.586
 04  7 22  1 43  0.0000000  0  8G 3G27G28G13G23G10G 8G19
  23465199.787     1090841.33553    719393.83752  23465201.245    23465198.953
  20721321.736   -26371663.45044 -20521634.39542  20721323.139    20721318.697
  22837606.709   -12846472.52943  -9980830.36642  22837608.411    22837605.176
  21112568.149   -19789170.40144 -15216680.83742  21112570.331    21112564.877
  24342143.021    -6456068.26843  -5022270.08842  24342144.467    24342139.878
  23175860.414    -9603099.85343  -7346146.38942  23175861.395    23175859.051
  21047270.114   -24548071.58943 -19101252.88942  21047270.475    21047266.177
  22513222.835   -15541832.23943 -12085377.23042  22513224.015    22513218.627
 04  7 22  1 43 30.0000000  0  8G 3G27G28G13G23G10G 8G19
  23474991.414     1142294.66843    759487.34342  23474992.745    23474990.240
  20719583.139   -26380799.89444 -20528753.70342  20719584.546    20719580.141
  22821184.247   -12932773.75843 -10048078.00042  22821185.859    22821182.410
  21125106.284   -19723282.43444 -15165339.59342  21125108.466    21125103.026
  24362897.428    -6347002.19243  -4937283.64142  24362898.933    24362894.856
  23173349.299    -9616296.81843  -7356429.73242  23173350.362    23173347.813
  21038045.967   -24596544.91144 -19139024.30342  21038046.279    21038042.014
  22508201.117   -15568221.43843 -12105940.22942  22508202.309    22508196.869
 04  7 22  1 44  0.0000000  0  8G 3G27G28G13G23G10G 8G19
  23484879.150     1194255.93343    799976.63542  23484880.711    23484878.130
  20717882.420   -26389737.02444 -20535717.69742  20717883.866    20717879.451
  22804809.959   -13018820.64043 -10115127.44742  22804811.597    22804808.011
  21137726.131   -19656964.43743 -15113663.25342  21137728.358    21137723.029
  24383675.805    -6237809.07943  -4852198.18542  24383677.405    24383674.007
  23170947.715    -9628916.51543  -7366263.26542  23170948.847    23170946.340
  21028863.112   -24644801.30744 -19176626.68142  21028863.385    21028859.137
  22503279.564   -15594083.71743 -12126092.63442  22503280.856    22503275.421
 04  7 22  1 44 30.0000000  0  8G 3G27G28G13G23G10G 8G19
  23494864.605     1246729.86843    840865.39242  23494866.161    23494863.523
  20716220.967   -26398468.10644 -20542521.13342  20716222.417    20716217.937
  22788485.360   -13104606.03043 -10181973.14142  22788487.037    22788483.440
  21150428.609   -19590212.17943 -15061648.53142  21150430.789    21150425.618
  24404479.700    -6128484.54143  -4767010.34442  24404481.051    24404477.842
  23168657.323    -9640952.83643  -7375642.25342  23168658.404    23168655.876
  21019722.750   -24692834.22844 -19214054.92342  21019723.012    21019718.730
  22498459.823   -15619411.55443 -12145828.57942  22498461.081    22498455.697
 04  7 22  1 45  0.0000000  0  8G 3G27G28G13G23G10G 8G19
  23504946.189     1299706.84243    882146.15042  23504947.543    23504944.781
  20714597.225   -26407000.91344 -20549170.06842  20714598.651    20714594.189
  22772209.504   -13190136.83343 -10248620.45342  22772211.057    22772207.382
  21163212.145   -19523034.13543 -15009302.02442  21163214.314    21163209.147
  24425306.430    -6019038.64243  -4681727.94342  24425308.014    24425304.689
  23166476.353    -9652413.82643  -7384572.88642  23166477.508    23166474.763
  21010623.472   -24740651.35544 -19251315.00942  21010623.733    21010619.395
  22493740.489   -15644211.57743 -12165153.24942  22493741.779    22493736.327
 04  7 22  1 45 30.0000000  0  8G 3G27G28G13G23G10G 8G19
  23515123.746     1353192.69153    923823.43552  23515125.634    23515122.782
  20713012.734   -26415327.17244 -20555658.05942  20713014.176    20713009.764
  22755983.771   -13275404.12643 -10315062.42342  22755985.368    22755981.565
  21176077.927   -19455424.18143 -14956618.96942  21176080.117    21176074.786
  24446157.557    -5909465.47243  -4596346.36542  24446159.079    24446155.795
  23164406.245    -9663291.71543  -7393049.15342  23164407.335    23164404.713
  21001566.787   -24788244.29744 -19288400.40842  21001567.113    21001562.659
  22489123.499   -15668474.83843 -12184059.66142  22489124.582    22489119.108
 04  7 22  1 46  0.0000000  0  8G 3G27G28G13G23G10G 8G19
  23525398.391     1407184.19553    965894.71152  23525399.780    23525396.575
  20711467.349   -26423448.23644 -20561986.16442  20711468.797    20711464.337
  22739808.023   -13360408.26843 -10381299.35442  22739809.686    22739805.888
  21189025.365   -19387385.03443 -14903601.48142  21189027.569    21189022.213
  24467032.477    -5799768.56443  -4510868.36942  24467034.011    24467030.596
  23162446.808    -9673588.03843  -7401072.24642  23162447.930    23162445.467
  20992552.614   -24835614.13444 -19325311.95942  20992552.938    20992548.379
  22484608.355   -15692201.58343 -12202548.01542  22484609.420    22484603.997
 04  7 22  1 46 30.0000000  0  8G 3G27G28G13G23G10G 8G19
  23535767.551     1461672.77253   1008353.32552  23535769.178    23535765.461
  20709959.841   -26431370.41144 -20568159.27742  20709961.275    20709956.798
  22723681.045   -13445155.35643 -10447335.97442  22723682.859    22723679.144
  21202052.909   -19318924.99143 -14850256.02242  21202055.088    21202049.740
  24487929.598    -5689956.39943  -4425300.59442  24487931.094    24487927.210
  23160597.090    -9683309.73543  -7408647.60242  23160598.169    23160595.567
  20983579.709   -24882767.25044 -19362054.64642  20983579.981    20983575.444
  22480194.194   -15715397.46543 -12220622.71042  22480195.327    22480189.956
 04  7 22  1 47  0.0000000  0  7G27G28G13G23G10G 8G19
  20708492.492   -26439081.43744 -20574167.84342  20708493.929    20708489.458
  22707605.687   -13529632.30343 -10513162.09742  22707607.425    22707603.778
  21215162.541   -19250033.26843 -14796574.18842  21215164.699    21215159.361
  24508849.965    -5580019.15243  -4339635.32442  24508851.809    24508847.692
  23158858.621    -9692445.42443  -7415766.31142  23158859.770    23158857.157
  20974650.329   -24929691.30544 -19398618.83842  20974650.620    20974646.191
  22475883.741   -15738049.41943 -12238273.55742  22475884.856    22475879.375
 04  7 22  1 47 30.0000000  0  7G27G28G13G23G10G 8G19
  20707063.984   -26446588.01044 -20580017.11242  20707065.463    20707060.937
  22691580.523   -13613844.88443 -10578782.21842  22691582.264    22691578.650
  21228352.787   -19180718.16243 -14742562.44642  21228354.901    21228349.590
  24529792.601    -5469965.93343  -4253879.68342  24529794.371    24529789.805
  23157230.260    -9701002.27543  -7422433.98742  23157231.381    23157228.801
  20965763.368   -24976392.66344 -19435009.50442  20965763.662    20965759.271
  22471675.574   -15760163.37943 -12255505.17442  22471676.762    22471671.203
 04  7 22  1 48  0.0000000  0  7G27G28G13G23G10G 8G19
  20705674.636   -26453889.27444 -20585706.40042  20705676.076    20705671.591
  22675605.841   -13697791.52543 -10644195.12142  22675607.596    22675603.991
  21241623.335   -19110980.53243 -14688221.45842  21241625.415    21241620.257
  24550757.043    -5359797.98543  -4168034.68842  24550758.854    24550753.567
  23155712.198    -9708979.59043  -7428650.07242  23155713.274    23155710.701
  20956918.947   -25022870.40944 -19471225.92642  20956919.215    20956914.855
  22467570.144   -15781737.44543 -12272316.10542  22467571.367    22467565.766
 04  7 22  1 48 30.0000000  0  7G27G28G13G23G10G 8G19
  20704324.633   -26460983.59344 -20591234.43742  20704326.091    20704321.644
  22659682.088   -13781470.26743 -10709399.25642  22659683.865    22659680.280
  21254974.260   -19040820.77843 -14633551.53642  21254976.329    21254971.308
  24571742.841    -5249516.18143  -4082100.96942  24571744.739    24571739.310
  23154304.689    -9716376.57743  -7434413.94842  23154305.732    23154303.020
  20948117.325   -25069122.81144 -19507266.75342  20948117.622    20948113.352
  22463567.864   -15802769.44443 -12288704.65242  22463569.117    22463563.466
 04  7 22  1 49  0.0000000  0  7G27G28G13G23G10G 8G19
  20703013.465   -26467873.86644 -20596603.47942  20703014.922    20703010.427
  22643809.185   -13864883.17643 -10774396.25442  22643810.865    22643807.187
  21268404.802   -18970243.31243 -14578556.13642  21268406.828    21268401.785
  24592749.704    -5139125.58643  -3996082.45742  24592751.423    24592746.068
  23153006.935    -9723196.82143  -7439728.42842  23153007.949    23153005.204
  20939358.108   -25115152.97644 -19543134.41042  20939358.373    20939354.099
  22459668.337   -15823261.66543 -12304672.59542  22459669.569    22459663.920
 04  7 22  1 49 30.0000000  0  7G27G28G13G23G10G 8G19
  20701742.860   -26474550.63344 -20601806.13842  20701744.333    20701739.923
  22627988.674   -13948020.27743 -10839178.33942  22627990.397    22627986.603
  21281916.319   -18899240.64943 -14523229.42742  21281918.335    21281913.149
  24613778.696    -5028619.26043  -3909973.76242  24613780.378    24613774.836
  23151820.408    -9729431.76143  -7444586.85042  23151821.449    23151818.900
  20930642.905   -25160951.49444 -19578821.55642  20930643.158    20930638.855
  22455873.429   -15843203.75943 -12320211.86942  22455874.723    22455869.072
 04  7 22  1 50  0.0000000  0  7G27G28G13G23G10G 8G19
  20700511.610   -26481020.78143 -20606847.80442  20700513.073    20700508.656
  22612219.262   -14030887.86043 -10903750.40642  22612221.066    22612217.498
  21295507.022   -18827821.32943 -14467578.04142  21295509.153    21295503.868
  24634827.994    -4918006.30343  -3823782.01142  24634829.693    24634823.995
  23150743.900    -9735088.58743  -7448994.74342  23150744.810    23150742.446
  20921970.552   -25206524.81244 -19614333.22142  20921970.841    20921966.482
  22452182.133   -15862601.96143 -12335327.33142  22452183.412    22452177.754
 04  7 22  1 50 30.0000000  0  6G27G28G13G10G 8G19
  20699322.193   -26487271.04143 -20611718.13442  20699323.625    20699319.291
  22596503.968   -14113472.12643 -10968101.73342  22596505.636    22596502.360
  21309179.070   -18755974.19943 -14411593.29042  21309181.250    21309176.004
  23149779.694    -9740155.30243  -7452942.80842  23149780.617    23149778.244
  20913343.741   -25251859.49344 -19649658.95142  20913344.002    20913339.576
  22448596.838   -15881442.52343 -12350008.27942  22448598.142    22448592.534
 04  7 22  1 51  0.0000000  0  6G27G28G13G10G 8G19
  20698169.694   -26493327.34744 -20616437.32542  20698171.134    20698166.823
  22580837.949   -14195798.24243 -11032251.88942  22580839.604    22580836.312
  21322927.328   -18683726.79743 -14355296.64542  21322929.473    21322924.256
  23148922.798    -9744658.11743  -7456451.48842  23148923.716    23148921.397
  20904757.288   -25296981.36144 -19684818.83542  20904757.576    20904753.240
  22445112.887   -15899750.75543 -12364274.42342  22445114.134    22445108.665
 04  7 22  1 51 30.0000000  0  6G27G28G13G10G 8G19
  20697058.159   -26499168.60844 -20620988.96042  20697059.597    20697055.271
  22565224.932   -14277844.43343 -11096183.91642  22565226.684    22565223.357
  21336755.476   -18611059.49843 -14298672.80042  21336757.615    21336752.340
  23148176.866    -9748577.06143  -7459505.21642  23148177.980    23148175.589
  20896215.424   -25341869.51944 -19719796.60842  20896215.685    20896211.298
  22441734.353   -15917504.66843 -12378108.63542  22441735.625    22441730.179
 04  7 22  1 52  0.0000000  0  6G27G28G13G10G 8G19
  20695986.199   -26504801.72144 -20625378.40042  20695987.643    20695983.282
  22549663.949   -14359617.16143 -11159902.85642  22549665.664    22549662.241
  21350661.793   -18537981.34643 -14241728.81742  21350663.968    21350658.715
  23147540.946    -9751919.65843  -7462109.88242  23147541.978    23147539.457
  20887716.702   -25386530.42144 -19754597.29642  20887716.970    20887712.530
  22438460.121   -15934710.70743 -12391515.90842  22438461.405    22438455.878
 04  7 22  1 52 30.0000000  0  6G27G28G13G10G 8G19
  20694954.801   -26510221.78244 -20629601.82442  20694956.232    20694951.872
  22534156.034   -14441111.21943 -11223404.65742  22534157.683    22534154.182
  21364646.917   -18464489.51243 -14184462.48742  21364649.093    21364643.863
  23147015.340    -9754681.93943  -7464262.32342  23147016.390    23147013.792
  20879262.165   -25430959.38944 -19789217.25442  20879262.412    20879258.000
  22435291.115   -15951363.65743 -12404492.22842  22435292.340    22435286.826
 04  7 22  1 53  0.0000000  0  6G27G28G13G10G 8G19
  20693962.826   -26515434.55144 -20633663.72442  20693964.258    20693959.895
  22518700.437   -14522331.47843 -11286693.10442  22518702.057    22518698.360
  21378709.257   -18390591.43043 -14126879.59642  21378711.467    21378706.238
  23146598.875    -9756870.52843  -7465967.70742  23146599.908    23146597.239
  20870850.621   -25475162.19144 -19823660.98942  20870850.897    20870846.453
  22432226.320   -15967468.61443 -12417041.53742  22432227.593    22432222.159
 04  7 22  1 53 30.0000000  0  7G31G27G28G13G10G 8G19
  24625810.614    -5397557.04853  -4196657.94952  24625813.089    24625810.772
  20693008.570   -26520449.39444 -20637571.40042  20693009.995    20693005.622
  22503295.181   -14603287.14643 -11349775.38342  22503296.849    22503292.994
  21392846.762   -18316298.46643 -14068989.00942  21392848.904    21392843.598
  23146289.391    -9758496.04443  -7467234.33442  23146290.483    23146287.854
  20862480.307   -25519148.10644 -19857935.71242  20862480.577    20862476.226
  22429264.304   -15983034.61443 -12429170.86942  22429265.505    22429260.021
 04  7 22  1 54  0.0000000  0  7G31G27G28G13G10G 8G19
  24603820.776    -5513113.31643  -4286701.58342  24603823.137    24603821.189
  20692097.632   -26525236.32243 -20641301.47542  20692099.074    20692094.710
  22487945.934   -14683947.59043 -11412627.61942  22487947.628    22487943.790
  21407064.814   -18241582.66543 -14010768.94142  21407066.934    21407061.522
  23146092.991    -9759529.17143  -7468039.37742  23146093.912    23146091.280
  20854157.156   -25562886.84144 -19892017.82742  20854157.398    20854153.048
  22426410.576   -15998031.19343 -12440856.49742  22426411.811    22426406.256
 04  7 22  1 54 30.0000000  0  7G31G27G28G13G10G 8G19
  24581820.623    -5628722.72843  -4376786.64942  24581823.283    24581821.208
  20691227.081   -26529810.92144 -20644866.09942  20691228.519    20691224.231
  22472650.089   -14764327.95143 -11475261.60042  22472651.767    22472647.743
  21421359.817   -18166461.72143 -13952233.16542  21421361.950    21421356.660
  23146006.066    -9759986.27243  -7468395.58442  23146007.096    23146004.386
  20845877.973   -25606393.99544 -19925919.49642  20845878.224    20845873.877
  22423662.418   -16012473.41243 -12452110.13342  22423663.631    22423658.019
 04  7 22  1 55  0.0000000  0  7G31G27G28G13G10G 8G19
  24559811.109    -5744381.63943  -4466910.31542  24559813.655    24559811.818
  20690397.271   -26534171.67243 -20648264.09142  20690398.731    20690394.405
  22457407.975   -14844425.95343 -11537675.56342  22457409.684    22457405.498
  21435731.905   -18090935.81743 -13893381.83742  21435734.040    21435728.901
  23146028.954    -9759867.00743  -7468302.67142  23146029.940    23146027.124
  20837643.188   -25649667.72744 -19959639.28042  20837643.452    20837639.148
  22421019.878   -16026359.37943 -12462930.33642  22421021.209    22421015.606
 04  7 22  1 55 30.0000000  0  7G31G27G28G13G10G 8G19
  24537792.962    -5860085.34143  -4557068.85442  24537795.516    24537794.106
  20689608.647   -26538315.92044 -20651493.37142  20689610.081    20689605.770
  22442219.994   -14924238.69443 -11599867.25142  22442221.764    22442217.702
  21450181.249   -18015004.15843 -13834214.33842  21450183.378    21450178.269
  23146161.741    -9759169.76643  -7467759.38442  23146162.696    23146159.833
  20829453.364   -25692705.92544 -19993175.52142  20829453.593    20829449.226
  22418483.742   -16039686.12343 -12473314.78442  22418485.116    22418479.543
 04  7 22  1 56  0.0000000  0  7G31G27G28G13G10G 8G19
  24515767.079    -5975828.91443  -4647258.47742  24515769.365    24515769.049
  20688861.694   -26542241.07144 -20654551.92442  20688863.159    20688858.823
  22427086.953   -15003762.88943 -11661834.11942  22427088.704    22427084.847
  21464707.927   -17938666.08243 -13774730.16842  21464710.113    21464704.898
  23146404.588    -9757892.86343  -7466764.38842  23146405.617    23146402.848
  20821308.990   -25735505.19844 -20026525.59442  20821309.235    20821304.759
  22416054.761   -16052450.69843 -12483261.19842  22416056.056    22416050.450
 04  7 22  1 56 30.0000000  0  7G31G27G28G13G10G 8G19
  24493731.925    -6091621.57743  -4737486.35242  24493733.921    24493734.436
  20688154.390   -26545958.23944 -20657448.40742  20688155.827    20688151.473
  22412006.557   -15083009.48343 -11723584.66742  22412008.356    22412004.775
  21479309.414   -17861935.09643 -13714939.83042  21479311.599    21479306.419
  23146755.417    -9756048.66743  -7465327.35842  23146756.479    23146753.835
  20813207.858   -25778076.71744 -20059698.19342  20813208.090    20813203.673
  22413730.728   -16064663.79343 -12492777.87642  22413731.980    22413726.357
 04  7 22  1 57  0.0000000  0  7G31G27G28G13G10G 8G19
  24471690.554    -6207449.06743  -4827741.39842  24471692.264    24471693.237
  20687488.924   -26549455.24944 -20660173.34042  20687490.365    20687486.001
  22396981.561   -15161965.84243 -11785109.05342  22396983.241    22396979.723
  21493987.504   -17784801.04943 -13654835.39942  21493989.683    21493984.668
  23147216.494    -9753626.30643  -7463439.81242  23147217.466    23147214.781
  20805152.321   -25820408.47744 -20092683.97142  20805152.610    20805148.226
  22411514.035   -16076313.16643 -12501855.29342  22411515.179    22411509.587
 04  7 22  1 57 30.0000000  0  7G31G27G28G13G10G 8G19
  24449640.997    -6323318.18443  -4918028.86142  24449642.851    24449644.038
  20686863.608   -26552741.25044 -20662733.86042  20686865.066    20686860.699
  22382010.249   -15240640.43543 -11846413.87042  22382011.887    22382008.247
  21508740.259   -17707274.94143 -13594425.47442  21508742.401    21508737.427
  23147785.668    -9750635.73743  -7461109.50142  23147786.666    23147783.950
  20797140.749   -25862509.66444 -20125490.08742  20797141.004    20797136.624
  22409402.804   -16087407.41543 -12510500.14242  22409403.954    22409398.331
 04  7 22  1 58  0.0000000  0  7G31G27G28G13G10G 8G19
  24427586.422    -6439215.05043  -5008337.95342  24427588.126    24427589.769
  20686280.700   -26555804.43244 -20665120.75542  20686282.161    20686277.820
  22367094.891   -15319021.28843 -11907489.79142  22367096.551    22367092.732
  21523569.537   -17629347.15043 -13533702.56942  21523571.669    21523566.405
  23148464.805    -9747066.46843  -7458328.28842  23148465.783    23148463.109
  20789175.319   -25904368.27744 -20158107.18042  20789175.550    20789171.264
  22407399.507   -16097934.84643 -12518703.32642  22407400.739    22407395.098
 04  7 22  1 58 30.0000000  0  7G31G27G28G13G10G 8G19
  24405525.544    -6555144.18843  -5098672.17242  24405527.439    24405528.911
  20685738.902   -26558651.55444 -20667339.29142  20685740.371    20685736.027
  22352234.283   -15397114.54543 -11968341.63242  22352235.922    22352232.131
  21538473.514   -17551026.19843 -13472673.30042  21538475.655    21538470.354
  23149252.453    -9742926.37843  -7455102.24242  23149253.453    23149250.970
  20781254.849   -25945990.65844 -20190540.20342  20781255.079    20781250.797
  22405502.997   -16107901.67143 -12526469.66642  22405504.252    22405498.566
 04  7 22  1 59  0.0000000  0  7G31G27G28G13G10G 8G19
  24383459.065    -6671102.87243  -5189029.42942  24383460.963    24383462.250
  20685238.380   -26561281.91044 -20669388.91742  20685239.845    20685235.481
  22337428.561   -15474919.41443 -12028968.75442  22337430.192    22337426.327
  21553451.973   -17472313.82443 -13411339.01042  21553454.099    21553448.870
  23150148.857    -9738216.10143  -7451431.90742  23150149.812    23150147.287
  20773379.332   -25987376.64244 -20222789.01242  20773379.586    20773375.284
  22403713.191   -16117307.32043 -12533798.72442  22403714.467    22403708.666
 04  7 22  1 59 30.0000000  0  7G31G27G28G13G10G 8G19
  24361388.228    -6787086.26043  -5279405.95442  24361389.884    24361390.943
  20684779.511   -26563692.76743 -20671267.50842  20684781.005    20684776.687
  22322678.304   -15552432.63943 -12089368.61542  22322679.986    22322675.963
  21568505.151   -17393209.40743 -13349699.23842  21568507.270    21568501.983
  23151154.130    -9732934.15143  -7447316.08542  23151155.048    23151152.277
  20765549.433   -26028522.82544 -20254850.96142  20765549.704    20765545.452
  22402030.857   -16126148.72243 -12540688.12342  22402032.108    22402026.202
 04  7 22  2  0  0.0000000  0  7G31G27G28G13G10G 8G19
  24339313.038    -6903094.60643  -5369801.91142  24339314.336    24339315.164
  20684362.062   -26565886.71444 -20672977.07842  20684363.497    20684359.154
  22307983.085   -15629656.33043 -12149542.86042  22307984.785    22307980.748
  21583631.990   -17313717.42943 -13287757.48342  21583634.161    21583628.753
  23152267.276    -9727084.25643  -7442757.72642  23152268.239    23152265.427
  20757764.601   -26069432.01344 -20286728.23642  20757764.874    20757760.641
  22400455.149   -16134428.53843 -12547139.92442  22400456.520    22400450.530
 04  7 22  2  0 30.0000000  0  7G31G27G28G13G10G 8G19
  24317234.129    -7019121.53143  -5460212.37142  24317235.644    24317235.740
  20683986.723   -26567859.45844 -20674514.29142  20683988.142    20683983.695
  22293343.800   -15706585.86543 -12209487.89342  22293345.508    22293341.503
  21598832.959   -17233836.01843 -13225512.26442  21598835.112    21598829.703
  23153488.891    -9720663.67143  -7437754.69242  23153489.906    23153487.271
  20750025.928   -26110099.37444 -20318417.08142  20750026.190    20750021.852
  22398987.031   -16142142.40943 -12553150.72042  22398988.451    22398982.587
 04  7 22  2  1  0.0000000  0  7G31G27G28G13G10G 8G19
  24295152.100    -7135162.35843  -5550633.64742  24295153.994    24295153.864
  20683653.892   -26569608.52644 -20675877.20042  20683655.321    20683650.905
  22278761.102   -15783218.47943 -12269201.57342  22278762.798    22278758.813
  21614108.157   -17153564.66143 -13162963.19242  21614110.287    21614104.986
  23154819.547    -9713670.95343  -7432305.83942  23154820.489    23154817.981
  20742333.607   -26150523.10344 -20349916.07842  20742333.864    20742329.518
  22397627.382   -16149287.38243 -12558718.22942  22397628.689    22397622.951
 04  7 22  2  1 30.0000000  0  7G31G27G28G13G10G 8G19
  24273067.212    -7251217.99843  -5641066.44442  24273069.316    24273069.146
  20683363.005   -26571136.96144 -20677068.19242  20683364.443    20683360.037
  22264234.266   -15859557.03443 -12328686.10642  22264236.036    22264232.098
  21629456.451   -17072908.58243 -13100114.33442  21629458.622    21629453.426
  23156258.358    -9706110.78043  -7426414.81742  23156259.318    23156256.512
  20734687.149   -26190705.52644 -20381227.05442  20734687.388    20734683.037
  22396375.312   -16155866.80343 -12563845.04942  22396376.538    22396370.858
 04  7 22  2  2  0.0000000  0  7G31G27G28G13G10G 8G19
  24250979.899    -7367286.36443  -5731509.15742  24250982.058    24250981.871
  20683114.171   -26572444.83644 -20678087.32242  20683115.603    20683111.157
  22249763.286   -15935601.10843 -12387941.17642  22249765.118    22249761.330
  21644877.520   -16991870.18743 -13036967.57342  21644879.657    21644874.559
  23157804.885    -9697984.46643  -7420082.65242  23157805.905    23157802.751
  20727086.516   -26230646.90844 -20412350.20642  20727086.741    20727082.441
  22395230.788   -16161880.60443 -12568531.11142  22395231.984    22395226.536
 04  7 22  2  2 30.0000000  0  7G31G27G28G13G10G 8G19
  24228890.611    -7483366.42843  -5821960.99742  24228892.777    24228892.009
  20682907.076   -26573533.39144 -20678935.54142  20682908.519    20682904.041
  22235348.157   -16011351.55643 -12446967.46142  22235349.969    22235346.341
  21660370.846   -16910452.69343 -12973525.41742  21660372.941    21660367.791
  23159458.481    -9689294.73543  -7413311.45942  23159459.473    23159456.340
  20719531.554   -26270348.38444 -20443286.41642  20719531.786    20719527.544
  22394193.903   -16167330.16943 -12572777.52242  22394194.999    22394189.486
 04  7 22  2  3  0.0000000  0  7G31G27G28G13G10G 8G19
  24206801.083    -7599448.04143  -5912414.09442  24206803.142    24206801.942
  20682743.176   -26574394.54444 -20679606.56442  20682744.636    20682740.128
  22220990.640   -16086800.25443 -12505758.61342  22220992.334    22220988.788
  21675937.419   -16828650.45043 -12909783.46742  21675939.530    21675934.251
  23161220.516    -9680035.00543  -7406096.08042  23161221.514    23161218.584
  20712023.901   -26309801.42444 -20474029.03742  20712024.158    20712019.817
  22393265.848   -16172207.40743 -12576577.94942  22393266.990    22393261.285
 04  7 22  2  3 30.0000000  0  7G31G27G28G13G10G 8G19
  24184710.050    -7715538.01643  -6002873.71342  24184711.908    24184710.469
  20682620.842   -26575037.30943 -20680107.42142  20682622.259    20682617.844
  22206689.176   -16161955.92443 -12564321.43442  22206690.745    22206687.103
  21691574.895   -16746474.79543 -12845750.52742  21691577.058    21691571.866
  23163089.145    -9670215.90743  -7398444.86542  23163090.045    23163087.411
  20704561.603   -26349015.79544 -20504585.68142  20704561.863    20704557.455
  22392444.867   -16176521.54743 -12579939.59942  22392446.141    22392440.236
 04  7 22  2  4  0.0000000  0  7G31G27G28G13G10G 8G19
  24162619.490    -7831624.51543  -6093330.62242  24162621.367    24162620.332
  20682541.842   -26575452.17644 -20680430.69142  20682543.275    20682538.934
  22192445.309   -16236808.57443 -12622648.11542  22192446.922    22192443.120
  21707284.895   -16663918.13643 -12781420.70242  21707287.036    21707281.917
  23165065.569    -9659829.15943  -7390351.31242  23165066.617    23165064.166
  20697146.771   -26387981.08644 -20534948.22542  20697147.009    20697142.608
  22391732.947   -16180262.72443 -12582854.78542  22391734.281    22391728.311
 04  7 22  2  4 30.0000000  0  7G31G27G28G13G10G 8G19
  24140529.760    -7947708.26143  -6183785.35742  24140531.497    24140530.543
  20682505.654   -26575641.95143 -20680578.57042  20682507.114    20682502.826
  22178258.565   -16311360.86143 -12680740.76742  22178260.198    22178256.246
  21723066.472   -16580985.67343 -12716798.04742  21723068.546    21723063.515
  23167149.349    -9648879.35043  -7381819.00042  23167150.355    23167147.842
  20689778.777   -26426700.21444 -20565118.95942  20689778.977    20689774.584
  22391129.355   -16183434.42943 -12585326.22542  22391130.660    22391124.773
 04  7 22  2  5  0.0000000  0  7G31G27G28G13G10G 8G19
  24118441.021    -8063785.32743  -6274234.87142  24118442.831    24118442.091
  20682512.630   -26575604.97643 -20680549.75742  20682514.069    20682509.866
  22164129.161   -16385611.08643 -12738598.03842  22164130.797    22164126.746
  21738919.248   -16497678.08343 -12651883.07742  21738921.321    21738916.441
  23169340.004    -9637366.47443  -7372847.94242  23169341.070    23169338.446
  20682457.889   -26465171.81844 -20595096.82142  20682458.081    20682453.682
  22390634.517   -16186034.80343 -12587352.46942  22390635.832    22390629.956
 04  7 22  2  5 30.0000000  0  7G31G27G28G13G10G 8G19
  24096353.075    -8179857.22943  -6364680.36842  24096354.990    24096354.391
  20682562.176   -26575344.85743 -20680347.06842  20682563.576    20682559.356
  22150056.574   -16459562.39743 -12796222.38842  22150058.292    22150054.018
  21754842.388   -16414001.13643 -12586680.30542  21754844.431    21754839.635
  23171636.947    -9625295.59943  -7363442.09542  23171638.022    23171635.299
  20675183.394   -26503399.43444 -20624884.56142  20675183.610    20675179.235
  22390247.714   -16188067.69243 -12588936.52842  22390248.985    22390243.137
 04  7 22  2  6  0.0000000  0  8G31G27G28G13G10G29G 8G19
  24074267.315    -8295917.46943  -6455116.76442  24074269.240    24074268.808
  20682654.857   -26574857.44443 -20679967.25742  20682656.298    20682652.113
  22136041.841   -16533210.20943 -12853610.24842  22136043.540    22136039.134
  21770836.288   -16329953.10243 -12521188.38242  21770838.294    21770833.508
  23174040.769    -9612663.99643  -7353599.31342  23174041.762    23174039.030
  24765049.547    -3271134.51453  -2199249.32452  24765051.564    24765048.689
  20667956.148   -26541378.45144 -20654478.58342  20667956.432    20667952.056
  22389969.534   -16189529.13043 -12590075.29942  22389970.811    22389965.120
 04  7 22  2  6 30.0000000  0  8G31G27G28G13G10G29G 8G19
  24052184.290    -8411963.69043  -6545542.25642  24052186.275    24052185.644
  20682790.981   -26574142.47043 -20679410.13542  20682792.392    20682788.085
  22122084.909   -16606554.34843 -12910761.48542  22122086.549    22122082.253
  21786900.236   -16245536.21243 -12455409.02742  21786902.249    21786897.569
  23176551.001    -9599473.16143  -7343320.74442  23176551.949    23176549.328
  24745777.847    -3372407.34843  -2278163.20442  24745779.953    24745777.237
  20660776.370   -26579108.55744 -20683878.64442  20660776.650    20660772.197
  22389800.178   -16190419.24643 -12590768.89542  22389801.425    22389795.705
 04  7 22  2  7  0.0000000  0  8G31G27G28G13G10G29G 8G19
  24030104.359    -8527992.98743  -6635954.55942  24030106.477    24030105.397
  20682970.437   -26573199.20843 -20678675.13342  20682971.876    20682967.539
  22108185.883   -16679593.96443 -12967675.43642  22108187.524    22108183.445
  21803034.137   -16160751.82943 -12389343.31542  21803036.187    21803031.518
  23179167.409    -9585723.95043  -7332607.07842  23179168.386    23179165.824
  24726521.635    -3473599.18543  -2357013.97742  24726523.697    24726521.093
  20653644.109   -26616589.07044 -20713084.22242  20653644.383    20653639.882
  22389739.707   -16190737.38943 -12591016.78642  22389740.898    22389735.095
 04  7 22  2  7 30.0000000  0  8G31G27G28G13G10G29G 8G19
  24008029.049    -8644000.46943  -6726349.86242  24008030.984    24008029.549
  20683193.817   -26572025.24843 -20677760.36242  20683195.259    20683190.954
  22094345.334   -16752326.42543 -13024350.02742  22094347.011    22094343.043
  21819238.124   -16075599.86843 -12322991.18942  21819240.193    21819235.396
  23181890.017    -9571415.76343  -7321457.86642  23181891.053    23181888.622
  24707281.489    -3574706.12043  -2435798.57742  24707283.642    24707281.063
  20646559.753   -26653817.34044 -20742093.24342  20646560.059    20646555.568
  22389788.405   -16190481.44343 -12590817.32342  22389789.629    22389783.780
 04  7 22  2  8  0.0000000  0  8G31G27G28G13G10G29G 8G19
  23985957.431    -8759988.11443  -6816729.73542  23985959.359    23985957.489
  20683460.464   -26570624.45643 -20676668.85042  20683461.867    20683457.523
  22080562.549   -16824755.47243 -13080788.19442  22080564.207    22080560.171
  21835510.847   -15990086.71043 -12256357.60542  21835512.889    21835508.045
  23184718.092    -9556554.22743  -7309877.48042  23184719.083    23184716.723
  24688057.075    -3675730.60243  -2514518.92242  24688059.295    24688056.862
  20639522.643   -26690797.07244 -20770908.60442  20639522.970    20639518.578
  22389945.496   -16189655.78843 -12590173.94742  22389946.713    22389940.844
 04  7 22  2  8 30.0000000  0  8G31G27G28G13G10G29G 8G19
  23963889.978    -8875952.64743  -6907091.57942  23963892.065    23963890.056
  20683770.344   -26568996.03443 -20675399.95242  20683771.763    20683767.426
  22066837.596   -16896879.92143 -13136989.02542  22066839.269    22066835.289
  21851851.984   -15904213.85243 -12189443.72942  21851854.091    21851849.252
  23187651.382    -9541140.48243  -7297866.78142  23187652.285    23187649.829
  24668849.092    -3776670.24543  -2593173.16642  24668851.282    24668848.619
  20632533.039   -26727527.67744 -20799529.83542  20632533.328    20632528.933
  22390211.176   -16188259.83443 -12589086.20542  22390212.360    22390206.470
 04  7 22  2  9  0.0000000  0  8G31G27G28G13G10G29G 8G19
  23941828.112    -8991886.01543  -6997429.12842  23941830.225    23941828.515
  20684124.671   -26567133.99343 -20673949.02242  20684126.087    20684121.798
  22053171.888   -16968693.75843 -13192947.82142  22053173.525    22053169.612
  21868262.271   -15817977.62243 -12122246.72242  21868264.448    21868259.596
  23190690.369    -9525169.86443  -7285422.15142  23190691.394    23190688.925
  24649658.681    -3877517.51343  -2671755.41742  24649660.854    24649657.954
  20625592.078   -26764002.75944 -20827951.96742  20625592.358    20625587.964
  22390586.372   -16186288.05043 -12587549.75142  22390587.577    22390581.763
 04  7 22  2  9 30.0000000  0  8G31G27G28G13G10G29G 8G19
  23919771.792    -9107789.87543  -7087743.69542  23919773.833    23919772.707
  20684522.716   -26565042.33843 -20672319.16442  20684524.102    20684519.849
  22039564.579   -17040200.75343 -13248667.50942  22039566.241    22039562.307
  21884740.497   -15731384.68043 -12054771.75442  21884742.675    21884737.605
  23193834.439    -9508648.13443  -7272548.09442  23193835.470    23193832.900
  24630485.190    -3978274.99843  -2750267.66942  24630487.294    24630484.298
  20618698.993   -26800226.15344 -20856177.97442  20618699.252    20618694.924
  22391070.337   -16183744.79643 -12585567.98942  22391071.510    22391065.817
 04  7 22  2 10  0.0000000  0  8G31G27G28G13G10G29G 8G19
  23897723.056    -9223656.36643  -7178029.13942  23897724.790    23897724.023
  20684965.479   -26562715.37243 -20670505.94942  20684966.860    20684962.621
  22026016.664   -17111395.28043 -13304143.71642  22026018.411    22026014.242
  21901287.141   -15644431.16243 -11987015.82142  21901289.347    21901284.177
  23197084.007    -9491571.59643  -7259241.71542  23197085.071    23197082.286
  24611330.029    -4078935.48943  -2828704.35442  24611332.151    24611329.088
  20611854.745   -26836192.39944 -20884203.60842  20611855.047    20611850.772
  22391663.912   -16180624.90643 -12583136.91542  22391665.148    22391659.576
 04  7 22  2 10 30.0000000  0  8G31G27G28G13G10G29G 8G19
  23875680.568    -9339489.37843  -7268288.51142  23875682.378    23875681.620
  20685451.883   -26560159.34743 -20668514.24642  20685453.249    20685449.032
  22012527.152   -17182283.09943 -13359380.90942  22012528.930    22012524.481
  21917900.732   -15557126.17843 -11918986.01842  21917902.948    21917897.752
  23200437.601    -9473948.48243  -7245509.43742  23200438.603    23200435.735
  24592192.453    -4179503.39643  -2907068.89842  24592194.488    24592191.586
  20605058.423   -26871907.40344 -20912033.47042  20605058.756    20605054.329
  22392366.025   -16176934.83543 -12580261.51842  22392367.280    22392361.767
 04  7 22  2 11  0.0000000  0  8G31G27G28G13G10G29G 8G19
  23853646.261    -9455279.54943  -7358514.45442  23853648.088    23853647.379
  20685983.195   -26557366.94443 -20666338.35542  20685984.590    20685980.439
  21999097.260   -17252857.23643 -13414373.67842  21999099.046    21999094.509
  21934582.114   -15469465.06943 -11850678.69642  21934584.315    21934579.295
  23203896.180    -9455773.64743  -7231347.22742  23203897.145    23203894.165
  24573074.072    -4279970.22443  -2985354.66142  24573076.111    24573073.367
  20598311.131   -26907364.56744 -20939662.40742  20598311.421    20598307.080
  22393177.996   -16172668.03343 -12576936.74342  22393179.188    22393173.636
 04  7 22  2 11 30.0000000  0  8G31G27G28G13G10G29G 8G19
  23831619.260    -9571032.09843  -7448711.12042  23831621.069    23831620.312
  20686558.117   -26554345.77143 -20663984.20042  20686559.489    20686555.416
  21985725.618   -17323125.04343 -13469127.78342  21985727.420    21985722.991
  21951329.335   -15381457.51443 -11782101.43042  21951331.530    21951326.656
  23207457.966    -9437056.31643  -7216762.32342  23207458.919    23207455.962
  24553973.958    -4380341.83043  -3063566.24542  24553976.043    24553973.183
  20591611.789   -26942570.13544 -20967095.31342  20591612.031    20591607.696
  22394098.279   -16167832.37643 -12573168.68942  22394099.395    22394093.820
 04  7 22  2 12  0.0000000  0  8G31G27G28G13G10G29G 8G19
  23809601.033    -9686736.93743  -7538870.61542  23809602.923    23809602.412
  20687178.137   -26551087.84843 -20661445.56142  20687179.493    20687175.356
  21972413.896   -17393078.58143 -13523636.98842  21972415.614    21972411.243
  21968143.579   -15293098.01443 -11713249.92442  21968145.762    21968140.896
  23211124.127    -9417790.50543  -7201750.03842  23211125.131    23211122.276
  24534893.894    -4480608.77443  -3141696.26842  24534895.924    24534893.071
  20584961.701   -26977516.53344 -20994326.26442  20584961.950    20584957.645
  22395128.245   -16162420.55543 -12568951.67742  22395129.323    22395123.658
 04  7 22  2 12 30.0000000  0  8G31G27G28G13G10G29G 8G19
  23787592.564    -9802391.22543  -7628990.72642  23787594.283    23787594.379
  20687843.246   -26547592.63144 -20658722.01942  20687844.635    20687840.479
  21959162.263   -17462717.07643 -13577900.68542  21959163.890    21959159.298
  21985024.462   -15204388.71743 -11644125.85042  21985026.583    21985021.834
  23214894.462    -9397977.48243  -7186311.35142  23214895.550    23214892.818
  24515834.111    -4580769.11543  -3219743.21742  24515836.024    24515833.232
  20578360.955   -27012203.65344 -21021355.17542  20578361.211    20578356.911
  22396267.669   -16156432.69143 -12564285.79842  22396268.747    22396263.142
 04  7 22  2 13  0.0000000  0  8G31G27G28G13G10G29G 8G19
  23765593.233    -9917998.48243  -7719074.21942  23765594.872    23765595.049
  20688552.462   -26543866.02844 -20655818.17342  20688553.830    20688549.610
  21945969.120   -17532046.47143 -13631923.53242  21945970.848    21945966.215
  22001970.228   -15115337.88643 -11574735.62842  22001972.352    22001967.846
  23218767.377    -9377625.16243  -7170452.40342  23218768.517    23218765.948
  24496793.751    -4680827.08243  -3297710.37742  24496795.589    24496792.857
  20571808.531   -27046636.86444 -21048186.24542  20571808.789    20571804.461
  22397515.392   -16149875.03543 -12559175.93442  22397516.537    22397511.088
 04  7 22  2 13 30.0000000  0  8G31G27G28G13G10G29G 8G19
  23743604.566   -10033550.48343  -7809114.62442  23743605.969    23743606.276
  20689306.737   -26539902.04943 -20652729.35942  20689308.155    20689303.910
  21932836.054   -17601060.56443 -13685700.70142  21932837.779    21932833.347
  22018981.759   -15025941.90443 -11505076.47142  22018983.872    22018979.477
  23222743.760    -9356729.49343  -7154170.09542  23222744.947    23222742.259
  24477774.146    -4780775.03943  -3375591.81642  24477776.051    24477773.468
  20565305.523   -27080809.86844 -21074814.55442  20565305.811    20565301.578
  22398872.712   -16142742.12243 -12553617.83142  22398873.917    22398868.441
 04  7 22  2 14  0.0000000  0  8G31G27G28G13G10G29G 8G19
  23721626.891   -10149043.78443  -7899109.28742  23721628.473    23721628.359
  20690106.472   -26535699.46044 -20649454.61942  20690107.889    20690103.621
  21919763.339   -17669758.39443 -13739231.44042  21919764.944    21919760.698
  22036058.847   -14936202.35943 -11435149.61842  22036060.891    22036056.237
  23226823.395    -9335291.58743  -7137465.26542  23226824.500    23226821.685
  24458775.971    -4880610.20643  -3453385.38742  24458777.967    24458775.446
  20558852.375   -27114721.37044 -21101239.10042  20558852.664    20558848.448
  22400339.479   -16135033.66543 -12547611.24942  22400340.673    22400335.238
 04  7 22  2 14 30.0000000  0  8G31G27G28G13G10G29G 8G19
  23699660.892   -10264476.64343  -7989056.85942  23699662.523    23699661.783
  20690951.508   -26531258.70943 -20645994.29542  20690952.970    20690948.680
  21906750.598   -17738140.07343 -13792515.80042  21906752.279    21906748.029
  22053200.677   -14846122.01943 -11364957.20042  22053202.728    22053197.750
  23231005.627    -9313313.58843  -7120339.56242  23231006.571    23231003.913
  24439799.533    -4980331.24843  -3531090.01642  24439801.705    24439799.146
  20552448.921   -27148371.82844 -21127460.22542  20552449.146    20552444.935
  22401915.746   -16126750.60343 -12541156.91042  22401916.918    22401911.425
 04  7 22  2 15  0.0000000  0  8G31G27G28G13G10G29G 8G19
  23677706.448   -10379849.22643  -8078957.46642  23677708.162    23677706.687
  20691841.323   -26526582.30343 -20642350.34442  20691842.789    20691838.503
  21893797.658   -17806208.21343 -13845555.84642  21893799.275    21893794.835
  22070406.285   -14755705.75543 -11294503.02242  22070408.335    22070403.432
  23235289.592    -9290799.96243  -7102796.49642  23235290.436    23235288.270
  24420844.606    -5079939.49543  -3608706.75042  24420846.814    24420844.246
  20546094.698   -27181763.63744 -21153479.80642  20546094.915    20546090.612
  22403600.702   -16117896.14043 -12534257.30042  22403601.861    22403596.247
 04  7 22  2 15 30.0000000  0  8G31G27G28G13G10G29G 8G19
  23655764.708   -10495152.99843  -8168804.45742  23655766.609    23655764.711
  20692777.261   -26521664.06443 -20638517.95342  20692778.711    20692774.376
  21880905.412   -17873956.55743 -13898346.69642  21880907.115    21880902.602
  22087676.509   -14664950.12443 -11223784.39742  22087678.606    22087673.932
  23239676.374    -9267746.86743  -7084833.07742  23239677.200    23239675.206
  24401912.661    -5179426.98543  -3686229.36542  24401914.744    24401912.449
  20539790.840   -27214890.48844 -21179292.93342  20539791.083    20539786.743
  22405395.420   -16108464.67043 -12526908.09042  22405396.586    22405390.856
 04  7 22  2 16  0.0000000  0  8G31G27G28G13G10G29G 8G19
  23633836.123   -10610388.43243  -8258598.20442  23633838.016    23633835.859
  20693758.740   -26516506.68743 -20634499.22442  20693760.147    20693755.821
  21868073.654   -17941388.00343 -13950890.60942  21868075.357    21868070.929
  22105010.402   -14573860.43843 -11152805.47542  22105012.465    22105007.757
  23244165.081    -9244159.25743  -7066453.14842  23244165.946    23244163.802
  24383003.458    -5278794.88643  -3763658.82442  24383005.450    24383003.100
  20533537.002   -27247754.94244 -21204901.59442  20533537.219    20533532.833
  22407299.134   -16098460.02743 -12519112.26842  22407300.343    22407294.635
 04  7 22  2 16 30.0000000  0  8G31G27G28G13G10G29G 8G19
  23611920.543   -10725554.77343  -8348338.12742  23611922.446    23611920.176
  20694785.381   -26511111.52643 -20630295.20442  20694786.801    20694782.506
  21855301.929   -18008504.07143 -14003188.78642  21855303.592    21855299.237
  22122407.142   -14482440.70943 -11081569.38842  22122409.153    22122404.213
  23248754.960    -9220040.62843  -7047659.44642  23248755.861    23248753.422
  24364116.920    -5378043.05443  -3840994.97242  24364118.965    24364116.642
  20527332.736   -27280358.80644 -21230307.19242  20527332.927    20527328.551
  22409311.664   -16087884.39543 -12510871.52242  22409312.808    22409307.207
 04  7 22  2 17  0.0000000  0  8G31G27G28G13G10G29G 8G19
  23590020.155   -10840641.68743  -8438016.14742  23590021.973    23590019.643
  20695858.834   -26505470.67943 -20625899.74242  20695860.229    20695855.946
  21842591.563   -18075296.49843 -14055234.76942  21842593.292    21842588.956
  22139867.544   -14390685.44243 -11010071.83442  22139869.540    22139864.433
  23253446.702    -9195385.19143  -7028447.45342  23253447.685    23253445.154
  24345255.094    -5477161.80743  -3918230.30342  24345257.242    24345254.822
  20521179.626   -27312693.70544 -21255503.21542  20521179.838    20521175.405
  22411434.094   -16076730.31943 -12502180.01742  22411435.339    22411429.825
 04  7 22  2 17 30.0000000  0  8G31G27G28G13G10G29G 8G19
  23568133.928   -10955654.23143  -8527636.24042  23568135.728    23568133.091
  20696977.598   -26499591.51544 -20621318.57542  20696979.003    20696974.798
  21829941.556   -18141772.74543 -14107034.37342  21829943.209    21829938.840
  22157389.897   -14298604.17843 -10938320.24142  22157391.944    22157386.970
  23258238.922    -9170202.32143  -7008824.49042  23258239.796    23258237.341
  24326417.016    -5576156.88843  -3995369.24142  24326419.324    24326416.488
  20515076.349   -27344766.46544 -21280494.97242  20515076.584    20515072.176
  22413665.253   -16065006.03143 -12493044.19942  22413666.436    22413660.922
 04  7 22  2 18  0.0000000  0  8G31G27G28G13G10G29G 8G19
  23546263.078   -11070586.66143  -8617193.89142  23546264.892    23546261.817
  20698142.352   -26493470.67844 -20616549.09242  20698143.750    20698139.571
  21817352.336   -18207929.61143 -14158585.12242  21817354.005    21817349.618
  22174974.457   -14206196.82943 -10866314.56042  22174976.519    22174971.652
  23263131.652    -9144490.84943  -6988789.64542  23263132.457    23263130.182
  24307603.409    -5675023.36143  -4072407.98842  24307605.680    24307602.629
  20509023.528   -27376573.74844 -21305279.87242  20509023.794    20509019.428
  22416005.397   -16052709.00343 -12483462.08842  22416006.506    22416001.014
 04  7 22  2 18 30.0000000  0  8G31G27G28G13G10G29G 8G19
  23524408.269   -11185433.86243  -8706685.12942  23524410.112    23524407.023
  20699353.708   -26487105.03544 -20611588.85542  20699355.118    20699350.908
  21804824.301   -18273764.35043 -14209884.86542  21804825.991    21804821.673
  22192621.330   -14113462.91443 -10794054.42242  22192623.339    22192618.500
  23268125.017    -9118250.30043  -6968342.50442  23268125.823    23268123.577
  24288814.978    -5773756.84243  -4149343.09642  24288817.508    24288814.267
  20503021.810   -27408113.15344 -21329856.02942  20503022.040    20503017.636
  22418454.901   -16039837.23343 -12473432.14542  22418455.841    22418450.424
 04  7 22  2 19  0.0000000  0  8G31G27G28G13G10G29G 8G19
  23502569.637   -11300195.71843  -8796109.85742  23502571.544    23502568.661
  20700611.226   -26480496.96244 -20606439.71342  20700612.635    20700608.396
  21792357.186   -18339279.22643 -14260935.36042  21792358.882    21792354.442
  22210329.336   -14020407.05243 -10721543.43742  22210331.349    22210326.460
  23273218.219    -9091485.08543  -6947486.50142  23273218.960    23273216.826
  24270051.903    -5872357.74843  -4226174.90942  24270054.505    24270050.987
  20497070.704   -27439386.27844 -21354224.68442  20497070.945    20497066.563
  22421013.028   -16026393.90543 -12462956.80642  22421014.017    22421008.481
 04  7 22  2 19 30.0000000  0  8G31G27G28G13G10G29G 8G19
  23480748.099   -11414868.23543  -8885464.97142  23480749.964    23480747.204
  20701915.098   -26473644.87944 -20601100.43342  20701916.506    20701912.288
  21779951.437   -18404472.38143 -14311735.15342  21779953.127    21779948.491
  22228098.293   -13927030.27243 -10648782.36442  22228100.405    22228095.435
  23278411.221    -9064195.83943  -6926222.16342  23278412.089    23278409.749
  24251314.622    -5970823.00443  -4302901.00542  24251317.140    24251313.565
  20491170.691   -27470391.26244 -21378384.40942  20491170.913    20491166.455
  22423680.076   -16012378.15843 -12452035.45742  22423681.100    22423675.505
 04  7 22  2 20  0.0000000  0  8G31G27G28G13G10G29G 8G19
  23458944.735   -11529444.95343  -8974745.42042  23458946.582    23458944.085
  20703266.266   -26466544.50144 -20595567.68242  20703267.668    20703263.456
  21767607.488   -18469340.00343 -14362281.31142  21767609.205    21767604.628
  22245928.748   -13833331.15243 -10575770.12742  22245930.824    22245925.883
  23283704.468    -9036380.61643  -6904548.02542  23283705.400    23283702.734
  24232604.153    -6069146.53743  -4379516.66342  24232606.576    24232603.004
  20485322.442   -27501123.61244 -21402331.68642  20485322.667    20485318.207
  22426456.718   -15997786.86743 -12440665.60942  22426457.908    22426452.135
 04  7 22  2 20 30.0000000  0  8G31G27G28G13G10G29G 8G19
  23437158.529   -11643931.96943  -9063955.98242  23437160.240    23437157.814
  20704663.078   -26459204.25044 -20589848.01542  20704664.455    20704660.291
  21755323.795   -18533890.57743 -14412580.41542  21755325.525    21755321.074
  22263818.480   -13739320.68043 -10502515.25242  22263820.576    22263815.742
  23289095.568    -9008050.26043  -6882472.49342  23289096.593    23289093.752
  24213919.217    -6167335.09743  -4456027.15242  24213921.622    24213918.120
  20479524.582   -27531591.95244 -21426073.24142  20479524.775    20479520.310
  22429341.069   -15982629.52643 -12428854.67642  22429342.288    22429336.522
 04  7 22  2 21  0.0000000  0  8G31G27G28G13G10G29G 8G19
  23415392.182   -11758313.24643  -9153084.14642  23415393.998    23415391.583
  20706108.129   -26451610.52443 -20583930.83142  20706109.497    20706105.369
  21743103.160   -18598110.36843 -14462621.74042  21743104.852    21743100.318
  22281769.520   -13644987.60643 -10429009.00342  22281771.680    22281766.990
  23294586.673    -8979193.53143  -6859986.76942  23294587.660    23294584.965
  24195263.033    -6265373.64743  -4532420.74542  24195265.327    24195261.997
  20473779.413   -27561782.47744 -21449598.32242  20473779.623    20473775.247
  22432335.476   -15966893.09843 -12416592.51242  22432336.849    22432331.191
 04  7 22  2 21 30.0000000  0  8G31G27G28G13G10G29G 8G19
  23393644.689   -11872596.27943  -9242135.75242  23393646.524    23393644.040
  20707599.575   -26443772.92444 -20577823.61542  20707600.921    20707596.779
  21730943.523   -18662009.58043 -14512413.26542  21730945.203    21730940.536
  22299779.531   -13550344.57243 -10355261.22742  22299781.647    22299777.076
  23300175.857    -8949822.47743  -6837100.26642  23300176.639    23300174.133
  24176633.986    -6363270.05343  -4608703.58242  24176636.170    24176632.837
  20468085.443   -27591704.58844 -21472914.25842  20468085.656    20468081.270
  22435438.151   -15950588.48443 -12403887.62442  22435439.429    22435433.854
 04  7 22  2 22  0.0000000  0  8G31G27G28G13G10G29G 8G19
  23371917.071   -11986776.21943  -9331107.03242  23371918.772    23371916.198
  20709137.911   -26435688.87243 -20571524.35442  20709139.265    20709135.074
  21718845.432   -18725585.47743 -14561952.87742  21718847.091    21718842.482
  22317848.437   -13455391.87043 -10281272.15042  22317850.565    22317845.848
  23305863.065    -8919936.93643  -6813812.88642  23305863.844    23305861.199
  24158032.728    -6461020.18943  -4684872.44542  24158034.874    24158031.530
  20462443.015   -27621355.76044 -21496019.06042  20462443.224    20462438.840
  22438648.801   -15933714.35943 -12390738.95642  22438650.235    22438644.835
 04  7 22  2 22 30.0000000  0  8G31G27G28G13G10G29G 8G19
  23350209.956   -12100847.61043  -9419993.74842  23350211.724    23350209.255
  20710723.684   -26427355.49043 -20565030.81042  20710725.026    20710720.839
  21706809.489   -18788835.26843 -14611238.39342  21706811.135    21706806.519
  22335976.321   -13360128.63943 -10207041.11242  22335978.559    22335973.653
  23311648.232    -8889536.13043  -6790123.99042  23311649.038    23311646.453
  24139460.311    -6558619.47143  -4760923.76242  24139462.288    24139459.007
  20456852.768   -27650732.89444 -21518910.32842  20456852.938    20456848.501
  22441968.869   -15916268.52443 -12377144.79542  22441970.043    22441964.690
 04  7 22  2 23  0.0000000  0  8G31G27G28G13G10G29G 8G19
  23328524.232   -12214806.24543  -9508792.56942  23328526.017    23328523.801
  20712357.368   -26418770.68244 -20558341.35542  20712358.692    20712354.459
  21694835.769   -18851757.40743 -14660268.56042  21694837.444    21694832.738
  22354163.302   -13264556.03043 -10132569.01442  22354165.514    22354160.493
  23317531.101    -8858620.56343  -6766033.98242  23317532.006    23317529.740
  24120917.134    -6656064.22143  -4836854.66442  24120919.125    24120915.950
  20451314.998   -27679833.92544 -21541586.45242  20451315.225    20451310.729
  22445397.777   -15898250.23443 -12363104.56342  22445398.947    22445393.438
 04  7 22  2 23 30.0000000  0  8G31G27G28G13G10G29G 8G19
  23306859.029   -12328656.51043  -9597506.95142  23306860.807    23306858.910
  20714037.552   -26409941.17343 -20551461.21942  20714038.875    20714034.633
  21682923.094   -18914358.25243 -14709048.39542  21682924.811    21682920.038
  22372407.350   -13168683.35043 -10057863.08842  22372409.543    22372404.615
  23323510.266    -8827199.60643  -6741550.12242  23323511.168    23323509.156
  24102402.410    -6753359.45243  -4912669.06342  24102404.322    24102401.397
  20445828.509   -27708665.51844 -21564052.61242  20445828.698    20445824.245
  22448934.066   -15879667.26943 -12348624.31742  22448935.246    22448929.566
 04  7 22  2 24  0.0000000  0  8G31G27G28G13G10G29G 8G19
  23285217.190   -12442384.47943  -9686126.03542  23285218.941    23285217.262
  20715766.531   -26400855.48643 -20544381.46842  20715767.856    20715763.543
  21671073.757   -18976626.90743 -14757569.39342  21671075.459    21671070.655
  22390710.007   -13072501.85343  -9982916.52342  22390712.204    22390707.498
  23329587.421    -8795264.13743  -6716665.36142  23329588.259    23329586.402
  24083918.521    -6850491.90943  -4988356.62342  24083920.431    24083917.740
  20440395.572   -27737215.61744 -21586299.44042  20440395.765    20440391.305
  22452579.767   -15860509.46443 -12333696.14642  22452580.960    22452575.237
 04  7 22  2 24 30.0000000  0  8G31G27G28G13G10G29G 8G19
  23263597.480   -12555997.51043  -9774655.57742  23263599.268    23263597.300
  20717542.364   -26391523.25343 -20537109.60242  20717543.693    20717539.416
  21659285.686   -19038573.07643 -14805839.09542  21659287.418    21659282.696
  22409069.222   -12976023.93143  -9907738.97342  22409071.409    22409066.658
  23335760.210    -8762826.50843  -6691389.33842  23335761.056    23335759.119
  24065464.190    -6947469.63343  -5063923.63042  24065466.018    24065463.437
  20435014.304   -27765494.25144 -21608334.72942  20435014.490    20435010.124
  22456332.764   -15840787.42543 -12318328.33542  22456333.971    22456328.267
 04  7 22  2 25  0.0000000  0  8G31G27G28G13G10G29G 8G19
  23242001.718   -12669484.83143  -9863087.15542  23242003.452    23242001.148
  20719366.823   -26381935.99243 -20529639.01442  20719368.119    20719363.822
  21647560.551   -19100188.42843 -14853851.03142  21647562.217    21647557.553
  22427486.055   -12879243.71243  -9832325.87942  22427488.285    22427483.407
  23342029.714    -8729880.27843  -6665717.00142  23342030.572    23342028.591
  24047041.213    -7044282.37243  -5139362.05942  24047043.123    24047040.571
  20429686.454   -27793492.41644 -21630151.47042  20429686.641    20429682.282
  22460194.414   -15820493.91343 -12302515.21542  22460195.628    22460189.964
 04  7 22  2 25 30.0000000  0  8G31G27G28G13G10G29G 8G19
  23220429.950   -12782844.98543  -9951419.66842  23220431.711    23220429.231
  20721239.500   -26372094.58443 -20521970.38542  20721240.859    20721236.557
  21635898.217   -19161474.29443 -14901606.20342  21635899.860    21635894.978
  22445959.553   -12782164.81843  -9756680.04542  22445961.835    22445956.866
  23348395.225    -8696429.30843  -6639651.37442  23348396.117    23348394.086
  24028649.610    -7140929.57343  -5214671.48942  24028651.705    24028649.164
  20424411.793   -27821210.83944 -21651750.22842  20424411.998    20424407.558
  22464164.170   -15799631.19343 -12286258.57742  22464165.539    22464159.994
 04  7 22  2 26  0.0000000  0  8G31G27G28G13G10G29G 8G19
  23198882.255   -12896077.80443 -10039652.95642  23198884.027    23198881.497
  20723160.237   -26362001.22243 -20514105.43342  20723161.577    20723157.247
  21624298.288   -19222432.93243 -14949106.40042  21624299.900    21624294.936
  22464489.124   -12684791.93243  -9680805.12442  22464491.296    22464486.476
  23354855.901    -8662478.32043  -6613196.10342  23354856.844    23354854.813
  24010289.492    -7237411.69143  -5289852.29442  24010291.690    24010289.115
  20419189.937   -27848651.91944 -21673132.88442  20419190.156    20419185.670
  22468242.047   -15778202.54543 -12269560.94242  22468243.171    22468237.740
 04  7 22  2 26 30.0000000  0  8G31G27G28G13G10G29G 8G19
  23177359.245   -13009181.32743 -10127785.48142  23177360.974    23177358.389
  20725128.794   -26351656.30343 -20506044.46242  20725130.130    20725125.892
  21612760.363   -19283064.90743 -14996352.08442  21612761.955    21612757.260
  22483073.735   -12587128.70643  -9604703.94742  22483075.882    22483071.338
  23361411.265    -8628030.32843  -6586353.53642  23361412.305    23361410.194
  23991961.154    -7333727.43043  -5364903.43542  23991963.427    23991960.703
  20414020.878   -27875815.47944 -21694299.28942  20414021.098    20414016.634
  22472427.149   -15756209.61243 -12252423.60742  22472428.291    22472422.897
 04  7 22  2 27  0.0000000  0  8G31G27G28G13G10G29G 8G19
  23155862.232   -13122148.84743 -10215812.03042  23155863.865    23155861.338
  20727146.046   -26341055.48443 -20497784.08042  20727147.379    20727143.169
  21601285.380   -19343366.19143 -15043340.08542  21601286.926    21601282.425
  22501714.042   -12489173.48443  -9528375.26542  22501716.150    22501711.715
  23368061.348    -8593083.46043  -6559122.21042  23368062.427    23368060.510
  23973665.698    -7429870.58243  -5439820.10942  23973667.979    23973665.162
  20408905.418   -27902697.19144 -21715246.07342  20408905.662    20408901.211
  22476720.299   -15733649.42843 -12234844.25542  22476721.353    22476715.956
 04  7 22  2 27 30.0000000  0  8G31G27G28G13G10G29G 8G19
  23134391.034   -13234978.04943 -10303730.79242  23134392.796    23134390.671
  20729211.972   -26330198.68243 -20489324.24142  20729213.339    20729209.155
  21589873.424   -19403337.08643 -15090070.62142  21589874.912    21589870.204
  22520409.398   -12390928.67443  -9451820.91842  22520411.535    22520407.060
  23374805.820    -8557640.33743  -6531504.23042  23374806.823    23374805.047
  23955403.443    -7525839.51443  -5514601.02342  23955405.731    23955402.661
  20403843.581   -27929297.05544 -21735973.23442  20403843.823    20403839.440
  22481121.194   -15710523.19443 -12216823.82742  22481122.281    22481116.746
 04  7 22  2 28  0.0000000  0  8G31G27G28G13G10G29G 8G19
  23112947.172   -13347665.22943 -10391538.89342  23112948.926    23112947.012
  20731326.909   -26319084.71044 -20480664.00242  20731328.281    20731324.066
  21578524.405   -19462976.50843 -15136542.86742  21578525.967    21578521.075
  22539159.469   -12292396.13343  -9375042.38042  22539161.615    22539157.101
  23381644.460    -8521702.48443  -6503500.74642  23381645.441    23381643.515
  23937174.996    -7621631.30243  -5589243.93842  23937177.093    23937173.962
  20398835.735   -27955613.68844 -21756479.70142  20398835.978    20398831.551
  22485629.509   -15686831.21143 -12198362.54942  22485630.738    22485625.214
 04  7 22  2 28 30.0000000  0  8G31G27G28G13G10G29G 8G19
  23091530.433   -13460211.71543 -10479237.35242  23091532.030    23091530.181
  20733490.056   -26307717.34444 -20471806.32342  20733491.444    20733487.182
  21567237.578   -19522288.52043 -15182760.02442  21567239.153    21567234.453
  22557963.397   -12193582.09243  -9298044.48242  22557965.480    22557960.756
  23388576.301    -8485276.10543  -6475116.61042  23388577.358    23388575.113
  23918979.685    -7717248.08243  -5663750.47242  23918981.781    23918978.692
  20393881.055   -27981650.47144 -21776768.09342  20393881.288    20393876.899
  22490244.669   -15662578.31043 -12179464.19542  22490245.909    22490240.382
 04  7 22  2 29  0.0000000  0  8G31G27G28G13G10G29G 8G19
  23070141.993   -13572609.16543 -10566819.68942  23070143.519    23070141.595
  20735702.606   -26296090.43544 -20462746.40442  20735703.989    20735699.664
  21556014.229   -19581267.11043 -15228717.34842  21556015.819    21556011.331
  22576821.341   -12094483.36643  -9220824.76742  22576823.448    22576818.809
  23395601.711    -8448357.74543  -6446349.10342  23395602.755    23395600.501
  23900819.223    -7812681.85543  -5738114.40742  23900821.218    23900818.307
  20388980.898   -28007401.35144 -21796833.71242  20388981.086    20388976.689
  22494967.459   -15637760.06243 -12160125.31342  22494968.697    22494963.062
 04  7 22  2 29 30.0000000  0  8G31G27G28G13G10G29G 8G19
  23048781.735   -13684857.89743 -10654286.14342  23048783.285    23048781.264
  20737964.014   -26284206.62644 -20453486.29942  20737965.391    20737961.116
  21544853.831   -19639915.45143 -15274417.29742  21544855.407    21544850.720
  22595732.330   -11995105.80343  -9143387.76842  22595734.411    22595729.826
  23402719.671    -8410952.89343  -6417202.49942  23402720.584    23402718.366
  23882693.437    -7907933.71443  -5812336.59042  23882695.284    23882692.494
  20384134.581   -28032868.71744 -21816678.40442  20384134.785    20384130.433
  22499797.000   -15612380.33643 -12140348.91242  22499798.210    22499792.630
 04  7 22  2 30  0.0000000  0  8G31G27G28G13G10G29G 8G19
  23027450.573   -13796953.76143 -10741633.48042  23027452.184    23027450.079
  20740274.620   -26272064.13443 -20444024.63142  20740275.998    20740271.770
  21533756.433   -19698232.10143 -15319858.79942  21533758.042    21533753.103
  22614696.143   -11895449.94843  -9065733.91042  22614698.244    22614693.770
  23409930.026    -8373062.61143  -6387677.63642  23409930.856    23409928.614
  23864602.980    -8003000.07243  -5886414.23842  23864604.840    23864601.917
  20379342.619   -28058050.69244 -21836300.71642  20379342.826    20379338.464
  22504733.546   -15586438.97643 -12120134.87542  22504734.715    22504729.142
 04  7 22  2 30 30.0000000  0  8G31G27G28G13G10G29G 8G19
  23006148.860   -13908894.34543 -10828859.81842  23006150.478    23006148.218
  20742634.481   -26259662.99943 -20434361.41642  20742635.847    20742631.600
  21522722.189   -19756217.27543 -15365042.02942  21522723.813    21522718.869
  22633712.302   -11795518.72443  -8987865.47242  22633714.383    22633710.122
  23417232.295    -8334689.55543  -6357776.58442  23417233.043    23417230.679
  23846548.160    -8097879.16343  -5960345.96542  23846550.045    23846546.919
  20374604.989   -28082947.27844 -21855700.64642  20374605.167    20374600.770
  22509776.734   -15559937.17243 -12099484.13342  22509777.861    22509772.286
 04  7 22  2 31  0.0000000  0  8G31G27G28G13G10G29G 8G19
  22984877.962   -14020673.00043 -10915959.97342  22984879.593    22984877.171
  20745044.388   -26246998.90044 -20424493.29442  20745045.758    20745041.531
  21511751.792   -19813867.02443 -15409963.88042  21511753.427    21511748.610
  22652781.096   -11695310.58143  -8909781.27142  22652783.165    22652779.089
  23424626.537    -8295832.17443  -6327498.12942  23424627.327    23424625.030
  23828530.073    -8192565.01243  -6034127.12142  23828531.951    23828528.708
  20369922.543   -28107553.45244 -21874874.28242  20369922.745    20369918.331
  22514927.026   -15532872.19943 -12078394.56642  22514928.152    22514922.565
 04  7 22  2 31 30.0000000  0  8G31G27G28G13G10G29G 8G19
  22963637.489   -14132291.98343 -11002935.71042  22963639.071    22963636.501
  20747503.470   -26234076.39844 -20414423.82342  20747504.840    20747500.600
  21500844.212   -19871186.22543 -15454628.16542  21500845.830    21500841.119
  22671901.372   -11594833.05643  -8831487.16142  22671903.355    22671899.388
  23432111.544    -8256497.82943  -6296848.04242  23432112.422    23432110.181
  23810548.286    -8287060.37643  -6107759.83842  23810550.097    23810546.775
  20365294.430   -28131874.14044 -21893825.45942  20365294.639    20365290.274
  22520183.286   -15505250.24143 -12056870.97842  22520184.402    22520178.896
 04  7 22  2 32  0.0000000  0  8G31G27G28G13G10G29G 8G19
  22942429.309   -14243742.18943 -11089779.93642  22942430.802    22942428.012
  20750012.997   -26220888.87244 -20404147.83542  20750014.357    20750010.107
  21490000.780   -19928168.45943 -15499029.86142  21490002.357    21489997.609
  22691073.831   -11494082.17843  -8752980.06942  22691075.741    22691071.732
  23439688.300    -8216682.73443  -6265823.34542  23439689.091    23439686.823
  23792604.173    -8381357.22143  -6181237.85942  23792605.966    23792602.728
  20360721.976   -28155902.54844 -21912548.88242  20360722.174    20360717.784
  22525546.536   -15477065.96943 -12034909.21742  22525547.640    22525542.194
 04  7 22  2 32 30.0000000  0  8G31G27G28G13G10G29G 8G19
  22921252.043   -14355030.11043 -11176497.70842  22921253.622    22921250.747
  20752571.323   -26207445.00444 -20393672.09942  20752572.670    20752568.414
  21479219.899   -19984823.03643 -15543176.24042  21479221.468    21479216.634
  22710296.040   -11393069.65743  -8674269.08442  22710297.912    22710294.043
  23447354.203    -8176398.20743  -6234432.83842  23447355.032    23447352.666
  23774696.524    -8475462.26043  -6254566.41342  23774698.307    23774695.087
  20356203.542   -28179646.99844 -21931051.04842  20356203.744    20356199.345
  22531014.754   -15448329.83443 -12012517.43642  22531015.902    22531010.521
 04  7 22  2 33  0.0000000  0  8G31G27G28G13G10G29G 8G19
  22900108.356   -14466140.44643 -11263077.10542  22900110.005    22900107.389
  20755180.834   -26193732.11044 -20382986.73642  20755182.163    20755177.917
  21468503.651   -20041137.29643 -15587057.45242  21468505.275    21468500.515
  22729569.771   -11291785.47143  -8595346.40542  22729571.659    22729567.834
  23455111.276    -8135634.28743  -6202668.77542  23455112.054    23455109.799
  23756827.993    -8569360.97943  -6327734.19542  23756829.868    23756826.737
  20351741.585   -28203094.51444 -21949321.83142  20351741.805    20351737.445
  22536590.329   -15419030.52043 -11989686.81442  22536591.419    22536586.027
 04  7 22  2 33 30.0000000  0  8G31G27G28G13G10G29G 8G19
  22878997.410   -14577077.98143 -11349521.85642  22878999.102    22878996.829
  20757840.247   -26179757.18644 -20372097.19442  20757841.585    20757837.280
  21457850.530   -20097118.95243 -15630679.48642  21457852.125    21457847.556
  22748893.255   -11190239.88643  -8516220.03542  22748895.228    22748891.230
  23462957.472    -8094401.17443  -6170539.10642  23462958.245    23462956.274
  23738997.726    -8663058.77043  -6400745.41742  23738999.611    23738996.608
  20347334.809   -28226252.14044 -21967366.73542  20347334.994    20347330.699
  22542271.309   -15389176.94443 -11966424.28642  22542272.430    22542266.877
 04  7 22  2 34  0.0000000  0  8G31G27G28G13G10G29G 8G19
  22857920.073   -14687838.96743 -11435829.01842  22857921.758    22857919.624
  20760549.656   -26165518.93344 -20361002.44842  20760551.017    20760546.752
  21447261.024   -20152766.98443 -15674041.53342  21447262.609    21447257.942
  22768266.413   -11088434.03243  -8436890.86442  22768268.393    22768264.198
  23470893.058    -8052700.26943  -6138044.94042  23470893.696    23470891.784
  23721206.191    -8756552.44143  -6473597.58642  23721208.221    23721205.461
  20342983.526   -28249118.43844 -21985184.63042  20342983.714    20342979.407
  22548057.711   -15358769.39443 -11942730.10242  22548058.795    22548053.191
 04  7 22  2 34 30.0000000  0  8G31G27G28G13G10G29G 8G19
  22836877.519   -14798417.46443 -11521993.98142  22836879.268    22836877.030
  20763309.957   -26151013.79243 -20349699.74942  20763311.293    20763306.984
  21436735.737   -20208078.24843 -15717141.16642  21436737.318    21436732.478
  22787689.005   -10986367.21043  -8357358.32442  22787691.106    22787686.952
  23478917.904    -8010530.76643  -6105185.62942  23478918.649    23478916.495
  23703454.574    -8849836.81443  -6546286.65742  23703456.686    23703453.981
  20338688.385   -28271689.63844 -22002772.57542  20338688.570    20338684.230
  22553949.912   -15327805.67943 -11918602.53542  22553951.016    22553945.400
 04  7 22  2 35  0.0000000  0  9G31G27G28G13G10G29G 8G26G19
  22815867.576   -14908824.33543 -11608025.24542  22815869.361    22815867.126
  20766118.398   -26136255.08443 -20338199.45942  20766119.746    20766115.459
  21426271.794   -20263066.12143 -15759988.82642  21426273.418    21426268.711
  22807158.119   -10884055.78543  -8277635.20942  22807160.197    22807156.378
  23487028.702    -7967909.03443  -6071973.96242  23487029.554    23487027.322
  23685740.748    -8942923.41543  -6618821.61542  23685742.845    23685740.060
  20334446.876   -28293978.83644 -22020140.77942  20334447.048    20334442.714
  24305981.668    -2620289.43253  -1998757.98752  24305984.159    24305980.667
  22559945.056   -15296300.80443 -11894053.28642  22559946.229    22559940.659
 04  7 22  2 35 30.0000000  0  9G31G27G28G13G10G29G 8G26G19
  22794895.507   -15019032.80443 -11693901.90342  22794897.218    22794895.074
  20768979.795   -26121218.22244 -20326482.42642  20768981.129    20768976.859
  21415873.864   -20317706.79343 -15802565.94942  21415875.478    21415870.979
  22826678.057   -10781478.01443  -8197704.55242  22826680.079    22826676.393
  23495229.551    -7924813.52343  -6038393.08742  23495230.476    23495228.262
  23668069.729    -9035785.72443  -6691181.80142  23668071.704    23668068.901
  20330263.741   -28315961.27144 -22037269.95242  20330263.931    20330259.607
  24286315.182    -2723636.57743  -2079288.10842  24286317.706    24286314.513
  22566047.540   -15264232.15343 -11869064.74442  22566048.676    22566043.157
 04  7 22  2 36  0.0000000  0  9G31G27G28G13G10G29G 8G26G19
  22773959.524   -15129052.41943 -11779631.39842  22773961.170    22773958.921
  20771891.883   -26105915.21443 -20314558.01042  20771893.194    20771888.932
  21405539.830   -20372012.59343 -15844882.10142  21405541.449    21405536.742
  22846245.923   -10678648.88943  -8117578.02142  22846247.850    22846244.131
  23503517.590    -7881259.15443  -6004454.67242  23503518.563    23503516.424
  23650439.431    -9128434.24543  -6763375.37942  23650441.245    23650438.469
  20326136.718   -28337648.76644 -22054169.29242  20326136.909    20326132.585
  24266682.774    -2826804.60743  -2159678.69342  24266685.175    24266682.330
  22572254.782   -15231613.18843 -11843647.38842  22572255.878    22572250.392
 04  7 22  2 36 30.0000000  0  9G31G27G28G13G10G29G 8G26G19
  22753060.224   -15238879.52243 -11865210.87642  22753061.809    22753059.412
  20774854.707   -26090345.00143 -20302425.38042  20774856.065    20774851.807
  21395269.643   -20425982.81243 -15886936.76942  21395271.295    21395266.349
  22865861.319   -10575570.00843  -8037256.89542  22865863.305    22865859.225
  23511892.692    -7837247.71543  -5970160.11942  23511893.668    23511891.644
  23632850.218    -9220865.90743  -6835399.97542  23632851.950    23632849.319
  20322066.102   -28359040.20344 -22070837.94242  20322066.281    20322061.856
  24247085.044    -2929790.17843  -2239927.11042  24247087.484    24247084.746
  22578566.575   -15198444.31343 -11817801.52742  22578567.713    22578562.219
 04  7 22  2 37  0.0000000  0  9G31G27G28G13G10G29G 8G26G19
  22732198.659   -15348507.55143 -11950635.24142  22732200.244    22732197.809
  20777869.280   -26074503.31644 -20290081.21642  20777870.620    20777866.422
  21385063.991   -20479613.66643 -15928727.02642  21385065.620    21385060.816
  22885524.557   -10472239.84743  -7956739.97242  22885526.533    22885522.214
  23520354.911    -7792778.07843  -5935508.50242  23520355.886    23520354.033
  23615303.339    -9313074.82143  -6907251.01542  23615305.174    23615302.453
  20318052.606   -28380131.11644 -22087272.42042  20318052.824    20318048.390
  24227523.046    -3032587.15643  -2320028.54942  24227525.526    24227522.843
  22584983.501   -15164723.23843 -11791525.38442  22584984.613    22584979.160
 04  7 22  2 37 30.0000000  0  9G31G27G28G13G10G29G 8G26G19
  22711374.169   -15457941.17643 -12035908.10242  22711375.674    22711373.345
  20780934.269   -26058397.04744 -20277530.88742  20780935.561    20780931.403
  21374921.612   -20532912.62743 -15970258.66742  21374923.179    21374918.560
  22905233.502   -10368668.68143  -7876035.24742  22905235.515    22905231.156
  23528902.674    -7747860.17143  -5900507.57242  23528903.433    23528901.705
  23597797.997    -9405066.20743  -6978932.54542  23597799.837    23597797.025
  20314095.103   -28400928.22844 -22103477.96742  20314095.262    20314090.880
  24207996.073    -3135200.72443  -2399987.09242  24207998.483    24207996.060
  22591503.811   -15130458.89043 -11764825.90142  22591504.942    22591499.476
 04  7 22  2 38  0.0000000  0  9G31G27G28G13G10G29G 8G26G19
  22690588.695   -15567169.74743 -12121021.18642  22690590.253    22690588.006
  20784051.033   -26042018.21444 -20264768.17242  20784052.349    20784048.214
  21364843.806   -20585871.81543 -16011525.52542  21364845.367    21364840.757
  22924989.525   -10264851.11043  -7795138.51242  22924991.415    22924987.097
  23537536.873    -7702488.39843  -5865152.98042  23537537.606    23537535.611
  23580335.898    -9496829.91143  -7050436.66342  23580337.799    23580334.942
  20310195.121   -28421422.98944 -22119447.91542  20310195.251    20310190.824
  24188506.121    -3237620.67343  -2479794.75542  24188508.333    24188505.892
  22598128.743   -15095644.63943 -11737697.92342  22598129.895    22598124.411
 04  7 22  2 38 30.0000000  0  9G31G27G28G13G10G29G 8G26G19
  22669841.511   -15676196.26543 -12205976.82842  22669843.101    22669840.947
  20787218.718   -26025371.98744 -20251797.09842  20787220.084    20787215.884
  21354829.480   -20638497.20443 -16052532.27642  21354831.038    21354826.280
  22944790.702   -10160795.38543  -7714056.18342  22944792.554    22944788.427
  23546255.514    -7656671.29643  -5829451.40042  23546256.409    23546254.343
  23562916.377    -9588369.75043  -7121766.36142  23562918.288    23562915.438
  20306351.583   -28441620.81644 -22135186.47742  20306351.704    20306347.297
  24169052.502    -3339850.58543  -2559454.35542  24169054.473    24169051.907
  22604857.001   -15060287.73343 -11710147.09442  22604858.128    22604852.565
 04  7 22  2 39  0.0000000  0  9G31G27G28G13G10G29G 8G26G19
  22649134.920   -15785010.27443 -12290766.87242  22649136.433    22649134.093
  20790438.858   -26008450.40444 -20238611.45942  20790440.225    20790435.991
  21344880.162   -20690780.98543 -16093272.83642  21344881.735    21344876.838
  22964638.104   -10056496.24243  -7632784.18542  22964639.846    22964636.161
  23555059.812    -7610404.04143  -5793399.05242  23555060.598    23555058.921
  23545541.315    -9679675.81743  -7192913.90342  23545543.251    23545540.256
  20302566.071   -28461513.95344 -22150687.62042  20302566.192    20302561.726
  24149636.957    -3441880.59643  -2638958.19742  24149638.903    24149636.188
  22611689.576   -15024382.01843 -11682168.62742  22611690.764    22611685.204
 04  7 22  2 39 30.0000000  0  9G31G27G28G13G10G29G 8G26G19
  22628467.814   -15893616.61043 -12375395.08342  22628469.307    22628466.780
  20793709.960   -25991260.71744 -20225216.91342  20793711.296    20793707.053
  21334994.362   -20742731.11043 -16133753.42042  21334995.937    21334991.077
  22984529.870    -9951963.51143  -7551330.17842  22984531.690    22984528.265
  23563947.766    -7563696.76343  -5757003.81642  23563948.615    23563947.141
  23528209.813    -9770753.43543  -7263883.42542  23528211.647    23528208.528
  20298837.364   -28481108.23544 -22165955.88742  20298837.490    20298833.088
  24130258.282    -3543715.88643  -2718310.30942  24130260.559    24130257.501
  22618624.958   -14987936.47243 -11653769.51242  22618626.110    22618620.601
 04  7 22  2 40  0.0000000  0  9G31G27G28G13G10G29G 8G26G19
  22607842.156   -16002004.86143 -12459853.38642  22607843.761    22607841.030
  20797033.645   -25973794.84144 -20211607.15042  20797034.971    20797030.676
  21325173.443   -20794340.07743 -16173968.17342  21325174.997    21325170.220
  23004467.055    -9847193.03243  -7469690.92342  23004468.951    23004465.435
  23572920.451    -7516544.63943  -5720261.93842  23572921.214    23572919.953
  23510923.499    -9861592.95643  -7334667.41342  23510925.276    23510922.207
  20295166.898   -28500396.50244 -22180985.69842  20295167.023    20295162.681
  24110918.552    -3645346.29343  -2797502.77142  24110921.021    24110917.919
  22625664.135   -14950944.96743 -11624944.97342  22625665.326    22625659.855
 04  7 22  2 40 30.0000000  0  9G31G27G28G13G10G29G 8G26G19
  22587257.418   -16110177.56843 -12544143.74542  22587259.061    22587256.340
  20800408.828   -25956057.86643 -20197786.14042  20800410.167    20800405.925
  21315416.379   -20845613.16743 -16213921.20342  21315417.925    21315413.126
  23024448.343    -9742191.82043  -7387871.87842  23024450.215    23024446.392
  23581976.390    -7468955.65743  -5683179.65042  23581977.200    23581975.810
  23493681.768    -9952197.46243  -7405268.26442  23493683.725    23493680.660
  20291553.912   -28519383.12344 -22195780.46142  20291554.027    20291549.649
  24091617.251    -3746774.92943  -2876538.02142  24091619.768    24091616.653
  22632805.967   -14913414.27843 -11595700.29642  22632807.108    22632801.768
 04  7 22  2 41  0.0000000  0  9G31G27G28G13G10G29G 8G26G19
  22566714.366   -16218130.92643 -12628263.17142  22566716.053    22566713.458
  20803835.925   -25938048.30143 -20183752.71642  20803837.243    20803833.052
  21305723.500   -20896549.49443 -16253611.79342  21305725.032    21305720.112
  23044472.997    -9636961.73343  -7305874.47742  23044474.910    23044471.009
  23591115.196    -7420931.49343  -5645758.29842  23591116.149    23591114.289
  23476485.790   -10042563.68843  -7475683.45842  23476487.567    23476484.441
  20287998.503   -28538066.78344 -22210339.15042  20287998.628    20287994.274
  24072354.841    -3847998.54143  -2955413.51542  24072357.348    24072354.467
  22640050.346   -14875344.99843 -11566035.94942  22640051.431    22640046.158
 04  7 22  2 41 30.0000000  0  9G31G27G28G13G10G29G 8G26G19
  22546214.829   -16325857.36943 -12712205.77842  22546216.465    22546213.711
  20807315.834   -25919761.14743 -20169502.99242  20807317.165    20807312.953
  21296095.614   -20947144.47843 -16293036.41842  21296097.144    21296092.161
  23064541.628    -9531500.49543  -7223696.96442  23064543.512    23064539.601
  23600337.306    -7372470.25943  -5607996.36642  23600338.199    23600336.050
  23459336.579   -10132684.81643  -7545907.66542  23459338.243    23459334.864
  20284501.901   -28556441.42144 -22224657.04742  20284502.036    20284497.704
  24053132.815    -3949010.06943  -3034123.77042  24053135.110    24053132.701
  22647397.825   -14836733.86343 -11535949.35942  22647398.940    22647393.608
 04  7 22  2 42  0.0000000  0  9G31G27G28G13G10G29G 8G26G19
  22525757.476   -16433361.26343 -12795974.95342  22525759.110    22525756.293
  20810847.399   -25901202.87443 -20155042.01742  20810848.705    20810844.553
  21286531.268   -20997405.34143 -16332200.72042  21286532.801    21286527.882
  23084652.417    -9425817.88943  -7141346.94642  23084654.282    23084650.312
  23609640.465    -7323581.42543  -5569901.21042  23609641.491    23609639.391
  23442232.977   -10222565.62843  -7615944.61442  23442234.612    23442231.115
  20281062.765   -28574514.20944 -22238739.74142  20281062.892    20281058.565
  24033950.397    -4049814.15243  -3112672.35042  24033952.577    24033950.454
  22654846.736   -14797589.57643 -11505447.34742  22654847.852    22654842.521
 04  7 22  2 42 30.0000000  0  9G31G27G28G13G10G29G 8G26G19
  22505344.637   -16540631.48943 -12879562.06142  22505346.269    22505343.415
  20814432.048   -25882365.04843 -20140363.19742  20814433.399    20814429.282
  21277032.158   -21047323.69443 -16371098.11842  21277033.696    21277028.786
  23104806.341    -9319907.69343  -7058819.60042  23104808.194    23104804.303
  23619026.156    -7274259.46743  -5531468.57142  23619027.142    23619025.216
  23425176.875   -10312195.67943  -7685786.16542  23425178.646    23425175.035
  20277682.788   -28592276.23344 -22252580.28042  20277682.909    20277678.544
  24014809.498    -4150400.18943  -3191051.04342  24014811.596    24014809.570
  22662398.445   -14757905.19643 -11474524.46242  22662399.552    22662394.221
 04  7 22  2 43  0.0000000  0  9G31G27G28G13G10G29G 8G26G19
  22484975.718   -16647670.86843 -12962969.28942  22484977.410    22484974.538
  20818069.029   -25863252.71343 -20125470.48642  20818070.308    20818066.236
  21267597.022   -21096905.59643 -16409733.32942  21267598.590    21267593.691
  23125002.053    -9213778.81543  -6976121.84042  23125003.965    23124999.943
  23628492.645    -7224512.98443  -5492705.14742  23628493.575    23628491.600
  23408167.884   -10401578.51543  -7755435.08542  23408169.665    23408166.091
  20274360.884   -28609732.81044 -22266182.80842  20274361.042    20274356.683
  23995709.501    -4250771.52343  -3269262.42942  23995711.507    23995709.466
  22670051.508   -14717688.40343 -11443186.70842  22670052.580    22670047.161
 04  7 22  2 43 30.0000000  0  9G31G27G28G13G10G29G 8G26G19
  22464651.794   -16754473.33243 -13046191.91142  22464653.558    22464650.592
  20821758.914   -25843862.37843 -20110361.14142  20821760.173    20821756.070
  21258226.466   -21146147.98043 -16448103.98842  21258228.013    21258223.198
  23145239.451    -9107430.49043  -6893253.09942  23145241.389    23145237.357
  23638039.847    -7174341.42243  -5453610.47342  23638040.740    23638038.846
  23391206.861   -10490708.53143  -7824886.99142  23391208.661    23391205.211
  20271098.049   -28626879.14944 -22279543.59542  20271098.193    20271093.855
  23976651.571    -4350922.40043  -3347302.02942  23976653.539    23976651.362
  22677806.310   -14676937.11743 -11411432.47742  22677807.378    22677801.829
 04  7 22  2 44  0.0000000  0  9G31G27G28G13G10G29G 8G26G19
  22444373.115   -16861037.95743 -13129229.20942  22444374.911    22444371.915
  20825501.377   -25824195.54743 -20095036.34442  20825502.664    20825498.525
  21248920.054   -21195052.80243 -16486211.62842  21248921.610    21248916.924
  23165518.090    -9000866.53143  -6810216.32442  23165520.071    23165515.982
  23647667.140    -7123749.54443  -5414188.29742  23647667.923    23647666.165
  23374293.837   -10579585.42843  -7894141.66842  23374295.894    23374292.607
  20267893.815   -28643717.32844 -22292664.25142  20267893.972    20267889.668
  23957635.624    -4450852.32343  -3425169.45342  23957637.557    23957635.084
  22685661.941   -14635654.99143 -11379264.59342  22685663.103    22685657.606
 04  7 22  2 44 30.0000000  0  9G31G27G28G13G10G29G 8G26G19
  22424140.668   -16967359.70343 -13212077.23742  22424142.499    22424139.570
  20829296.958   -25804249.48943 -20079493.96942  20829298.247    20829294.175
  21239678.424   -21243617.86644 -16524054.50742  21239679.969    21239675.228
  23185837.696    -8894087.35943  -6727011.85342  23185839.741    23185835.520
  23657374.605    -7072737.62143  -5374438.79142  23657375.330    23657373.568
  23357430.175   -10668204.73943  -7963195.64142  23357432.183    23357428.963
  20264749.011   -28660243.73644 -22305541.97842  20264749.151    20264744.799
  23938662.495    -4550556.71643  -3502861.12942  23938664.360    23938661.700
  22693618.817   -14593841.37443 -11346682.54642  22693619.918    22693614.451
 04  7 22  2 45  0.0000000  0  9G31G27G28G13G10G29G 8G26G19
  22403954.860   -17073435.75143 -13294733.84042  22403956.735    22403953.853
  20833145.748   -25784023.81943 -20063733.71842  20833147.029    20833142.987
  21230501.460   -21291843.38943 -16561632.80942  21230503.023    21230498.058
  23206197.726    -8787095.83243  -6643641.92242  23206199.712    23206195.436
  23667161.345    -7021308.56743  -5334364.23742  23667162.205    23667160.271
  23340615.978   -10756564.11143  -8032047.06242  23340617.969    23340614.800
  20261663.441   -28676458.36644 -22318176.75442  20261663.592    20261659.206
  23919732.624    -4650033.11243  -3580375.13442  23919734.574    23919731.697
  22701676.458   -14551497.90543 -11313687.65742  22701677.584    22701672.044
 04  7 22  2 45 30.0000000  0  9G31G27G28G13G10G29G 8G26G19
  22383816.270   -17179264.05543 -13377197.38242  22383818.113    22383815.323
  20837047.763   -25763519.00243 -20047755.95342  20837048.992    20837044.925
  21221388.850   -21339730.22143 -16598947.18542  21221390.446    21221385.390
  23226597.371    -8679895.25843  -6560109.09842  23226599.432    23226595.151
  23677026.730    -6969465.83343  -5293967.31642  23677027.704    23677025.627
  23323851.455   -10844662.28543  -8100694.93842  23323853.387    23323850.276
  20258637.184   -28692361.38844 -22330568.72042  20258637.329    20258632.968
  23900846.592    -4749279.94843  -3657710.27342  23900848.630    23900845.514
  22709834.585   -14508626.98643 -11280281.75442  22709835.690    22709829.946
 04  7 22  2 46  0.0000000  0  9G31G27G28G13G10G29G 8G26G19
  22363725.757   -17284840.22043 -13459464.45542  22363727.464    22363724.682
  20841003.184   -25742733.08143 -20031559.13842  20841004.460    20841000.328
  21212340.894   -21387277.05343 -16635996.62642  21212342.498    21212337.463
  23247036.574    -8572486.32743  -6476413.91742  23247038.618    23247034.517
  23686970.563    -6917210.92043  -5253249.26342  23686971.554    23686969.550
  23307137.275   -10932495.40143  -8169136.27942  23307139.196    23307136.081
  20255670.647   -28707950.57044 -22342716.13442  20255670.768    20255666.450
  23882005.061    -4848293.20243  -3734863.41342  23882007.096    23882003.938
  22718092.916   -14465228.99843 -11246465.14642  22718094.082    22718088.386
 04  7 22  2 46 30.0000000  0  9G31G27G28G13G10G29G 8G26G19
  22343683.332   -17390162.39443 -13541533.60242  22343685.074    22343682.403
  20845011.907   -25721666.47743 -20015143.61742  20845013.220    20845009.221
  21203357.573   -21434485.06043 -16672782.05642  21203359.120    21203354.039
  23267514.862    -8464872.84043  -6392559.36442  23267516.815    23267512.836
  23696992.128    -6864547.42643  -5212212.83142  23696993.046    23696991.222
  23290473.782   -11020062.10143  -8237370.02942  23290475.682    23290472.607
  20252763.758   -28723226.39444 -22354619.38042  20252763.888    20252759.567
  23863208.106    -4947071.45043  -3811833.41742  23863210.199    23863207.179
  22726451.065   -14421306.27443 -11212239.65442  22726452.270    22726446.803
 04  7 22  2 47  0.0000000  0  9G31G27G28G13G10G29G 8G26G19
  22323690.657   -17495225.26543 -13623400.69442  22323692.351    22323689.527
  20849074.772   -25700316.49843 -19998507.28342  20849076.041    20849071.986
  21194439.067   -21481351.98643 -16709301.71142  21194440.614    21194435.602
  23288031.845    -8357054.82443  -6308545.42242  23288033.960    23288029.923
  23707091.511    -6811475.63143  -5170858.21142  23707092.354    23707090.553
  23273861.849   -11107357.84143  -8305392.62742  23273863.754    23273860.661
  20249917.100   -28738185.66444 -22366275.95942  20249917.220    20249912.879
  23844456.762    -5045609.93243  -3888616.60542  23844458.846    23844455.979
  22734909.387   -14376858.12843 -11177604.75442  22734910.496    22734905.073
 04  7 22  2 47 30.0000000  0 10G31G27G28G13G 7G10G29G 8G26G19
  22303745.531   -17600038.44643 -13705073.23442  22303747.252    22303744.222
  20853189.127   -25678694.97643 -19981659.35542  20853190.448    20853186.419
  21185583.079   -21527890.14843 -16745565.20042  21185584.588    21185579.726
  23308585.108    -8249046.70843  -6224383.32942  23308587.289    23308583.274
  24458807.441    -5266219.19053  -4063145.17552  24458808.992    24458809.979
  23717265.554    -6758010.94843  -5129197.48442  23717266.456    23717264.602
  23257299.680   -11194392.57943  -8373211.87042  23257301.582    23257298.503
  20247128.438   -28752839.86844 -22377694.82042  20247128.545    20247124.285
  23825749.137    -5143918.32543  -3965220.48542  23825751.323    23825748.485
  22743464.989   -14331898.61643 -11142571.38642  22743466.111    22743460.551
 04  7 22  2 48  0.0000000  0 10G31G27G28G13G 7G10G29G 8G26G19
  22283852.113   -17704578.49143 -13786532.93642  22283853.987    22283850.899
  20857359.214   -25656780.88843 -19964583.45242  20857360.548    20857356.569
  21176793.603   -21574079.33344 -16781556.73542  21176795.109    21176790.225
  23329177.981    -8140831.02243  -6140059.51442  23329180.101    23329176.155
  24438644.511    -5372174.41543  -4145707.50842  24438646.094    24438647.007
  23727517.771    -6704135.61843  -5087216.77042  23727518.656    23727516.904
  23240791.513   -11281143.48143  -8440809.94642  23240793.361    23240790.427
  20244401.980   -28767167.67644 -22388859.35442  20244402.065    20244397.768
  23807089.701    -5241973.72443  -4041627.22942  23807091.839    23807089.204
  22752121.287   -14286409.05143 -11107124.99242  22752122.494    22752117.058
 04  7 22  2 48 30.0000000  0 10G31G27G28G13G 7G10G29G 8G26G19
  22264008.915   -17808854.37943 -13867786.82042  22264010.824    22264007.742
  20861582.831   -25634585.89443 -19947288.66642  20861584.184    20861580.156
  21168068.205   -21619931.58744 -16817285.73242  21168069.743    21168064.813
  23349807.836    -8032422.15843  -6055585.14942  23349809.815    23349805.855
  24418484.943    -5478111.57043  -4228255.76642  24418486.418    24418487.585
  23737845.105    -6649864.21643  -5044927.42542  23737845.995    23737844.543
  23224335.454   -11367620.14043  -8508194.32042  23224337.395    23224334.503
  20241735.343   -28781180.84344 -22399778.70442  20241735.434    20241731.191
  23788476.521    -5339785.63343  -4117844.23742  23788478.531    23788476.194
  22760876.157   -14240403.12243 -11071276.24542  22760877.206    22760871.808
 04  7 22  2 49  0.0000000  0 10G31G27G28G13G 7G10G29G 8G26G19
  22244217.999   -17912855.66943 -13948826.70742  22244219.841    22244216.805
  20865861.355   -25612101.74343 -19929768.56142  20865862.735    20865858.761
  21159408.333   -21665439.46543 -16852746.37842  21159409.890    21159404.921
  23370475.353    -7923814.94643  -5970956.22442  23370477.314    23370473.285
  24398331.107    -5584020.95743  -4310782.39542  24398332.406    24398333.553
  23748249.024    -6595191.99443  -5002325.74242  23748249.770    23748248.330
  23207933.756   -11453812.68943  -8575357.29142  23207935.621    23207932.575
  20239130.277   -28794870.89844 -22410446.28242  20239130.366    20239126.053
  23769911.654    -5437343.85043  -4193863.58742  23769913.621    23769911.406
  22769730.063   -14193874.80943 -11035020.44542  22769731.230    22769725.730
 04  7 22  2 49 30.0000000  0 10G31G27G28G13G 7G10G29G 8G26G19
  22224478.284   -18016588.04943 -14029657.05542  22224480.033    22224477.117
  20870193.490   -25589336.74543 -19912029.61642  20870194.798    20870190.816
  21150812.412   -21710611.56444 -16887945.37642  21150813.955    21150808.894
  23391178.289    -7815020.25943  -5886181.21942  23391180.253    23391176.419
  24378181.673    -5689908.93343  -4393292.33742  24378182.536    24378183.724
  23758727.011    -6540130.17043  -4959420.49642  23758727.838    23758726.118
  23191584.901   -11539727.39143  -8642303.77042  23191586.746    23191583.424
  20236585.243   -28808245.35044 -22420867.94142  20236585.355    20236580.993
  23751394.055    -5534654.63043  -4269690.11142  23751395.899    23751393.686
  22778681.532   -14146834.31843 -10998365.55742  22778682.640    22778677.176
 04  7 22  2 50  0.0000000  0 10G31G27G28G13G 7G10G29G 8G26G19
  22204791.551   -18120041.80943 -14110270.30542  22204793.176    22204790.490
  20874580.397   -25566283.40243 -19894065.98542  20874581.730    20874577.743
  21142281.510   -21755441.42843 -16922877.72242  21142283.093    21142277.964
  23411917.512    -7706033.91343  -5801256.88542  23411919.601    23411916.110
  24358037.586    -5795766.61743  -4475778.65142  24358038.604    24358039.617
  23769279.838    -6484675.15543  -4916208.87042  23769280.615    23769278.885
  23175290.445   -11625355.11743  -8709026.62342  23175292.431    23175288.906
  20234101.528   -28821297.27544 -22431038.28042  20234101.651    20234097.331
  23732925.302    -5631708.41643  -4345316.35242  23732927.143    23732924.967
  22787731.457   -14099276.68243 -10961307.69442  22787732.573    22787727.170
 04  7 22  2 50 30.0000000  0 10G31G27G28G13G 7G10G29G 8G26G19
  22185157.957   -18223216.04443 -14190665.75942  22185159.511    22185157.111
  20879021.912   -25542943.39944 -19875878.98642  20879023.224    20879019.185
  21133815.336   -21799931.07443 -16957544.95942  21133816.877    21133811.802
  23432692.483    -7596860.28543  -5716186.62342  23432694.556    23432691.304
  24337898.975    -5901593.50143  -4558240.98642  24337900.374    24337901.007
  23779906.538    -6428831.57543  -4872694.45242  23779907.308    23779905.765
  23159050.654   -11710695.53543  -8775525.62442  23159052.638    23159049.040
  20231678.996   -28834027.88844 -22440958.24642  20231679.104    20231674.752
  23714505.600    -5728504.74843  -4420741.97642  23714507.460    23714505.248
  22796879.107   -14051205.65943 -10923849.79442  22796880.234    22796874.760
 04  7 22  2 51  0.0000000  0 10G31G27G28G13G 7G10G29G 8G26G19
  22165577.847   -18326109.69843 -14270842.57942  22165579.329    22165577.126
  20883517.734   -25519317.96044 -19857469.56742  20883519.041    20883514.937
  21125413.605   -21844082.27343 -16991948.46742  21125415.112    21125410.131
  23453502.246    -7487503.89543  -5630973.95642  23453504.301    23453501.162
  24317766.239    -6007389.35543  -4640679.15442  24317767.841    24317768.415
  23790606.233    -6372604.01043  -4828880.81842  23790607.042    23790605.743
  23142865.550   -11795747.91043  -8841800.18142  23142867.592    23142863.978
  20229317.405   -28846437.78444 -22450628.29742  20229317.546    20229313.262
  23696135.042    -5825042.90543  -4495966.43442  23696136.889    23696134.552
  22806123.827   -14002624.73843 -10885994.55542  22806124.912    22806119.356
 04  7 22  2 51 30.0000000  0 10G31G27G28G13G 7G10G29G 8G26G19
  22146052.354   -18428716.89043 -14350796.17542  22146053.733    22146051.537
  20888068.435   -25495403.86844 -19838835.22242  20888069.767    20888065.640
  21117076.741   -21887892.59843 -17026086.35942  21117078.271    21117073.306
  23474346.894    -7377964.08743  -5545618.34342  23474348.912    23474345.795
  24297640.915    -6113148.99543  -4723089.13042  24297642.393    24297642.783
  23801379.194    -6315992.26543  -4784767.86042  23801379.972    23801378.465
  23126736.515   -11880507.14343  -8907846.30442  23126738.489    23126734.807
  20227017.550   -28858523.59444 -22460045.80142  20227017.688    20227013.411
  23677814.601    -5921317.52943  -4570985.54042  23677816.467    23677813.951
  22815465.701   -13953532.93143 -10847741.23342  22815466.810    22815461.222
 04  7 22  2 52  0.0000000  0 10G31G27G28G13G 7G10G29G 8G26G19
  22126581.192   -18531038.19443 -14430527.00042  22126582.528    22126580.335
  20892673.619   -25471204.03944 -19819978.22642  20892674.908    20892670.683
  21108804.147   -21931365.60344 -17059961.40542  21108805.693    21108800.664
  23495225.504    -7268246.86943  -5460124.48642  23495227.451    23495224.250
  24277522.320    -6218873.66143  -4805471.82242  24277523.542    24277524.047
  23812224.086    -6259002.86643  -4740360.58942  23812224.922    23812223.061
  23110662.891   -11964974.40043  -8973664.92142  23110664.911    23110661.145
  20224778.811   -28870288.02144 -22469212.88442  20224778.952    20224774.695
  23659544.225    -6017329.35243  -4645799.87742  23659546.056    23659543.546
  22824903.858   -13903935.32843 -10809093.77842  22824904.925    22824899.244
 04  7 22  2 52 30.0000000  0 10G31G27G28G13G 7G10G29G 8G26G19
  22107165.197   -18633069.97243 -14510032.22242  22107166.550    22107164.152
  20897333.284   -25446717.02843 -19800897.45642  20897334.628    20897330.406
  21100595.815   -21974500.67843 -17093573.12542  21100597.367    21100592.283
  23516137.700    -7158354.01843  -5374493.77042  23516139.587    23516136.019
  24257410.939    -6324560.38843  -4887824.92542  24257412.072    24257412.494
  23823140.186    -6201637.79043  -4695660.58742  23823141.110    23823139.100
  23094645.499   -12049146.54643  -9039253.58442  23094647.457    23094643.622
  20222601.527   -28881729.65044 -22478128.43642  20222601.661    20222597.438
  23641324.508    -6113075.15243  -4720406.91742  23641326.398    23641323.733
  22834438.076   -13853832.98143 -10770052.99942  22834439.145    22834433.372
 04  7 22  2 53  0.0000000  0 10G31G27G28G13G 7G10G29G 8G26G19
  22087805.986   -18734803.59943 -14589305.11742  22087807.327    22087804.843
  20902048.754   -25421936.99143 -19781588.34842  20902050.085    20902045.942
  21092452.815   -22017292.16543 -17126917.11742  21092454.362    21092449.213
  23537083.923    -7048282.08343  -5288723.51742  23537085.789    23537082.054
  24237307.918    -6430201.22243  -4970142.30242  24237309.062    24237309.615
  23834128.481    -6143894.15443  -4650665.61342  23834129.334    23834127.281
  23078685.807   -12133015.47443  -9104605.95242  23078687.746    23078683.844
  20220486.974   -28892841.74044 -22486787.20742  20220487.094    20220482.874
  23623156.884    -6208546.60843  -4794800.19842  23623158.965    23623156.148
  22844068.963   -13803221.99143 -10730615.89142  22844070.146    22844064.354
 04  7 22  2 53 30.0000000  0 10G31G27G28G13G 7G10G29G 8G26G19
  22068503.236   -18836240.08243 -14668346.46242  22068504.662    22068502.110
  20906819.409   -25396867.20543 -19762053.46242  20906820.690    20906816.571
  21084374.408   -22059744.27543 -17159996.66142  21084375.935    21084370.721
  23558062.892    -6938037.61943  -5202818.81842  23558064.868    23558060.952
  24217213.338    -6535797.76543  -5052425.14742  24217214.471    24217214.987
  23845187.507    -6085778.87343  -4605381.04542  23845188.360    23845186.350
  23062783.403   -12216582.88843  -9169723.37742  23062785.391    23062781.461
  20218434.490   -28903627.85344 -22495191.98042  20218434.594    20218430.323
  23605041.122    -6303745.32043  -4868980.94342  23605043.370    23605040.449
  22853795.594   -13752108.06643 -10690786.88542  22853796.792    22853791.045
 04  7 22  2 54  0.0000000  0 10G31G27G28G13G 7G10G29G 8G26G19
  22049257.663   -18937376.66443 -14747154.12842  22049259.101    22049256.302
  20911645.194   -25371507.43343 -19742292.61542  20911646.500    20911642.364
  21076360.522   -22101857.28543 -17192811.96442  21076362.082    21076356.885
  23579073.769    -6827623.43043  -5116781.88642  23579075.772    23579072.107
  24197127.562    -6641347.94543  -5134671.87642  24197128.701    24197129.242
  23856316.690    -6027295.07043  -4559809.32042  23856317.472    23856315.728
  23046938.856   -12299846.41243  -9234604.00642  23046940.894    23046936.927
  20216444.032   -28914087.49444 -22503342.35642  20216444.150    20216439.831
  23586977.715    -6398668.53943  -4942947.01942  23586980.115    23586977.103
  22863617.616   -13700493.38543 -10650567.68342  22863618.741    22863613.060
 04  7 22  2 54 30.0000000  0 10G31G27G28G13G 7G10G29G 8G26G19
  22030070.316   -19038207.31543 -14825723.40542  22030071.789    22030068.692
  20916526.900   -25345853.96844 -19722302.91242  20916528.208    20916524.074
  21068411.787   -22143628.13743 -17225360.65542  21068413.348    21068408.192
  23600117.331    -6717038.65043  -5030611.99742  23600119.241    23600115.610
  24177051.821    -6746846.43143  -5216878.33742  24177052.933    24177053.251
  23867515.794    -5968442.49043  -4513950.21342  23867516.503    23867515.170
  23031153.231   -12382800.33943  -9299243.39742  23031155.292    23031151.315
  20214516.552   -28924216.59444 -22511235.16542  20214516.679    20214512.372
  23568967.733    -6493310.84143  -5016694.20342  23568970.126    23568967.237
  22873535.083   -13648376.43043 -10609957.09542  22873536.222    22873530.644
 04  7 22  2 55  0.0000000  0 10G31G27G28G13G 7G10G29G 8G26G19
  22010940.420   -19138734.76643 -14904056.42042  22010942.019    22010938.777
  20921463.546   -25319911.98443 -19702088.39242  20921464.836    20921460.678
  21060527.013   -22185062.87544 -17257647.44842  21060528.575    21060523.433
  23621192.042    -6606290.96043  -4944315.20742  23621193.957    23621190.405
  24156985.214    -6852296.70043  -5299047.19742  24156986.277    24156986.828
  23878783.681    -5909229.32243  -4467810.13742  23878784.206    23878782.974
  23015425.716   -12465448.39043  -9363644.44842  23015427.835    23015423.890
  20212650.996   -28934019.89244 -22518874.09942  20212651.141    20212646.911
  23551010.748    -6587675.07043  -5090224.70742  23551013.035    23551010.276
  22883546.617   -13595764.78843 -10568961.03742  22883547.788    22883542.322
 04  7 22  2 55 30.0000000  0 10G31G27G28G13G 7G10G29G 8G26G19
  21991869.973   -19238950.47943 -14982146.54542  21991871.552    21991868.249
  20926456.148   -25293675.46643 -19681644.36842  20926457.493    20926453.324
  21052707.238   -22226156.07544 -17289668.10242  21052708.784    21052703.641
  23642298.217    -6495377.78043  -4857889.45242  23642300.200    23642296.650
  24136929.249    -6957690.71643  -5381172.24242  24136930.400    24136931.066
  23890120.848    -5849653.13443  -4421387.20042  23890121.345    23890119.865
  22999757.870   -12547782.35943  -9427800.74042  22999759.971    22999756.191
  20210848.784   -28943490.70944 -22526253.96442  20210848.909    20210844.623
  23533108.170    -6681753.08143  -5163532.17842  23533110.349    23533107.696
  22893653.129   -13542654.79643 -10527576.66942  22893654.249    22893648.916
 04  7 22  2 56  0.0000000  0 10G31G27G28G13G 7G10G29G 8G26G19
  21972858.203   -19338857.70543 -15059996.28042  21972859.754    21972856.439
  20931503.791   -25267149.87643 -19660975.08642  20931505.107    20931500.937
  21044951.228   -22266914.00043 -17321427.50642  21044952.767    21044947.641
  23663434.380    -6384307.80543  -4771341.51942  23663436.306    23663432.762
  24116883.371    -7063032.23043  -5463256.39142  24116884.617    24116885.313
  23901525.303    -5789722.75143  -4374688.25142  23901526.018    23901524.291
  22984149.082   -12629805.90143  -9491715.15242  22984151.220    22984147.608
  20209108.669   -28952635.21244 -22533379.54942  20209108.798    20209104.511
  23515259.376    -6775548.57343  -5236619.51642  23515261.589    23515258.937
  22903853.041   -13489054.42743 -10485810.18242  22903854.099    22903848.831
 04  7 22  2 56 30.0000000  0 10G31G27G28G13G 7G10G29G 8G26G19
  21953907.210   -19438446.06043 -15137597.53842  21953908.757    21953905.358
  20936607.886   -25240327.61443 -19640074.62942  20936609.211    20936605.088
  21037260.443   -22307329.29244 -17352919.92342  21037261.961    21037256.816
  23684601.213    -6273075.91743  -4684667.40542  23684603.133    23684599.633
  24096849.194    -7168311.72643  -5545292.23942  24096850.474    24096851.262
  23912997.715    -5729433.84243  -4327709.91242  23912998.408    23912996.900
  22968601.526   -12711509.39343  -9555380.15642  22968603.443    22968599.938
  20207432.151   -28961445.19844 -22540244.46442  20207432.313    20207428.035
  23497466.270    -6869051.45943  -5309478.83542  23497468.549    23497465.756
  22914147.178   -13434958.18743 -10443657.29942  22914148.260    22914143.080
 04  7 22  2 57  0.0000000  0 10G31G27G28G13G 7G10G29G 8G26G19
  21935016.398   -19537716.98143 -15214951.44942  21935018.021    21935014.648
  20941767.791   -25213212.22443 -19618945.76542  20941769.113    20941765.038
  21029634.002   -22347406.54944 -17384148.93442  21029635.555    21029630.311
  23705797.470    -6161688.69943  -4597872.25842  23705799.354    23705795.814
  24076826.454    -7273531.28143  -5627281.39342  24076827.687    24076828.698
  23924536.915    -5668793.44243  -4280457.69642  23924537.831    23924536.579
  22953114.416   -12792894.72243  -9618797.23742  22953116.332    22953112.822
  20205818.734   -28969923.65144 -22546851.04442  20205818.879    20205814.661
  23479728.509    -6962263.32843  -5382111.40142  23479730.773    23479727.967
  22924534.599   -13380372.30443 -10401122.88142  22924535.659    22924530.508
 04  7 22  2 57 30.0000000  0 10G31G27G28G13G 7G10G29G 8G26G19
  21916187.290   -19636663.42743 -15292052.52842  21916188.939    21916185.757
  20946984.361   -25185799.25543 -19597585.01942  20946985.654    20946981.570
  21022072.644   -22387142.02644 -17415111.62742  21022074.168    21022068.881
  23727023.654    -6050144.65343  -4510954.93342  23727025.536    23727021.915
  24056816.356    -7378684.43043  -5709218.78042  24056817.403    24056818.666
  23936143.711    -5607800.54743  -4232930.82142  23936144.433    23936143.264
  22937688.940   -12873955.32443  -9681961.28942  22937691.007    22937687.433
  20204269.264   -28978066.15944 -22553195.85942  20204269.375    20204265.188
  23462047.300    -7055177.51443  -5454512.01442  23462049.670    23462046.895
  22935015.594   -13325294.65643 -10358205.26042  22935016.666    22935011.481
 04  7 22  2 58  0.0000000  0 10G31G27G28G13G 7G10G29G 8G26G19
  21897419.387   -19735290.56243 -15368904.79242  21897420.891    21897417.631
  20952256.042   -25158096.26943 -19575998.29742  20952257.358    20952253.323
  21014574.643   -22426543.78743 -17445814.27242  21014576.213    21014571.045
  23748277.715    -5938454.33143  -4423923.59942  23748279.652    23748275.945
  24036817.833    -7483776.88043  -5791108.88642  24036818.740    24036820.294
  23947815.328    -5546465.94343  -4185137.65742  23947816.039    23947814.736
  22922324.279   -12954696.91943  -9744876.76242  22922326.313    22922322.716
  20202782.415   -28985879.51144 -22559284.19042  20202782.501    20202778.349
  23444421.891    -7147799.48343  -5526684.93742  23444424.096    23444421.257
  22945588.357   -13269735.02143 -10314912.07042  22945589.389    22945584.173
 04  7 22  2 58 30.0000000  0 10G31G27G28G13G 7G10G29G 8G26G19
  21878714.276   -19833586.98743 -15445499.35042  21878715.809    21878712.432
  20957584.716   -25130094.33943 -19554178.62842  20957585.999    20957582.001
  21007141.684   -22465603.52743 -17476250.42142  21007143.241    21007138.228
  23769560.813    -5826611.53243  -4336773.44642  23769562.865    23769559.100
  24016832.784    -7588797.85643  -5872943.28742  24016833.703    24016835.458
  23959553.187    -5484784.01643  -4137073.93242  23959554.217    23959552.339
  22907022.252   -13035108.59843  -9807535.16842  22907024.437    22907020.757
  20201359.802   -28993355.16944 -22565109.37142  20201359.892    20201355.749
  23426854.355    -7240118.18443  -5598621.53242  23426856.328    23426853.342
  22956253.930   -13213686.99743 -10271238.31542  22956254.997    22956249.735
 04  7 22  2 59  0.0000000  0 10G31G27G28G13G 7G10G29G 8G26G19
  21860071.709   -19931553.98443 -15521837.22842  21860073.263    21860069.904
  20962969.500   -25101797.11343 -19532128.85642  20962970.810    20962966.831
  20999773.071   -22504325.88043 -17506423.68042  20999774.587    20999769.531
  23790871.525    -5714623.12343  -4249509.82442  23790873.635    23790870.031
  23996861.159    -7693749.28343  -5954723.48842  23996862.104    23996863.582
  23971355.844    -5422762.11143  -4088745.24742  23971357.028    23971354.961
  22891782.824   -13115192.14043  -9869937.86942  22891784.996    22891781.151
  20200000.887   -29000496.30144 -22570673.87642  20200000.982    20199996.784
  23409344.180    -7332135.08243  -5670322.96842  23409346.062    23409342.911
  22967011.275   -13157156.84143 -10227188.87142  22967012.320    22967007.103
 04  7 22  2 59 30.0000000  0 10G31G27G28G13G 7G10G29G 8G26G19
  21841492.296   -20029188.61043 -15597916.11442  21841493.871    21841490.498
  20968410.571   -25073204.15743 -19509848.65242  20968411.877    20968407.867
  20992468.724   -22542710.98444 -17536334.13642  20992470.211    20992464.999
  23812209.277    -5602491.24743  -4162134.43542  23812211.475    23812208.303
  23976903.267    -7798628.83743  -6036447.69742  23976904.222    23976905.036
  23983222.235    -5360402.94743  -4040153.72942  23983223.674    23983221.954
  22876606.375   -13194945.36843  -9932083.20242  22876608.500    22876604.543
  20198705.884   -29007301.71544 -22575976.78742  20198705.971    20198701.763
  23391891.993    -7423847.69843  -5741787.27542  23391893.719    23391890.359
  22977860.101   -13100146.35143 -10182765.14142  22977861.085    22977855.895
 04  7 22  3  0  0.0000000  0 10G31G27G28G13G 7G10G29G 8G26G19
  21822977.857   -20126482.71143 -15673729.65242  21822979.360    21822975.842
  20973909.015   -25044309.70143 -19487333.50942  20973910.276    20973906.220
  20985229.451   -22580753.63844 -17565977.75142  20985230.954    20985225.695
  23833574.960    -5490213.28743  -4074645.21342  23833576.968    23833574.216
  23956960.247    -7903428.98743  -6118110.01542  23956961.246    23956961.839
  23995153.754    -5297704.34043  -3991297.70742  23995155.039    23995153.278
  22861494.215   -13274360.44243  -9993965.04842  22861496.335    22861492.301
  20197475.841   -29013765.55244 -22581013.54442  20197475.957    20197471.770
  23374499.160    -7515248.11443  -5813008.32442  23374500.803    23374497.356
  22988800.808   -13042652.11243 -10137964.46342  22988801.908    22988796.719
 04  7 22  3  0 30.0000000  0 10G31G27G28G13G 7G10G29G 8G26G19
  21804526.825   -20223442.99043 -15749283.06142  21804528.367    21804524.812
  20979463.079   -25015122.78243 -19464590.47542  20979464.356    20979460.281
  20978053.371   -22618463.80843 -17595362.29242  20978054.889    20978049.723
  23854966.397    -5377801.26643  -3987051.51042  23854968.229    23854965.631
  23937031.095    -8008156.83743  -6199716.01742  23937031.955    23937032.416
  24007147.432    -5234678.75843  -3942186.94242  24007148.286    24007146.626
  22846444.996   -13353444.50643 -10055588.95142  22846447.135    22846443.142
  20196309.096   -29019897.15644 -22585791.41342  20196309.199    20196304.937
  23357164.319    -7606343.19543  -5883991.44842  23357166.058    23357162.509
  22999831.528   -12984685.75943 -10092795.90042  22999832.566    22999827.345
 04  7 22  3  1  0.0000000  0 10G31G27G28G13G 7G10G29G 8G26G19
  21786142.304   -20320054.31243 -15824564.55842  21786143.823    21786140.281
  20985075.152   -24985630.85043 -19441609.76742  20985076.419    20985072.399
  20970942.980   -22655829.37544 -17624478.31342  20970944.457    20970939.304
  23876385.156    -5265245.45843  -3899345.77642  23876387.009    23876384.353
  23917118.409    -8112797.99843  -6281254.46942  23917119.344    23917119.658
  24019204.220    -5171317.08243  -3892814.25442  24019205.137    24019203.968
  22831461.540   -13432183.05843 -10116943.62942  22831463.586    22831459.757
  20195208.100   -29025682.95944 -22590299.83842  20195208.209    20195203.926
  23339890.401    -7697118.21343  -5954725.19642  23339892.132    23339888.572
  23010953.869   -12926237.34543 -10047251.70342  23010955.009    23010949.672
 04  7 22  3  1 30.0000000  0 10G31G27G28G13G 7G10G29G 8G26G19
  21767822.806   -20416323.68843 -15899579.61142  21767824.320    21767821.002
  20990743.574   -24955843.23143 -19418398.65042  20990744.807    20990740.794
  20963896.224   -22692860.63744 -17653333.82242  20963897.663    20963892.484
  23897829.145    -5152558.09443  -3811537.52142  23897831.032    23897827.960
  23897221.074    -8217359.99443  -6362731.23842  23897222.072    23897222.052
  24031322.702    -5107631.91143  -3843189.49142  24031323.631    24031323.040
  22816542.316   -13510583.63843 -10178034.96242  22816544.442    22816540.591
  20194171.150   -29031132.09044 -22594545.91842  20194171.261    20194167.020
  23322676.055    -7787580.35943  -6025215.14442  23322677.883    23322674.169
  23022165.753   -12867318.58443 -10001340.99942  23022166.915    23022161.567
 04  7 22  3  2  0.0000000  0 10G31G27G28G13G 7G10G29G 8G26G19
  21749569.162   -20512246.17143 -15974324.36142  21749570.690    21749567.594
  20996468.652   -24925757.34543 -19394955.11242  20996469.886    20996465.954
  20956913.364   -22729555.75844 -17681927.40742  20956914.806    20956909.577
  23919297.860    -5039739.49743  -3723627.03142  23919299.878    23919296.709
  23877339.658    -8321838.56643  -6444142.99542  23877340.536    23877340.325
  24043503.043    -5043624.54443  -3793313.69342  24043503.638    24043503.323
  22801688.418   -13588641.73543 -10238859.41842  22801690.549    22801686.567
  20193198.780   -29036241.92644 -22598527.61042  20193198.900    20193194.658
  23305522.020    -7877725.10143  -6095457.75442  23305523.893    23305520.130
  23033467.065   -12807929.40143  -9955063.71142  23033468.211    23033463.054
 04  7 22  3  2 30.0000000  0 10G31G27G28G13G 7G10G29G 8G26G19
  21731383.432   -20607812.89943 -16048791.89342  21731384.934    21731381.745
  21002251.722   -24895366.85143 -19371274.21942  21002252.966    21002249.048
  20949995.572   -22765908.93143 -17710254.54442  20949997.005    20949991.736
  23940792.445    -4926786.19843  -3635611.55342  23940794.368    23940791.047
  23857475.322    -8426225.24843  -6525483.15142  23857476.319    23857476.192
  24055745.176    -4979291.75743  -3743184.27542  24055745.658    24055745.677
  22786901.213   -13666348.95243 -10299410.46542  22786903.399    22786899.225
  20192292.205   -29041005.98844 -22602239.87142  20192292.330    20192288.055
  23288429.936    -7967543.61943  -6165446.13842  23288432.005    23288428.179
  23044858.709   -12748065.87443  -9908416.81642  23044859.788    23044854.811
 04  7 22  3  3  0.0000000  0 10G31G27G28G13G 7G10G29G 8G26G19
  21713264.442   -20703028.98743 -16122986.18642  21713265.964    21713262.593
  21008091.383   -24864679.26743 -19347361.84542  21008092.593    21008088.716
  20943141.246   -22801928.45243 -17738321.70242  20943142.716    20943137.454
  23962310.563    -4813708.90743  -3547499.46942  23962312.480    23962309.123
  23837627.258    -8530525.78543  -6606756.14742  23837628.364    23837628.465
  24068047.612    -4914644.31843  -3692809.75342  24068048.198    24068047.777
  22772179.658   -13743710.97543 -10359692.53042  22772181.911    22772177.655
  20191450.130   -29045431.06144 -22605687.98442  20191450.258    20191445.992
  23271398.976    -8057041.48043  -6235184.67042  23271401.057    23271397.326
  23056338.603   -12687738.04943  -9861408.14642  23056339.776    23056334.835
 04  7 22  3  3 30.0000000  0 10G31G27G28G13G 7G10G29G 8G26G19
  21695213.337   -20797887.59943 -16196901.95142  21695214.891    21695211.593
  21013988.442   -24833690.12543 -19323214.48342  21013989.691    21013985.755
  20936351.068   -22837610.53843 -17766125.92442  20936352.568    20936347.405
  23983852.577    -4700505.83743  -3459289.38442  23983854.394    23983851.338
  23817796.880    -8634733.79243  -6687957.04142  23817798.073    23817798.227
  24080409.972    -4849681.33843  -3642189.29542  24080410.382    24080409.665
  22757525.123   -13820721.38443 -10419700.61142  22757527.281    22757523.087
  20190673.467   -29049512.64444 -22608868.44042  20190673.533    20190669.305
  23254430.228    -8146211.89943  -6304668.06942  23254432.378    23254428.763
  23067907.452   -12626944.04043  -9814036.19842  23067908.543    23067903.532
 04  7 22  3  4  0.0000000  0 10G31G27G28G13G 7G10G29G 8G26G19
  21677231.272   -20892383.93543 -16270535.42542  21677232.781    21677229.676
  21019943.351   -24802397.08643 -19298830.31542  21019944.608    21019940.623
  20929625.515   -22872953.52243 -17793665.90842  20929626.974    20929621.884
  24005418.452    -4587177.35843  -3370981.58842  24005420.313    24005417.340
  23797984.995    -8738845.18943  -6769082.64142  23797986.345    23797986.171
  24092832.049    -4784403.90143  -3591323.82542  24092832.316    24092831.676
  22742938.173   -13897375.99443 -10479431.44942  22742940.285    22742936.212
  20189962.696   -29053247.75644 -22611778.90742  20189962.787    20189958.544
  23237524.658    -8235050.41943  -6373892.83142  23237526.909    23237523.403
  23079564.892   -12565684.05743  -9766301.14642  23079565.904    23079560.985
 04  7 22  3  4 30.0000000  0 10G31G27G28G13G 7G10G29G 8G26G19
  21659318.571   -20986516.41643 -16343885.35842  21659320.070    21659316.891
  21025955.978   -24770800.90343 -19274209.93542  21025957.230    21025953.225
  20922964.128   -22907959.32343 -17820943.14642  20922965.594    20922960.517
  24027007.297    -4473727.53943  -3282579.23942  24027009.218    24027006.252
  23778191.826    -8842858.77143  -6850132.02842  23778193.185    23778192.706
  24105311.365     3158283.52853   2597783.13852  24105314.285    24105316.154
  22728419.175   -13973673.49643 -10538884.03042  22728421.295    22728417.318
  20189317.689   -29056637.02344 -22614419.88542  20189317.806    20189313.570
  23220682.637    -8323555.70843  -6442857.93542  23220684.897    23220681.435
  23091310.262   -12503961.40143  -9718205.58442  23091311.270    23091306.464
 04  7 22  3  5  0.0000000  0 10G31G27G28G13G 7G10G29G 8G26G19
  21641474.947   -21080284.77343 -16416951.56342  21641476.566    21641473.197
  21032025.841   -24738903.77443 -19249355.04142  21032027.111    21032023.087
  20916366.432   -22942630.45443 -17847959.61042  20916367.894    20916362.819
  24048618.314    -4360161.27743  -3194086.16042  24048620.289    24048617.084
  23758417.018    -8946774.99343  -6931105.58142  23758418.292    23758417.627
  24117851.927     3224175.41743   2649127.37842  24117852.497    24117854.762
  22713968.029   -14049614.34243 -10598058.69842  22713970.147    22713966.298
  20188738.202   -29059682.49644 -22616792.97542  20188738.301    20188734.022
  23203903.900    -8411727.63143  -6511563.26442  23203906.328    23203902.796
  23103142.957   -12441780.90343  -9669753.27442  23103143.895    23103139.107
 04  7 22  3  5 30.0000000  0 10G31G27G28G13G 7G10G29G 8G26G19
  21623701.172   -21173685.95943 -16489731.65342  21623702.790    21623699.396
  21038153.061   -24706705.02843 -19224265.11942  21038154.351    21038150.338
  20909832.391   -22976967.00343 -17874715.35742  20909833.810    20909828.803
  24070251.199    -4246480.57943  -3105503.92542  24070253.093    24070249.894
  23738661.187    -9050591.03543  -7012001.06642  23738662.464    23738661.784
  24130448.838                     2700706.84842                  24130450.472
  22699585.338   -14125195.95643 -10656953.44742  22699587.333    22699583.640
  20188224.311   -29062382.98044 -22618897.25542  20188224.409    20188220.117
  23187189.152    -8499563.43943  -6580006.68042  23187191.493    23187188.148
  23115062.321   -12379144.38543  -9620945.62042  23115063.304    23115058.632
 04  7 22  3  6  0.0000000  0  9G31G27G28G13G 7G29G 8G26G19
  21605999.461   -21266708.84243 -16562216.96142  21606001.033    21605997.698
  21044339.358   -24674196.09243 -19198933.49642  21044340.617    21044336.606
  20903363.520   -23010961.09843 -17901204.26342  20903364.953    20903359.959
  24091906.914    -4132680.07843  -3016828.31842  24091908.810    24091905.531
  23718926.380    -9154296.58943  -7092810.48542  23718927.603    23718926.936
  22685272.934   -14200407.70043 -10715559.98442  22685274.939    22685271.298
  20187777.761   -29064729.67544 -22620725.85242  20187777.848    20187773.545
  23170540.520    -8587052.39443  -6648179.83142  23170542.776    23170539.559
  23127069.665   -12316045.57643  -9571777.74242  23127070.691    23127065.969
 04  7 22  3  6 30.0000000  0  9G31G27G28G13G 7G29G 8G26G19
  21588368.051   -21359361.85443 -16634414.06942  21588369.607    21588366.509
  21050582.582   -24641387.65543 -19173368.50242  21050583.865    21050579.869
  20896957.641   -23044624.36243 -17927435.37442  20896959.067    20896954.018
  24113582.583    -4018773.36443  -2928069.88342  24113584.487    24113581.427
  23699211.202    -9257900.53843  -7173540.72642  23699212.163    23699211.859
  22671029.298   -14275258.25443 -10773885.08542  22671031.313    22671027.641
  20187396.609   -29066732.80744 -22622286.73942  20187396.697    20187392.431
  23153956.287    -8674203.00543  -6716089.35542  23153958.536    23153955.371
  23139162.344   -12252497.85743  -9522260.06242  23139163.398    23139158.587
 04  7 22  3  7  0.0000000  0  9G31G27G28G13G 7G29G 8G26G19
  21570808.809   -21451635.97143 -16706315.94142  21570810.293    21570807.241
  21056884.109   -24608273.16843 -19147565.02742  21056885.373    21056881.392
  20890615.852   -23077950.92643 -17953404.11842  20890617.274    20890612.174
  24135278.984    -3904756.49043  -2839225.64842  24135280.971    24135278.311
  23679517.077    -9361394.26443  -7254185.04642  23679517.688    23679517.882
  22656855.993   -14349739.41343 -10831922.32542  22656857.931    22656854.345
  20187082.201   -29068385.25844 -22623574.36542  20187082.281    20187078.003
  23137438.105    -8761006.41143  -6783728.31942  23137440.416    23137437.285
  23151341.212   -12188497.40343  -9472389.62342  23151342.270    23151337.361
 04  7 22  3  7 30.0000000  0  9G31G27G28G13G 7G29G 8G26G19
  21553321.890   -21543530.68743 -16777922.16042  21553323.352    21553319.996
  21063243.493   -24574854.34643 -19121524.40642  21063244.754    21063240.800
  20884337.626   -23110943.18043 -17979112.37042  20884339.090    20884333.909
  24156995.823    -3790634.09243  -2750299.20342  24156997.554    24156995.291
  23659843.884    -9464777.69843  -7334743.42142  23659844.383    23659844.886
  22642752.870   -14423850.81843 -10889671.44642  22642754.827    22642751.417
  20186834.088   -29069689.10844 -22624590.36242  20186834.185    20186829.841
  23120986.158    -8847462.47343  -6851096.62142  23120988.386    23120985.321
  23163605.432   -12124048.54943  -9422169.77442  23163606.467    23163601.673
 04  7 22  3  8  0.0000000  0  9G31G27G28G13G 7G29G 8G26G19
  21535908.216   -21635040.24243 -16849228.25742  21535909.705    21535906.230
  21069661.400   -24541127.99143 -19095244.14442  21069662.642    21069658.760
  20878123.426   -23143598.70343 -18004558.23742  20878124.880    20878119.795
  24178732.645    -3676405.90243  -2661290.34042  24178734.338    24178732.071
  23640192.438    -9568045.74243  -7415211.88542  23640193.188    23640193.638
  22628721.202   -14497587.35843 -10947128.45442  22628723.045    22628719.847
  20186653.028   -29070640.50944 -22625331.72342  20186653.121    20186648.841
  23104601.417    -8933565.39043  -6918189.73042  23104603.594    23104600.467
  23175955.212   -12059150.64643  -9371600.02842  23175956.241    23175951.383
 04  7 22  3  8 30.0000000  0  9G31G27G28G13G 7G29G 8G26G19
  21518567.461   -21726165.31443 -16920234.78042  21518568.953    21518565.805
  21076137.260   -24507097.13243 -19068726.60542  21076138.493    21076134.636
  20871972.668   -23175921.37243 -18029744.73742  20871974.073    20871968.969
  24200488.325    -3562077.90043  -2572203.70942  24200490.338    24200488.037
  23620562.659    -9671199.52243  -7495591.35542  23620563.633    23620564.067
  22614760.739   -14570950.12943 -11004294.24342  22614762.562    22614759.386
  20186538.609   -29071241.86144 -22625800.32642  20186538.686    20186534.427
  23088283.591    -9019316.29943  -6985008.55942  23088285.858    23088282.622
  23188389.181   -11993809.13143  -9320684.60142  23188390.384    23188385.376
 04  7 22  3  9  0.0000000  0  9G31G27G28G13G 7G29G 8G26G19
  21501301.596   -21816898.41843 -16990935.86942  21501303.006    21501299.888
  21082671.998   -24472756.70143 -19041967.84042  21082673.248    21082669.447
  20865886.146   -23207906.65644 -18054668.33242  20865887.531    20865882.335
  24222263.613    -3447647.82643  -2483037.52142  24222265.556    24222263.325
  23600956.073    -9774231.99843  -7575876.29442  23600957.105    23600957.695
  22600872.913   -14643932.14443 -11061163.34042  22600874.635    22600871.330
  20186491.801   -29071488.10244 -22625992.20942  20186491.875    20186487.577
  23072034.183    -9104707.67543  -7051547.23142  23072036.466    23072033.151
  23200908.297   -11928021.64943  -9269421.67842  23200909.289    23200904.169
 04  7 22  3  9 30.0000000  0  9G31G27G28G13G 7G29G 8G26G19
  21484109.631   -21907242.94543 -17061334.14842  21484111.075    21484107.851
  21089264.584   -24438112.38143 -19014972.28242  21089265.843    21089262.007
  20859862.514   -23239561.29543 -18079334.27542  20859863.909    20859858.647
  24244056.866    -3333124.16243  -2393798.39542  24244058.687    24244056.532
  23581371.944    -9877146.99243  -7656069.67642  23581372.823    23581373.619
  22587056.642   -14716537.24543 -11117738.72942  22587058.336    22587054.997
  20186511.410   -29071384.81944 -22625911.72742  20186511.501    20186507.257
  23055852.400    -9189743.36243  -7117808.74942  23055854.718    23055851.358
  23213510.349   -11861796.77943  -9217817.94342  23213511.440    23213506.257
 04  7 22  3 10  0.0000000  0  9G31G27G28G13G 7G29G 8G26G19
  21466992.962   -21997190.72743 -17131423.30142  21466994.391    21466991.267
  21095916.074   -24403158.73343 -18987735.69542  21095917.313    21095913.424
  20853902.645   -23270880.14243 -18103738.57142  20853904.086    20853898.802
  24265868.414    -3218504.26443  -2304484.29242  24265870.019    24265868.094
  23561811.723    -9979936.86843  -7736165.58142  23561812.522    23561813.193
  22573313.450   -14788757.69943 -11174014.38142  22573315.169    22573311.916
  20186598.722   -29070925.64244 -22625553.92642  20186598.825    20186594.648
  23039739.848    -9274415.33243  -7183786.86842  23039742.122    23039738.736
  23226196.353   -11795131.12243  -9165870.71642  23226197.384    23226192.319
 04  7 22  3 10 30.0000000  0  9G31G27G28G13G 7G29G 8G26G19
  21449951.961   -22086741.24843 -17201202.89442  21449953.368    21449950.341
  21102626.124   -24367897.13743 -18960259.14942  21102627.392    21102623.491
  20848006.325   -23301865.70244 -18127883.15542  20848007.729    20848002.477
  24287697.248    -3103792.50143  -2215098.58242  24287699.005    24287697.516
  23542275.431   -10082601.46443  -7816163.85342  23542276.146    23542276.518
  22559643.498   -14860593.55743 -11229990.35042  22559645.199    22559642.017
  20186753.536   -29070111.77044 -22624919.74042  20186753.642    20186749.521
  23023696.546    -9358723.07043  -7249481.15742  23023698.862    23023695.316
  23238965.427   -11728029.23343  -9113583.56842  23238966.491    23238961.462
 04  7 22  3 11  0.0000000  0  9G31G27G28G13G 7G29G 8G26G19
  21432987.111   -22175892.90243 -17270671.66842  21432988.525    21432985.296
  21109394.615   -24332328.66243 -18932543.47242  21109395.899    21109391.969
  20842173.048   -23332519.66643 -18151769.35342  20842174.508    20842169.298
  24309543.038    -2988992.48543  -2125644.09842  24309544.997    24309543.711
  23522763.169   -10185139.70843  -7896063.68142  23522763.972    23522763.750
  22546047.133   -14932043.37243 -11285665.51642  22546048.775    22546045.434
  20186975.779   -29068944.11744 -22624009.88742  20186975.847    20186971.733
  23007722.671    -9442665.26543  -7314890.60842  23007725.049    23007721.472
  23251817.175   -11660494.42343  -9060959.08342  23251818.043    23251813.051
 04  7 22  3 11 30.0000000  0 10G31G27G28G13G 7G29G 8G26G19G11
  21416097.346   -22264648.96543 -17339832.19342  21416098.805    21416095.428
  21116220.414   -24296458.81743 -18904592.96842  21116221.689    21116217.848
  20836401.647   -23362848.25243 -18175402.00642  20836403.117    20836397.919
  24331404.273    -2874112.76143  -2036127.49842  24331406.372    24331404.776
  23503273.988   -10287555.36443  -7975867.98242  23503274.992    23503274.433
  22532523.433   -15003111.16143 -11341042.99242  22532525.051    22532521.596
  20187264.302   -29067427.71344 -22622828.27342  20187264.396    20187260.305
  22991817.686    -9526245.36143  -7380017.91042  22991820.078    22991816.581
  23264749.342   -11592535.04943  -9008003.75142  23264750.309    23264745.384
  24575297.767    -2731518.96453  -2120416.29752  24575299.611    24575296.324
 04  7 22  3 12  0.0000000  0 10G31G27G28G13G 7G29G 8G26G19G11
  21399287.201   -22352986.47043 -17408666.57342  21399288.648    21399285.242
  21123107.522   -24260267.31643 -18876391.82242  21123108.749    21123104.921
  20830695.962   -23392831.78943 -18198765.79942  20830697.404    20830692.173
  24353283.980    -2759135.60543  -1946535.05042  24353286.099    24353284.412
  23483812.376   -10389825.85043  -8055559.18342  23483813.551    23483812.912
  22519076.630   -15073774.45643 -11396105.27542  22519078.282    22519074.784
  20187623.141   -29065541.76244 -22621358.70442  20187623.255    20187619.153
  22975985.998    -9609440.61643  -7444845.34242  22975988.412    22975985.138
  23277765.623   -11524133.23643  -8954703.68442  23277766.703    23277761.788
  24563654.525    -2792704.12743  -2168093.00942  24563656.580    24563653.762
 04  7 22  3 12 30.0000000  0 10G31G27G28G13G 7G29G 8G26G19G11
  21382554.266   -22440918.50243 -17477184.99542  21382555.696    21382552.255
  21130052.928   -24223769.18343 -18847951.74742  21130054.166    21130050.294
  20825052.912   -23422486.37143 -18221873.26642  20825054.357    20825049.096
  24375178.678    -2644079.54243  -1856881.10942  24375180.805    24375178.735
  23464375.849   -10491964.50843  -8135147.64742  23464377.159    23464376.560
  22505704.288   -15144046.67043 -11450862.82342  22505705.859    22505702.383
  20188049.561   -29063301.26844 -22619612.87542  20188049.636    20188045.457
  22960225.270    -9692263.99443  -7509383.00142  22960227.564    22960224.493
  23290862.667   -11455306.89943  -8901072.78542  23290863.958    23290859.036
  24552052.316    -2853674.04543  -2215602.00842  24552054.353    24552051.362
 04  7 22  3 13  0.0000000  0 10G31G27G28G13G 7G29G 8G26G19G11
  21365899.814   -22528438.10243 -17545382.04242  21365901.235    21365897.748
  21137057.379   -24186960.12343 -18819269.38242  21137058.681    21137054.873
  20819473.040   -23451808.46043 -18244721.64442  20819474.486    20819469.313
  24397088.440    -2528942.52443  -1767164.05842  24397090.826    24397088.314
  23444965.717   -10593964.87643  -8214628.35642  23444966.947    23444966.332
  22492407.457   -15213921.17443 -11505310.46142  22492409.144    22492405.633
  20188544.165   -29060701.82944 -22617587.33842  20188544.227    20188540.096
  22944536.580    -9774708.98843  -7573625.81042  22944538.746    22944535.728
  23304041.084   -11386054.27743  -8847109.73942  23304042.239    23304037.438
  24540492.532    -2914421.94043  -2262937.96942  24540494.232    24540491.578
 04  7 22  3 13 30.0000000  0 10G31G27G28G13G 7G29G 8G26G19G11
  21349324.632   -22615541.29743 -17613254.61142  21349325.992    21349322.522
  21144121.524   -24149838.27243 -18790343.28942  21144122.736    21144118.903
  20813956.690   -23480796.96743 -18267310.08942  20813958.127    20813952.974
  24419013.515    -2413725.62843  -1677384.78142  24419015.716    24419013.201
  23425582.520   -10695823.43543  -8293998.52742  23425583.605    23425582.964
  22479187.063   -15283394.48243 -11559445.49242  22479188.798    22479185.270
  20189107.711   -29057740.90444 -22615280.13242  20189107.756    20189103.495
  22928920.540    -9856771.80043  -7637570.80642  22928922.550    22928919.660
  23317300.569   -11316376.50243  -8792815.37042  23317301.621    23317296.733
  24528975.341    -2974943.76843  -2310097.78142  24528977.146    24528974.462
 04  7 22  3 14  0.0000000  0 10G31G27G28G13G 7G29G 8G26G19G11
  21332827.671   -22702232.94843 -17680806.50542  21332829.124    21332825.598
  21151243.649   -24112411.09643 -18761179.26842  21151244.911    21151241.016
  20808502.317   -23509459.82943 -18289644.78742  20808503.753    20808498.583
  24440952.176    -2298438.85843  -1587551.03442  24440954.357    24440951.528
  23406225.658   -10797545.41843  -8373262.31942  23406226.537    23406225.481
  22466042.065   -15352472.08143 -11613272.16742  22466043.770    22466040.296
  20189738.666   -29054424.98944 -22612696.31242  20189738.740    20189734.484
  22913376.291    -9938457.27743  -7701221.79542  22913378.205    22913375.341
  23330638.646   -11246283.30243  -8738197.33242  23330639.778    23330635.058
  24517500.724    -3035244.34643  -2357085.21342  24517502.279    24517499.751
 04  7 22  3 14 30.0000000  0 10G31G27G28G13G 7G29G 8G26G19G11
  21316412.023   -22788498.18643 -17748026.13942  21316413.401    21316409.982
  21158426.322   -24074665.82043 -18731767.39642  21158427.579    21158423.730
  20803112.137   -23537785.12843 -18311716.43942  20803113.615    20803108.408
  24462906.016    -2183072.53843  -1497655.31142  24462908.268    24462905.208
  23386897.371   -10899116.41643  -8452408.45842  23386898.267    23386896.901
  22452975.090   -15421139.35943 -11666779.11942  22452976.824    22452973.382
  20190439.569   -29050741.84444 -22609826.33342  20190439.621    20190435.391
  22897906.603   -10019750.81043  -7764567.37642  22897908.479    22897905.565
  23344057.961   -11175764.38743  -8683247.53442  23344058.954    23344054.289
  24506070.742    -3095308.82843  -2403888.62642  24506072.381    24506069.806
 04  7 22  3 15  0.0000000  0 10G31G27G28G13G 7G29G 8G26G19G11
  21300075.971   -22874344.42243 -17814919.27342  21300077.333    21300074.031
  21165667.677   -24036612.47843 -18702115.45242  21165668.929    21165665.053
  20797784.238   -23565783.60543 -18333533.42642  20797785.709    20797780.482
  24484872.336    -2067639.42843  -1407707.50542  24484874.641    24484871.772
  23367596.226   -11000544.07543  -8531442.90142  23367597.327    23367595.752
  22439984.844   -15489404.14543 -11719972.44142  22439986.499    22439983.044
  20191208.655   -29046700.44444 -22606677.18942  20191208.700    20191204.426
  22882510.105   -10100659.87043  -7827613.36642  22882511.993    22882509.055
  23357556.078   -11104832.67143  -8627976.07842  23357556.839    23357552.121
  24494684.403    -3155143.99343  -2450513.39842  24494686.178    24494683.515
 04  7 22  3 15 30.0000000  0 10G31G27G28G13G 7G29G 8G26G19G11
  21283821.232   -22959763.94643 -17881479.90142  21283822.611    21283819.208
  21172968.688   -23998245.41143 -18672219.05342  21172969.932    21172966.009
  20792519.372   -23593450.47243 -18355092.02542  20792520.868    20792515.693
  24506851.955    -1952136.82543  -1317705.58142  24506854.255    24506851.424
  23348323.519   -11101821.15943  -8610360.03642  23348324.830    23348323.124
  22427072.447   -15557259.28943 -11772846.55242  22427074.164    22427070.701
  20192046.846   -29042295.07844 -22603244.43442  20192046.933    20192042.728
  22867188.233   -10181176.86343  -7890353.84742  22867190.104    22867187.163
  23371133.486   -11033485.19943  -8572380.67242  23371134.190    23371129.071
  24483343.122    -3214742.83743  -2496954.00442  24483345.004    24483342.139
 04  7 22  3 16  0.0000000  0 10G31G27G28G13G 7G29G 8G26G19G11
  21267648.195   -23044753.84943 -17947705.75242  21267649.630    21267646.155
  21180329.422   -23959564.43443 -18642078.04242  21180330.680    21180326.734
  20787317.564   -23620785.97543 -18376392.41342  20787319.029    20787313.978
  24528844.280    -1836566.98443  -1227651.25442  24528846.689    24528843.606
  23329080.275   -11202945.16343  -8689157.86542  23329081.494    23329079.680
  22414238.493   -15624702.20243 -11825399.45342  22414240.266    22414236.801
  20192954.665   -29037525.00144 -22599527.49642  20192954.698    20192950.466
  22851941.508   -10261299.05743  -7952786.70342  22851943.431    22851940.433
  23384788.394    -1509204.24553  -1150863.06052  23384790.878    23384785.815
  24472047.380    -3274102.58043  -2543208.28542  24472049.341    24472046.178
 04  7 22  3 16 30.0000000  0  9G31G27G28G13G 7G29G 8G26G11
  21251556.805   -23129314.34243 -18013597.00542  21251558.268    21251554.842
  21187749.498   -23920571.71443 -18611694.12542  21187750.762    21187746.789
  20782178.270   -23647793.08443 -18397436.90842  20782179.742    20782174.672
  24550848.619    -1720934.86243  -1137548.39142  24550851.103    24550847.687
  23309865.976   -11303916.51343  -8767836.72742  23309867.258    23309865.397
  22401482.807   -15691733.55543 -11877631.65942  22401484.693    22401481.205
  20193931.328   -29032392.37844 -22595528.05242  20193931.404    20193927.211
  22836769.989   -10341026.60843  -8014912.03042  22836771.828    22836768.688
  24460797.173    -3333222.57743  -2589275.73642  24460799.128    24460796.172
 04  7 22  3 17  0.0000000  0 11G31G27G28G13G 7G10G29G 8G26G19G11
  21235547.698   -23213442.58843 -18079151.44142  21235549.174    21235545.809
  21195229.075   -23881266.75443 -18581066.91142  21195230.327    21195226.270
  20777101.416   -23674472.55643 -18418226.10242  20777102.882    20777097.736
  24572863.877    -1605242.95143  -1047398.93642  24572866.374    24572863.131
  23290681.204   -11404732.81143  -8846394.78542  23290682.369    23290680.764
  24434811.667
  22388805.985   -15758350.85543 -11929541.22242  22388807.882    22388804.416
  20194977.161   -29026896.44244 -22591245.50042  20194977.252    20194973.085
  22821673.863   -10420356.92943  -8076727.81042  22821675.762    22821672.461
  23412334.093      210961.08553    189525.51752  23412334.086    23412328.591
  24449592.924    -3392100.37643  -2635154.51842  24449594.864    24449592.203
 04  7 22  3 17 30.0000000  0 11G31G27G28G13G 7G10G29G 8G26G19G11
  21219622.255   -23297131.22643 -18144363.32842  21219623.701    21219620.245
  21202768.957   -23841644.73843 -18550192.62942  21202770.219    21202766.165
  20772087.627   -23700819.86943 -18438756.47242  20772089.091    20772084.038
  24594890.862    -1489488.98643   -957201.11542  24594893.345    24594890.330
  23271527.031   -11505386.90943  -8924826.44642  23271528.302    23271527.200
  24448623.107
  22376209.274   -15824547.29343 -11981122.84442  22376211.108    22376207.649
  20196093.193   -29021031.80444 -22586675.65842  20196093.306    20196089.095
  22806654.409   -10499282.85243  -8138228.50542  22806656.417    22806653.245
  23426221.153      283945.12253    246396.20452  23426222.325    23426217.334
  24438436.303    -3450728.55143  -2680838.73642  24438438.391    24438435.457
 04  7 22  3 18  0.0000000  0 10G31G27G28G13G 7G29G 8G26G19G11
  21203780.241   -23380381.31543 -18209233.50042  21203781.722    21203778.142
  21210368.398   -23801708.98343 -18519073.86542  21210369.719    21210365.750
  20767136.208   -23726839.29143 -18459031.34842  20767137.673    20767132.701
  24616928.685    -1373678.97543   -866959.60542  24616930.919    24616928.327
  23252403.773   -11605880.27943  -9003132.88442  23252404.900    23252404.019
  22363692.290   -15890324.19843 -12032377.56242  22363694.134    22363690.659
  20197278.844   -29014801.40544 -22581820.79642  20197278.923    20197274.732
  22791712.054   -10577805.46543  -8199414.94142  22791713.942    22791710.929
  23440186.123      357331.72353    303580.54552  23440187.753    23440182.220
  24427326.650    -3509108.29943  -2726329.32442  24427328.829    24427325.427
 04  7 22  3 18 30.0000000  0 10G31G27G28G13G 7G29G 8G26G19G11
  21188021.963   -23463191.85043 -18273761.15542  21188023.426    21188019.775
  21218027.371   -23761460.76443 -18487711.62642  21218028.676    21218024.780
  20762246.895   -23752532.91243 -18479052.35442  20762248.348    20762243.336
  24638976.465    -1257817.11443   -776677.71242  24638978.550    24638976.463
  23233311.302   -11706212.24743  -9081313.53642  23233312.418    23233311.297
  22351255.248   -15955681.09743 -12083305.01042  22351257.101    22351253.579
  20198533.925   -29008206.06744 -22576681.57742  20198533.978    20198529.767
  22776846.613   -10655923.79443  -8260286.35542  22776848.550    22776845.675
  23454227.616      431116.80153    361075.38852  23454228.996    23454223.202
  24416264.787    -3567238.60743  -2771625.59342  24416266.861    24416263.419
 04  7 22  3 19  0.0000000  0 11G31G27G28G13G 7G10G29G 8G26G19G11
  21172348.434   -23545556.61543 -18337941.46142  21172349.906    21172346.212
  21225746.629   -23720896.28343 -18456102.96042  21225747.897    21225743.978
  20757420.278   -23777897.49543 -18498816.96142  20757421.665    20757416.595
  24661034.360    -1141902.10143   -686354.40842  24661036.523    24661034.676
  23214250.557   -11806376.91943  -9159363.84942  23214251.678    23214250.198
  24490314.960
  22338899.178   -16020612.26843 -12133900.70542  22338901.047    22338897.561
  20199859.209   -29001241.30544 -22571254.48342  20199859.291    20199855.163
  22762059.364   -10733631.86843  -8320838.08042  22762061.333    22762058.435
  23468344.635      505301.50743    418881.61242  23468346.178    23468340.112
  24405251.688    -3625112.87343  -2816722.40042  24405253.679    24405250.235
 04  7 22  3 19 30.0000000  0 10G31G27G28G13G 7G29G 8G26G19G11
  21156760.384   -23627471.66343 -18401771.33042  21156761.899    21156758.153
  21233526.374   -23680013.62943 -18424246.37742  21233527.655    21233523.672
  20752656.267   -23802932.48343 -18518324.72742  20752657.666    20752652.572
  24683102.112    -1025935.23143   -595990.68842  24683104.308    24683102.484
  23195222.291   -11906370.67443  -9237280.98442  23195223.313    23195221.794
  22326624.858   -16085114.05643 -12184161.81842  22326626.708    22326623.230
  20201255.237   -28993905.33844 -22565538.14642  20201255.296    20201251.138
  22747350.846   -10810925.83943  -8381067.12642  22747352.890    22747349.951
  23482536.899      579884.42153    476998.11852  23482538.658    23482532.965
  24394288.132    -3682727.48643  -2861616.83942  24394289.922    24394286.616
 04  7 22  3 20  0.0000000  0 11G31G27G28G13G 7G10G29G 8G26G19G11
  21141257.724   -23708938.96343 -18465252.30842  21141259.214    21141255.295
  21241365.687   -23638817.33543 -18392145.38442  21241366.967    21241363.054
  20747954.117   -23827642.38143 -18537579.17742  20747955.543    20747950.360
  24705177.984     -909923.51043   -505592.00142  24705180.048    24705178.587
  23176226.189   -12006195.56643  -9315066.52042  23176227.137    23176225.779
  24518323.950       85328.42053     18193.58952  24518323.521    24518324.664
  22314431.780   -16149188.60843 -12234090.02142  22314433.616    22314430.106
  20202721.121   -28986202.03444 -22559535.56242  20202721.199    20202717.039
  22732720.774   -10887807.41543  -8440974.80742  22732722.807    22732719.814
  23496804.076      654859.47843    535420.19942  23496805.685    23496800.274
  24383373.478    -3740083.52243  -2906309.80442  24383375.409    24383372.238
 04  7 22  3 20 30.0000000  0 11G31G27G28G13G 7G10G29G 8G26G19G11
  21125840.652   -23789955.43843 -18528381.99242  21125842.184    21125838.421
  21249264.898   -23597306.64743 -18359799.40042  21249266.123    21249262.318
  20743313.873   -23852027.07443 -18556580.24142  20743315.276    20743310.057
  24727261.979     -793868.65943   -415159.71242  24727263.981    24727262.887
  23157262.784   -12105849.07643  -9392718.51442  23157263.817    23157262.494
  24532387.739      159235.35453     75783.32352  24532387.828    24532388.416
  22302320.581   -16212833.44343 -12283683.38942  22302322.335    22302318.738
  20204257.101   -28978130.38644 -22553245.96842  20204257.161    20204252.987
  22718169.472   -10964274.01243  -8500559.13642  22718171.554    22718168.530
  23511145.890      730224.33543    594146.04042  23511147.288    23511142.145
  24372508.603    -3797178.43743  -2950799.29142  24372510.627    24372507.329
 04  7 22  3 21  0.0000000  0 11G31G27G28G13G 7G10G29G 8G26G19G11
  21110510.003   -23870518.58643 -18591158.44242  21110511.487    21110507.836
  21257224.029   -23555481.19643 -18327208.15442  21257225.290    21257221.467
  20738735.379   -23876087.36443 -18575328.51742  20738736.778    20738731.560
  24749354.289     -677772.57743   -324695.26242  24749355.855    24749355.249
  23138332.113   -12205328.76743  -9470235.06942  23138333.264    23138332.273
  24546492.570      233350.62443    133535.38642  24546492.715    24546491.812
  22290291.442   -16276046.69843 -12332940.45742  22290293.189    22290289.563
  20205863.344   -28969689.31144 -22546668.50742  20205863.391    20205859.255
  22703697.710   -11040323.06743  -8559818.11142  22703699.735    22703696.844
  23525561.003      805976.48843    653173.64842  23525562.682    23525557.536
  24361694.122    -3854009.56743  -2995083.23942  24361696.073    24361692.810
 04  7 22  3 21 30.0000000  0 10G31G27G28G 7G10G29G 8G26G19G11
  21095266.693   -23950622.80843 -18653577.26842  21095268.179    21095264.473
  21265243.627   -23513337.73143 -18294369.10742  21265244.941    21265241.152
  20734219.106   -23899820.77943 -18593822.07942  20734220.515    20734215.268
  23119435.696   -12304629.43443  -9547612.12842  23119436.815    23119435.949
  24560635.788      307673.99143    191449.62742  24560635.857    24560635.276
  22278345.511   -16338822.78343 -12381856.87142  22278347.276    22278343.667
  20207540.378   -28960875.81944 -22539800.84142  20207540.460    20207536.392
  22689306.444   -11115949.04543  -8618747.41242  22689308.453    22689305.631
  23540050.048      882116.71243    712503.65642  23540051.591    23540046.542
  24350930.834    -3910571.18543  -3039157.18042  24350932.889    24350929.547
 04  7 22  3 22  0.0000000  0 10G31G27G28G 7G10G29G 8G26G19G11
  21080111.697   -24030262.18843 -18715633.87942  21080113.177    21080109.570
  21273324.627   -23470872.43743 -18261279.29142  21273325.880    21273322.087
  20729765.503   -23923224.36143 -18612058.64042  20729766.904    20729761.695
  23100574.593   -12403745.20543  -9624845.12142  23100575.696    23100574.878
  24574818.450      382205.97543    249526.49142  24574818.769    24574818.251
  22266483.863   -16401156.29643 -12430428.42042  22266485.644    22266481.991
  20209289.360   -28951685.33344 -22532639.42642  20209289.377    20209285.272
  22674997.078   -11191145.97743  -8677342.39542  22674998.950    22674996.043
  23554612.763      958645.76443    772136.64542  23554614.503    23554609.562
  24340219.940    -3966857.49643  -3083016.58542  24340221.889    24340218.643
 04  7 22  3 22 30.0000000  0 10G31G27G28G 7G10G29G 8G26G19G11
  21065043.393   -24109446.05243 -18777335.57542  21065044.787    21065041.409
  21281464.421   -23428097.13143 -18227947.87842  21281465.692    21281461.948
  20725372.307   -23946310.39143 -18630047.75342  20725373.720    20725368.507
  23081746.934   -12502685.83943  -9701941.63242  23081748.003    23081747.235
  24589038.404      456931.72043    307754.21342  24589038.912    24589038.044
  22254704.502   -16463057.06643 -12478662.76542  22254706.352    22254702.644
  20211107.822   -28942129.16044 -22525193.05542  20211107.887    20211103.785
  22660767.492   -11265923.37343  -8735610.45742  22660769.358    22660766.287
  23569247.275     1035549.39743    832061.51542  23569248.779    23569243.907
  24329559.632    -4022877.18543  -3126668.24142  24329561.788    24329558.329
 04  7 22  3 23  0.0000000  0 10G31G27G28G 7G10G29G 8G26G19G11
  21050063.968   -24188163.63843 -18838673.92642  21050065.314    21050062.028
  21289664.899   -23385003.22943 -18194368.23442  21289666.189    21289662.480
  20721041.222   -23969070.79943 -18647783.13642  20721042.639    20721037.348
  23062954.464   -12601440.71943  -9778893.42642  23062955.540    23062954.858
  24603296.314      531856.12143    366136.77042  24603296.910    24603296.118
  22243009.557   -16524514.38843 -12526551.55942  22243011.410    22243007.655
  20212997.579   -28932198.53244 -22517454.90642  20212997.651    20212993.519
  22646619.741   -11340270.55143  -8793543.28742  22646621.674    22646618.382
  23583954.300     1112833.58043    892282.92942  23583955.732    23583950.398
  24318952.118    -4078619.43143  -3170103.67442  24318954.200    24318950.963
 04  7 22  3 23 30.0000000  0 10G31G27G28G 7G10G29G 8G26G19G11
  21035174.235   -24266409.89043 -18899645.00042  21035175.552    21035172.147
  21297926.599   -23341587.94643 -18160538.16742  21297927.884    21297924.225
  20716772.328   -23991503.91743 -18665263.48342  20716773.778    20716768.572
  23044198.018   -12700005.02743  -9855696.72742  23044199.153    23044198.542
  24617591.854      606978.61743    424673.72642  24617592.401    24617591.557
  22231399.801   -16585523.83843 -12574091.37842  22231401.727    22231397.881
  20214959.200   -28921889.87044 -22509422.18742  20214959.285    20214955.185
  22632554.682   -11414182.45943  -8851136.95742  22632556.692    22632553.355
  23598733.579     1190498.41043    952800.96742  23598734.906    23598729.439
  24308398.104    -4134079.26843  -3213319.09642  24308400.229    24308397.313
 04  7 22  3 24  0.0000000  0 10G31G27G28G 7G10G29G 8G26G19G11
  21020373.403   -24344188.15743 -18960251.41642  21020374.710    21020371.291
  21306248.289   -23297856.97043 -18126462.10542  21306249.565    21306246.019
  20712564.477   -24013616.02743 -18682493.69242  20712565.915    20712560.777
  23025477.302   -12798382.41343  -9932354.35142  23025478.440    23025477.772
  24631923.096      682289.96943    483357.80142  24631923.789    24631922.523
  22219874.683   -16646089.22543 -12621285.17742  22219876.588    22219872.640
  20216991.821   -28911208.70344 -22501099.20342  20216991.866    20216987.698
  22618571.812   -11487662.46043  -8908394.07242  22618573.817    22618570.523
  23613583.503     1268535.35443   1013608.91842  23613584.771    23613579.337
  24297897.590    -4189259.86243  -3256316.94442  24297899.771    24297896.697
 04  7 22  3 24 30.0000000  0 10G31G27G28G 7G10G29G 8G26G19G11
  21005663.097   -24421491.43643 -19020487.71242  21005664.363    21005660.965
  21314631.091   -23253805.36343 -18092136.19542  21314632.321    21314628.808
  20708418.546   -24035402.87343 -18699470.45142  20708419.992    20708414.836
  23006793.645   -12896565.85443 -10008860.85842  23006794.731    23006793.809
  24646290.803      757791.90443    542190.38542  24646291.567    24646289.759
  22208435.273   -16706203.88243 -12668127.74842  22208437.178    22208433.187
  20219096.190   -28900149.87144 -22492481.93542  20219096.295    20219092.128
  22604672.298   -11560703.67643  -8965309.25742  22604674.429    22604671.221
  23628504.616     1346946.70843   1074708.63842  23628506.051    23628500.533
  24287451.407    -4244154.24243  -3299091.71542  24287453.621    24287450.840
 04  7 22  3 25  0.0000000  0 10G31G27G28G 7G10G29G 8G26G19G11
  20991043.395   -24498318.86643 -19080353.20642  20991044.684    20991041.288
  21323074.540   -23209434.66943 -18057561.64842  21323075.776    21323072.282
  20704334.132   -24056866.71343 -18716195.51242  20704335.564    20704330.410
  22988146.759   -12994554.70643 -10085215.75442  22988147.929    22988146.840
  24660693.682      833479.54343    601167.68742  24660694.652    24660692.599
  22197081.708   -16765867.07243 -12714618.53442  22197083.651    22197079.660
  20221272.298   -28888714.34544 -22483571.13642  20221272.351    20221268.220
  22590856.722   -11633305.10543  -9021881.75842  22590858.745    22590855.653
  23643496.245     1425728.49743   1136097.03542  23643497.842    23643492.274
  24277059.940    -4298761.13443  -3341642.48442  24277062.277    24277059.269
